<?xml version="1.0" encoding="UTF-8" standalone="no" ?>
<gpx xmlns="http://www.topografix.com/GPX/1/1" xmlns:xsi="http://www.w3.org/2001/XMLSchema-instance" xsi:schemaLocation="http://www.topografix.com/GPX/1/1 http://www.topografix.com/GPX/1/1/gpx.xsd" version="1.1" creator="VisuGPX - https://www.visugpx.com">
  <metadata>
    <name>Gorges de la Caranca</name>
    <desc><![CDATA[Montée en rive gauche du torrent par la vire en corniche.
Retour en rive droite par le sentier plus ancien.]]></desc>
  </metadata>
  <trk>
    <name><![CDATA[Gorges de la Caranca]]></name>
    <trkseg>
      <trkpt lat="42.52266" lon="2.22235">
        <ele>845.46</ele>
        <time>2020-06-22T07:07:34Z</time>
      </trkpt>
      <trkpt lat="42.52267" lon="2.22235">
        <ele>845.46</ele>
        <time>2020-06-22T07:07:35Z</time>
      </trkpt>
      <trkpt lat="42.52267" lon="2.22235">
        <ele>843.41</ele>
        <time>2020-06-22T07:07:40Z</time>
      </trkpt>
      <trkpt lat="42.52266" lon="2.22234">
        <ele>843.35</ele>
        <time>2020-06-22T07:08:07Z</time>
      </trkpt>
      <trkpt lat="42.52262" lon="2.22229">
        <ele>843.4</ele>
        <time>2020-06-22T07:08:14Z</time>
      </trkpt>
      <trkpt lat="42.52248" lon="2.22211">
        <ele>843.37</ele>
        <time>2020-06-22T07:08:29Z</time>
      </trkpt>
      <trkpt lat="42.52236" lon="2.22193">
        <ele>843.34</ele>
        <time>2020-06-22T07:08:42Z</time>
      </trkpt>
      <trkpt lat="42.52222" lon="2.22178">
        <ele>841.02</ele>
        <time>2020-06-22T07:08:54Z</time>
      </trkpt>
      <trkpt lat="42.52201" lon="2.22176">
        <ele>840.92</ele>
        <time>2020-06-22T07:09:11Z</time>
      </trkpt>
      <trkpt lat="42.52184" lon="2.22176">
        <ele>840.82</ele>
        <time>2020-06-22T07:09:24Z</time>
      </trkpt>
      <trkpt lat="42.52179" lon="2.22175">
        <ele>840.8</ele>
        <time>2020-06-22T07:09:28Z</time>
      </trkpt>
      <trkpt lat="42.52174" lon="2.22177">
        <ele>840.76</ele>
        <time>2020-06-22T07:09:32Z</time>
      </trkpt>
      <trkpt lat="42.52165" lon="2.2218">
        <ele>840.72</ele>
        <time>2020-06-22T07:09:39Z</time>
      </trkpt>
      <trkpt lat="42.52156" lon="2.22187">
        <ele>840.57</ele>
        <time>2020-06-22T07:09:52Z</time>
      </trkpt>
      <trkpt lat="42.52144" lon="2.22196">
        <ele>840.41</ele>
        <time>2020-06-22T07:10:07Z</time>
      </trkpt>
      <trkpt lat="42.52129" lon="2.22198">
        <ele>840.27</ele>
        <time>2020-06-22T07:10:16Z</time>
      </trkpt>
      <trkpt lat="42.52116" lon="2.22198">
        <ele>840.06</ele>
        <time>2020-06-22T07:10:28Z</time>
      </trkpt>
      <trkpt lat="42.52108" lon="2.22193">
        <ele>839.94</ele>
        <time>2020-06-22T07:10:34Z</time>
      </trkpt>
      <trkpt lat="42.52097" lon="2.22192">
        <ele>839.79</ele>
        <time>2020-06-22T07:10:41Z</time>
      </trkpt>
      <trkpt lat="42.52092" lon="2.22185">
        <ele>839.59</ele>
        <time>2020-06-22T07:10:52Z</time>
      </trkpt>
      <trkpt lat="42.52085" lon="2.22183">
        <ele>841.9</ele>
        <time>2020-06-22T07:10:54Z</time>
      </trkpt>
      <trkpt lat="42.52083" lon="2.22183">
        <ele>842.45</ele>
        <time>2020-06-22T07:11:07Z</time>
      </trkpt>
      <trkpt lat="42.52082" lon="2.22182">
        <ele>842.41</ele>
        <time>2020-06-22T07:11:09Z</time>
      </trkpt>
      <trkpt lat="42.52076" lon="2.2218">
        <ele>842.29</ele>
        <time>2020-06-22T07:11:13Z</time>
      </trkpt>
      <trkpt lat="42.52072" lon="2.22178">
        <ele>842.94</ele>
        <time>2020-06-22T07:11:17Z</time>
      </trkpt>
      <trkpt lat="42.5206" lon="2.22175">
        <ele>843.47</ele>
        <time>2020-06-22T07:11:29Z</time>
      </trkpt>
      <trkpt lat="42.52046" lon="2.22171">
        <ele>843.26</ele>
        <time>2020-06-22T07:11:36Z</time>
      </trkpt>
      <trkpt lat="42.52043" lon="2.22172">
        <ele>843.25</ele>
        <time>2020-06-22T07:11:38Z</time>
      </trkpt>
      <trkpt lat="42.52038" lon="2.2217">
        <ele>843.02</ele>
        <time>2020-06-22T07:11:47Z</time>
      </trkpt>
      <trkpt lat="42.52034" lon="2.22167">
        <ele>842.99</ele>
        <time>2020-06-22T07:11:48Z</time>
      </trkpt>
      <trkpt lat="42.52031" lon="2.22168">
        <ele>843.78</ele>
        <time>2020-06-22T07:11:50Z</time>
      </trkpt>
      <trkpt lat="42.52027" lon="2.22165">
        <ele>843.65</ele>
        <time>2020-06-22T07:11:55Z</time>
      </trkpt>
      <trkpt lat="42.5202" lon="2.22166">
        <ele>843.57</ele>
        <time>2020-06-22T07:11:59Z</time>
      </trkpt>
      <trkpt lat="42.52013" lon="2.22167">
        <ele>844.23</ele>
        <time>2020-06-22T07:12:07Z</time>
      </trkpt>
      <trkpt lat="42.52007" lon="2.22167">
        <ele>844.14</ele>
        <time>2020-06-22T07:12:11Z</time>
      </trkpt>
      <trkpt lat="42.52004" lon="2.22167">
        <ele>844.04</ele>
        <time>2020-06-22T07:12:14Z</time>
      </trkpt>
      <trkpt lat="42.52003" lon="2.22167">
        <ele>844.71</ele>
        <time>2020-06-22T07:12:18Z</time>
      </trkpt>
      <trkpt lat="42.51998" lon="2.22164">
        <ele>844.64</ele>
        <time>2020-06-22T07:12:21Z</time>
      </trkpt>
      <trkpt lat="42.51995" lon="2.22164">
        <ele>844.53</ele>
        <time>2020-06-22T07:12:25Z</time>
      </trkpt>
      <trkpt lat="42.51991" lon="2.22166">
        <ele>845.46</ele>
        <time>2020-06-22T07:12:30Z</time>
      </trkpt>
      <trkpt lat="42.51987" lon="2.22166">
        <ele>845.3</ele>
        <time>2020-06-22T07:12:37Z</time>
      </trkpt>
      <trkpt lat="42.51981" lon="2.22167">
        <ele>846.2</ele>
        <time>2020-06-22T07:12:40Z</time>
      </trkpt>
      <trkpt lat="42.51976" lon="2.22169">
        <ele>846.16</ele>
        <time>2020-06-22T07:12:42Z</time>
      </trkpt>
      <trkpt lat="42.51969" lon="2.22169">
        <ele>846.08</ele>
        <time>2020-06-22T07:12:45Z</time>
      </trkpt>
      <trkpt lat="42.51962" lon="2.22171">
        <ele>846.59</ele>
        <time>2020-06-22T07:12:56Z</time>
      </trkpt>
      <trkpt lat="42.51955" lon="2.22175">
        <ele>847.22</ele>
        <time>2020-06-22T07:12:59Z</time>
      </trkpt>
      <trkpt lat="42.5195" lon="2.22176">
        <ele>847.16</ele>
        <time>2020-06-22T07:13:04Z</time>
      </trkpt>
      <trkpt lat="42.51946" lon="2.22178">
        <ele>848.81</ele>
        <time>2020-06-22T07:13:14Z</time>
      </trkpt>
      <trkpt lat="42.51942" lon="2.22181">
        <ele>848.79</ele>
        <time>2020-06-22T07:13:17Z</time>
      </trkpt>
      <trkpt lat="42.51938" lon="2.22182">
        <ele>849.39</ele>
        <time>2020-06-22T07:13:22Z</time>
      </trkpt>
      <trkpt lat="42.51934" lon="2.22185">
        <ele>849.25</ele>
        <time>2020-06-22T07:13:29Z</time>
      </trkpt>
      <trkpt lat="42.51931" lon="2.22185">
        <ele>849.2</ele>
        <time>2020-06-22T07:13:31Z</time>
      </trkpt>
      <trkpt lat="42.51924" lon="2.22189">
        <ele>849.13</ele>
        <time>2020-06-22T07:13:34Z</time>
      </trkpt>
      <trkpt lat="42.51919" lon="2.2219">
        <ele>851.45</ele>
        <time>2020-06-22T07:13:47Z</time>
      </trkpt>
      <trkpt lat="42.51917" lon="2.22191">
        <ele>851.35</ele>
        <time>2020-06-22T07:13:55Z</time>
      </trkpt>
      <trkpt lat="42.5191" lon="2.22196">
        <ele>853.38</ele>
        <time>2020-06-22T07:14:15Z</time>
      </trkpt>
      <trkpt lat="42.51904" lon="2.22199">
        <ele>854.79</ele>
        <time>2020-06-22T07:14:28Z</time>
      </trkpt>
      <trkpt lat="42.51888" lon="2.22226">
        <ele>856.16</ele>
        <time>2020-06-22T07:14:44Z</time>
      </trkpt>
      <trkpt lat="42.51885" lon="2.22229">
        <ele>855.98</ele>
        <time>2020-06-22T07:14:52Z</time>
      </trkpt>
      <trkpt lat="42.51881" lon="2.22241">
        <ele>856.7</ele>
        <time>2020-06-22T07:15:05Z</time>
      </trkpt>
      <trkpt lat="42.51878" lon="2.22247">
        <ele>856.67</ele>
        <time>2020-06-22T07:15:08Z</time>
      </trkpt>
      <trkpt lat="42.51875" lon="2.22251">
        <ele>857.6</ele>
        <time>2020-06-22T07:15:11Z</time>
      </trkpt>
      <trkpt lat="42.51871" lon="2.22257">
        <ele>857.56</ele>
        <time>2020-06-22T07:15:17Z</time>
      </trkpt>
      <trkpt lat="42.51863" lon="2.2227">
        <ele>859.07</ele>
        <time>2020-06-22T07:15:32Z</time>
      </trkpt>
      <trkpt lat="42.51851" lon="2.22284">
        <ele>859.88</ele>
        <time>2020-06-22T07:15:50Z</time>
      </trkpt>
      <trkpt lat="42.51845" lon="2.22292">
        <ele>862.44</ele>
        <time>2020-06-22T07:16:04Z</time>
      </trkpt>
      <trkpt lat="42.51835" lon="2.22311">
        <ele>863.43</ele>
        <time>2020-06-22T07:16:21Z</time>
      </trkpt>
      <trkpt lat="42.51819" lon="2.22336">
        <ele>865.35</ele>
        <time>2020-06-22T07:16:34Z</time>
      </trkpt>
      <trkpt lat="42.51803" lon="2.22352">
        <ele>867.04</ele>
        <time>2020-06-22T07:16:47Z</time>
      </trkpt>
      <trkpt lat="42.51797" lon="2.2235">
        <ele>867.98</ele>
        <time>2020-06-22T07:17:04Z</time>
      </trkpt>
      <trkpt lat="42.51784" lon="2.22348">
        <ele>869.67</ele>
        <time>2020-06-22T07:17:11Z</time>
      </trkpt>
      <trkpt lat="42.5178" lon="2.22338">
        <ele>869.71</ele>
        <time>2020-06-22T07:17:18Z</time>
      </trkpt>
      <trkpt lat="42.51788" lon="2.22322">
        <ele>871.6</ele>
        <time>2020-06-22T07:17:34Z</time>
      </trkpt>
      <trkpt lat="42.51805" lon="2.22323">
        <ele>874.27</ele>
        <time>2020-06-22T07:17:48Z</time>
      </trkpt>
      <trkpt lat="42.5182" lon="2.22316">
        <ele>877.81</ele>
        <time>2020-06-22T07:18:03Z</time>
      </trkpt>
      <trkpt lat="42.51822" lon="2.22311">
        <ele>877.83</ele>
        <time>2020-06-22T07:18:04Z</time>
      </trkpt>
      <trkpt lat="42.51821" lon="2.22306">
        <ele>881.16</ele>
        <time>2020-06-22T07:18:21Z</time>
      </trkpt>
      <trkpt lat="42.5181" lon="2.22299">
        <ele>881.16</ele>
        <time>2020-06-22T07:18:22Z</time>
      </trkpt>
      <trkpt lat="42.51807" lon="2.22294">
        <ele>883.74</ele>
        <time>2020-06-22T07:18:40Z</time>
      </trkpt>
      <trkpt lat="42.51814" lon="2.22288">
        <ele>887.18</ele>
        <time>2020-06-22T07:18:57Z</time>
      </trkpt>
      <trkpt lat="42.51811" lon="2.22284">
        <ele>889.71</ele>
        <time>2020-06-22T07:19:18Z</time>
      </trkpt>
      <trkpt lat="42.51808" lon="2.22277">
        <ele>892.25</ele>
        <time>2020-06-22T07:19:35Z</time>
      </trkpt>
      <trkpt lat="42.5181" lon="2.22271">
        <ele>893.1</ele>
        <time>2020-06-22T07:19:39Z</time>
      </trkpt>
      <trkpt lat="42.51812" lon="2.22261">
        <ele>895.62</ele>
        <time>2020-06-22T07:20:00Z</time>
      </trkpt>
      <trkpt lat="42.51812" lon="2.22246">
        <ele>898.38</ele>
        <time>2020-06-22T07:20:17Z</time>
      </trkpt>
      <trkpt lat="42.51815" lon="2.22235">
        <ele>901.08</ele>
        <time>2020-06-22T07:20:33Z</time>
      </trkpt>
      <trkpt lat="42.51816" lon="2.22222">
        <ele>903.64</ele>
        <time>2020-06-22T07:20:53Z</time>
      </trkpt>
      <trkpt lat="42.51813" lon="2.22209">
        <ele>906.01</ele>
        <time>2020-06-22T07:21:11Z</time>
      </trkpt>
      <trkpt lat="42.51804" lon="2.22217">
        <ele>908.42</ele>
        <time>2020-06-22T07:21:26Z</time>
      </trkpt>
      <trkpt lat="42.518" lon="2.22227">
        <ele>910</ele>
        <time>2020-06-22T07:21:44Z</time>
      </trkpt>
      <trkpt lat="42.51788" lon="2.2224">
        <ele>911.69</ele>
        <time>2020-06-22T07:22:03Z</time>
      </trkpt>
      <trkpt lat="42.51777" lon="2.22247">
        <ele>914.11</ele>
        <time>2020-06-22T07:22:21Z</time>
      </trkpt>
      <trkpt lat="42.5177" lon="2.2225">
        <ele>915.67</ele>
        <time>2020-06-22T07:22:37Z</time>
      </trkpt>
      <trkpt lat="42.51777" lon="2.22239">
        <ele>918.23</ele>
        <time>2020-06-22T07:22:55Z</time>
      </trkpt>
      <trkpt lat="42.51787" lon="2.22225">
        <ele>920.82</ele>
        <time>2020-06-22T07:23:16Z</time>
      </trkpt>
      <trkpt lat="42.51791" lon="2.22209">
        <ele>923.16</ele>
        <time>2020-06-22T07:23:33Z</time>
      </trkpt>
      <trkpt lat="42.51782" lon="2.22204">
        <ele>925.8</ele>
        <time>2020-06-22T07:23:48Z</time>
      </trkpt>
      <trkpt lat="42.51771" lon="2.22208">
        <ele>927.47</ele>
        <time>2020-06-22T07:24:05Z</time>
      </trkpt>
      <trkpt lat="42.51762" lon="2.22216">
        <ele>929.94</ele>
        <time>2020-06-22T07:24:22Z</time>
      </trkpt>
      <trkpt lat="42.51754" lon="2.22226">
        <ele>932.39</ele>
        <time>2020-06-22T07:24:41Z</time>
      </trkpt>
      <trkpt lat="42.51742" lon="2.22228">
        <ele>934.76</ele>
        <time>2020-06-22T07:24:59Z</time>
      </trkpt>
      <trkpt lat="42.51732" lon="2.22228">
        <ele>937.2</ele>
        <time>2020-06-22T07:25:17Z</time>
      </trkpt>
      <trkpt lat="42.51725" lon="2.22225">
        <ele>939.68</ele>
        <time>2020-06-22T07:25:33Z</time>
      </trkpt>
      <trkpt lat="42.5172" lon="2.22219">
        <ele>942.13</ele>
        <time>2020-06-22T07:25:50Z</time>
      </trkpt>
      <trkpt lat="42.51711" lon="2.22215">
        <ele>945.25</ele>
        <time>2020-06-22T07:26:12Z</time>
      </trkpt>
      <trkpt lat="42.51702" lon="2.22216">
        <ele>947.77</ele>
        <time>2020-06-22T07:26:28Z</time>
      </trkpt>
      <trkpt lat="42.51694" lon="2.22215">
        <ele>950.24</ele>
        <time>2020-06-22T07:26:46Z</time>
      </trkpt>
      <trkpt lat="42.51689" lon="2.2221">
        <ele>952.72</ele>
        <time>2020-06-22T07:27:05Z</time>
      </trkpt>
      <trkpt lat="42.51696" lon="2.22205">
        <ele>955.76</ele>
        <time>2020-06-22T07:27:23Z</time>
      </trkpt>
      <trkpt lat="42.51696" lon="2.22205">
        <ele>955.75</ele>
        <time>2020-06-22T07:27:24Z</time>
      </trkpt>
      <trkpt lat="42.51687" lon="2.22204">
        <ele>957.98</ele>
        <time>2020-06-22T07:27:48Z</time>
      </trkpt>
      <trkpt lat="42.51678" lon="2.22207">
        <ele>960.22</ele>
        <time>2020-06-22T07:28:05Z</time>
      </trkpt>
      <trkpt lat="42.5167" lon="2.22206">
        <ele>962.43</ele>
        <time>2020-06-22T07:28:24Z</time>
      </trkpt>
      <trkpt lat="42.51663" lon="2.22208">
        <ele>963.75</ele>
        <time>2020-06-22T07:28:45Z</time>
      </trkpt>
      <trkpt lat="42.5166" lon="2.22204">
        <ele>963.43</ele>
        <time>2020-06-22T07:29:08Z</time>
      </trkpt>
      <trkpt lat="42.5165" lon="2.22207">
        <ele>964.96</ele>
        <time>2020-06-22T07:29:28Z</time>
      </trkpt>
      <trkpt lat="42.51638" lon="2.2221">
        <ele>967.32</ele>
        <time>2020-06-22T07:29:46Z</time>
      </trkpt>
      <trkpt lat="42.5163" lon="2.2222">
        <ele>970.07</ele>
        <time>2020-06-22T07:30:02Z</time>
      </trkpt>
      <trkpt lat="42.51624" lon="2.22217">
        <ele>972.51</ele>
        <time>2020-06-22T07:30:20Z</time>
      </trkpt>
      <trkpt lat="42.51621" lon="2.22204">
        <ele>974.65</ele>
        <time>2020-06-22T07:30:42Z</time>
      </trkpt>
      <trkpt lat="42.51617" lon="2.22199">
        <ele>976.92</ele>
        <time>2020-06-22T07:31:04Z</time>
      </trkpt>
      <trkpt lat="42.51618" lon="2.22201">
        <ele>976.68</ele>
        <time>2020-06-22T07:31:26Z</time>
      </trkpt>
      <trkpt lat="42.51616" lon="2.22195">
        <ele>977.31</ele>
        <time>2020-06-22T07:31:40Z</time>
      </trkpt>
      <trkpt lat="42.51605" lon="2.22195">
        <ele>977.19</ele>
        <time>2020-06-22T07:31:53Z</time>
      </trkpt>
      <trkpt lat="42.51585" lon="2.2219">
        <ele>976.97</ele>
        <time>2020-06-22T07:32:15Z</time>
      </trkpt>
      <trkpt lat="42.51567" lon="2.22192">
        <ele>976.81</ele>
        <time>2020-06-22T07:32:30Z</time>
      </trkpt>
      <trkpt lat="42.5156" lon="2.22192">
        <ele>976.77</ele>
        <time>2020-06-22T07:32:35Z</time>
      </trkpt>
      <trkpt lat="42.5155" lon="2.22192">
        <ele>976.69</ele>
        <time>2020-06-22T07:32:44Z</time>
      </trkpt>
      <trkpt lat="42.51546" lon="2.22193">
        <ele>976.61</ele>
        <time>2020-06-22T07:32:55Z</time>
      </trkpt>
      <trkpt lat="42.51535" lon="2.22196">
        <ele>976.56</ele>
        <time>2020-06-22T07:33:05Z</time>
      </trkpt>
      <trkpt lat="42.51526" lon="2.22198">
        <ele>976.53</ele>
        <time>2020-06-22T07:33:16Z</time>
      </trkpt>
      <trkpt lat="42.51519" lon="2.22195">
        <ele>976.53</ele>
        <time>2020-06-22T07:33:24Z</time>
      </trkpt>
      <trkpt lat="42.51515" lon="2.22192">
        <ele>977.42</ele>
        <time>2020-06-22T07:33:28Z</time>
      </trkpt>
      <trkpt lat="42.51498" lon="2.2219">
        <ele>977.45</ele>
        <time>2020-06-22T07:33:47Z</time>
      </trkpt>
      <trkpt lat="42.51478" lon="2.22193">
        <ele>977.56</ele>
        <time>2020-06-22T07:34:05Z</time>
      </trkpt>
      <trkpt lat="42.51471" lon="2.22193">
        <ele>977.61</ele>
        <time>2020-06-22T07:34:11Z</time>
      </trkpt>
      <trkpt lat="42.5146" lon="2.22196">
        <ele>978.49</ele>
        <time>2020-06-22T07:34:26Z</time>
      </trkpt>
      <trkpt lat="42.51454" lon="2.22197">
        <ele>978.62</ele>
        <time>2020-06-22T07:34:46Z</time>
      </trkpt>
      <trkpt lat="42.51436" lon="2.22197">
        <ele>978.74</ele>
        <time>2020-06-22T07:35:04Z</time>
      </trkpt>
      <trkpt lat="42.51417" lon="2.22194">
        <ele>979.58</ele>
        <time>2020-06-22T07:35:21Z</time>
      </trkpt>
      <trkpt lat="42.514" lon="2.22195">
        <ele>979.63</ele>
        <time>2020-06-22T07:35:39Z</time>
      </trkpt>
      <trkpt lat="42.51394" lon="2.22206">
        <ele>979.65</ele>
        <time>2020-06-22T07:35:46Z</time>
      </trkpt>
      <trkpt lat="42.51387" lon="2.22221">
        <ele>979.68</ele>
        <time>2020-06-22T07:35:58Z</time>
      </trkpt>
      <trkpt lat="42.51379" lon="2.22238">
        <ele>979.7</ele>
        <time>2020-06-22T07:36:15Z</time>
      </trkpt>
      <trkpt lat="42.51377" lon="2.22241">
        <ele>979.7</ele>
        <time>2020-06-22T07:36:17Z</time>
      </trkpt>
      <trkpt lat="42.51367" lon="2.22272">
        <ele>979.73</ele>
        <time>2020-06-22T07:36:33Z</time>
      </trkpt>
      <trkpt lat="42.51362" lon="2.22288">
        <ele>979.74</ele>
        <time>2020-06-22T07:36:44Z</time>
      </trkpt>
      <trkpt lat="42.51356" lon="2.22313">
        <ele>979.77</ele>
        <time>2020-06-22T07:37:02Z</time>
      </trkpt>
      <trkpt lat="42.51352" lon="2.22337">
        <ele>979.76</ele>
        <time>2020-06-22T07:37:19Z</time>
      </trkpt>
      <trkpt lat="42.51349" lon="2.22342">
        <ele>979.76</ele>
        <time>2020-06-22T07:37:23Z</time>
      </trkpt>
      <trkpt lat="42.51346" lon="2.22353">
        <ele>979.76</ele>
        <time>2020-06-22T07:37:32Z</time>
      </trkpt>
      <trkpt lat="42.51345" lon="2.22356">
        <ele>979.75</ele>
        <time>2020-06-22T07:37:34Z</time>
      </trkpt>
      <trkpt lat="42.51335" lon="2.22366">
        <ele>979.74</ele>
        <time>2020-06-22T07:37:44Z</time>
      </trkpt>
      <trkpt lat="42.5133" lon="2.22381">
        <ele>979.73</ele>
        <time>2020-06-22T07:37:48Z</time>
      </trkpt>
      <trkpt lat="42.51326" lon="2.22381">
        <ele>979.73</ele>
        <time>2020-06-22T07:37:50Z</time>
      </trkpt>
      <trkpt lat="42.51316" lon="2.22387">
        <ele>979.69</ele>
        <time>2020-06-22T07:38:05Z</time>
      </trkpt>
      <trkpt lat="42.51315" lon="2.22388">
        <ele>979.69</ele>
        <time>2020-06-22T07:38:07Z</time>
      </trkpt>
      <trkpt lat="42.51313" lon="2.22386">
        <ele>979.66</ele>
        <time>2020-06-22T07:38:14Z</time>
      </trkpt>
      <trkpt lat="42.51311" lon="2.2239">
        <ele>979.62</ele>
        <time>2020-06-22T07:38:20Z</time>
      </trkpt>
      <trkpt lat="42.51309" lon="2.22394">
        <ele>979.6</ele>
        <time>2020-06-22T07:38:24Z</time>
      </trkpt>
      <trkpt lat="42.51307" lon="2.22388">
        <ele>979.5</ele>
        <time>2020-06-22T07:38:36Z</time>
      </trkpt>
      <trkpt lat="42.51304" lon="2.22396">
        <ele>979.5</ele>
        <time>2020-06-22T07:38:37Z</time>
      </trkpt>
      <trkpt lat="42.51301" lon="2.22391">
        <ele>979.36</ele>
        <time>2020-06-22T07:38:55Z</time>
      </trkpt>
      <trkpt lat="42.51304" lon="2.22389">
        <ele>979.25</ele>
        <time>2020-06-22T07:39:09Z</time>
      </trkpt>
      <trkpt lat="42.51309" lon="2.22392">
        <ele>979.21</ele>
        <time>2020-06-22T07:39:16Z</time>
      </trkpt>
      <trkpt lat="42.51308" lon="2.2239">
        <ele>979.19</ele>
        <time>2020-06-22T07:39:19Z</time>
      </trkpt>
      <trkpt lat="42.5131" lon="2.22391">
        <ele>979.24</ele>
        <time>2020-06-22T07:39:31Z</time>
      </trkpt>
      <trkpt lat="42.51313" lon="2.22394">
        <ele>979.26</ele>
        <time>2020-06-22T07:39:34Z</time>
      </trkpt>
      <trkpt lat="42.51312" lon="2.22393">
        <ele>979.27</ele>
        <time>2020-06-22T07:39:36Z</time>
      </trkpt>
      <trkpt lat="42.51309" lon="2.22392">
        <ele>979.3</ele>
        <time>2020-06-22T07:39:39Z</time>
      </trkpt>
      <trkpt lat="42.51309" lon="2.22384">
        <ele>979.54</ele>
        <time>2020-06-22T07:39:58Z</time>
      </trkpt>
      <trkpt lat="42.5131" lon="2.2239">
        <ele>979.8</ele>
        <time>2020-06-22T07:40:10Z</time>
      </trkpt>
      <trkpt lat="42.51309" lon="2.2239">
        <ele>980.07</ele>
        <time>2020-06-22T07:40:21Z</time>
      </trkpt>
      <trkpt lat="42.51311" lon="2.22389">
        <ele>980.56</ele>
        <time>2020-06-22T07:40:39Z</time>
      </trkpt>
      <trkpt lat="42.51313" lon="2.22391">
        <ele>981.16</ele>
        <time>2020-06-22T07:41:00Z</time>
      </trkpt>
      <trkpt lat="42.51309" lon="2.22392">
        <ele>981.36</ele>
        <time>2020-06-22T07:41:06Z</time>
      </trkpt>
      <trkpt lat="42.51309" lon="2.22392">
        <ele>981.42</ele>
        <time>2020-06-22T07:41:08Z</time>
      </trkpt>
      <trkpt lat="42.51308" lon="2.22387">
        <ele>981.56</ele>
        <time>2020-06-22T07:41:12Z</time>
      </trkpt>
      <trkpt lat="42.51309" lon="2.22384">
        <ele>981.7</ele>
        <time>2020-06-22T07:41:16Z</time>
      </trkpt>
      <trkpt lat="42.51308" lon="2.22387">
        <ele>981.87</ele>
        <time>2020-06-22T07:41:21Z</time>
      </trkpt>
      <trkpt lat="42.51307" lon="2.2239">
        <ele>982.19</ele>
        <time>2020-06-22T07:41:30Z</time>
      </trkpt>
      <trkpt lat="42.51306" lon="2.2239">
        <ele>982.4</ele>
        <time>2020-06-22T07:41:36Z</time>
      </trkpt>
      <trkpt lat="42.51301" lon="2.22392">
        <ele>982.51</ele>
        <time>2020-06-22T07:41:39Z</time>
      </trkpt>
      <trkpt lat="42.51296" lon="2.22393">
        <ele>982.85</ele>
        <time>2020-06-22T07:41:48Z</time>
      </trkpt>
      <trkpt lat="42.51273" lon="2.22399">
        <ele>982.96</ele>
        <time>2020-06-22T07:41:51Z</time>
      </trkpt>
      <trkpt lat="42.51264" lon="2.22398">
        <ele>983.04</ele>
        <time>2020-06-22T07:41:53Z</time>
      </trkpt>
      <trkpt lat="42.51257" lon="2.22404">
        <ele>983.21</ele>
        <time>2020-06-22T07:41:58Z</time>
      </trkpt>
      <trkpt lat="42.51238" lon="2.22389">
        <ele>983.84</ele>
        <time>2020-06-22T07:42:16Z</time>
      </trkpt>
      <trkpt lat="42.51231" lon="2.22385">
        <ele>984.52</ele>
        <time>2020-06-22T07:42:35Z</time>
      </trkpt>
      <trkpt lat="42.51221" lon="2.22387">
        <ele>984.82</ele>
        <time>2020-06-22T07:42:46Z</time>
      </trkpt>
      <trkpt lat="42.51211" lon="2.22396">
        <ele>985.25</ele>
        <time>2020-06-22T07:43:02Z</time>
      </trkpt>
      <trkpt lat="42.5121" lon="2.22392">
        <ele>985.38</ele>
        <time>2020-06-22T07:43:07Z</time>
      </trkpt>
      <trkpt lat="42.51211" lon="2.224">
        <ele>985.53</ele>
        <time>2020-06-22T07:43:13Z</time>
      </trkpt>
      <trkpt lat="42.512" lon="2.22396">
        <ele>986.02</ele>
        <time>2020-06-22T07:43:34Z</time>
      </trkpt>
      <trkpt lat="42.51198" lon="2.22394">
        <ele>986.06</ele>
        <time>2020-06-22T07:43:36Z</time>
      </trkpt>
      <trkpt lat="42.51195" lon="2.22395">
        <ele>986.15</ele>
        <time>2020-06-22T07:43:40Z</time>
      </trkpt>
      <trkpt lat="42.51192" lon="2.22396">
        <ele>986.19</ele>
        <time>2020-06-22T07:43:42Z</time>
      </trkpt>
      <trkpt lat="42.51183" lon="2.22397">
        <ele>986.52</ele>
        <time>2020-06-22T07:43:56Z</time>
      </trkpt>
      <trkpt lat="42.51177" lon="2.22392">
        <ele>986.89</ele>
        <time>2020-06-22T07:44:09Z</time>
      </trkpt>
      <trkpt lat="42.5117" lon="2.22388">
        <ele>987.1</ele>
        <time>2020-06-22T07:44:16Z</time>
      </trkpt>
      <trkpt lat="42.51167" lon="2.22384">
        <ele>987.41</ele>
        <time>2020-06-22T07:44:26Z</time>
      </trkpt>
      <trkpt lat="42.51164" lon="2.22386">
        <ele>987.62</ele>
        <time>2020-06-22T07:44:33Z</time>
      </trkpt>
      <trkpt lat="42.51161" lon="2.2238">
        <ele>987.67</ele>
        <time>2020-06-22T07:44:35Z</time>
      </trkpt>
      <trkpt lat="42.51155" lon="2.22379">
        <ele>988</ele>
        <time>2020-06-22T07:44:46Z</time>
      </trkpt>
      <trkpt lat="42.5115" lon="2.22375">
        <ele>988.18</ele>
        <time>2020-06-22T07:44:51Z</time>
      </trkpt>
      <trkpt lat="42.51152" lon="2.22379">
        <ele>988.27</ele>
        <time>2020-06-22T07:44:55Z</time>
      </trkpt>
      <trkpt lat="42.51153" lon="2.22374">
        <ele>988.4</ele>
        <time>2020-06-22T07:44:58Z</time>
      </trkpt>
      <trkpt lat="42.51142" lon="2.22374">
        <ele>988.75</ele>
        <time>2020-06-22T07:45:08Z</time>
      </trkpt>
      <trkpt lat="42.51136" lon="2.22376">
        <ele>988.83</ele>
        <time>2020-06-22T07:45:12Z</time>
      </trkpt>
      <trkpt lat="42.51135" lon="2.2237">
        <ele>989.23</ele>
        <time>2020-06-22T07:45:22Z</time>
      </trkpt>
      <trkpt lat="42.51128" lon="2.22377">
        <ele>989.27</ele>
        <time>2020-06-22T07:45:23Z</time>
      </trkpt>
      <trkpt lat="42.51119" lon="2.22378">
        <ele>989.58</ele>
        <time>2020-06-22T07:45:31Z</time>
      </trkpt>
      <trkpt lat="42.51114" lon="2.22378">
        <ele>990.45</ele>
        <time>2020-06-22T07:45:35Z</time>
      </trkpt>
      <trkpt lat="42.51109" lon="2.22374">
        <ele>990.57</ele>
        <time>2020-06-22T07:45:38Z</time>
      </trkpt>
      <trkpt lat="42.51106" lon="2.22375">
        <ele>990.87</ele>
        <time>2020-06-22T07:45:49Z</time>
      </trkpt>
      <trkpt lat="42.51103" lon="2.22368">
        <ele>990.95</ele>
        <time>2020-06-22T07:45:51Z</time>
      </trkpt>
      <trkpt lat="42.51098" lon="2.22369">
        <ele>991.03</ele>
        <time>2020-06-22T07:45:54Z</time>
      </trkpt>
      <trkpt lat="42.51094" lon="2.22366">
        <ele>991.22</ele>
        <time>2020-06-22T07:46:04Z</time>
      </trkpt>
      <trkpt lat="42.51089" lon="2.22364">
        <ele>991.45</ele>
        <time>2020-06-22T07:46:14Z</time>
      </trkpt>
      <trkpt lat="42.51092" lon="2.22361">
        <ele>991.47</ele>
        <time>2020-06-22T07:46:15Z</time>
      </trkpt>
      <trkpt lat="42.51089" lon="2.22364">
        <ele>991.53</ele>
        <time>2020-06-22T07:46:18Z</time>
      </trkpt>
      <trkpt lat="42.51089" lon="2.22358">
        <ele>991.63</ele>
        <time>2020-06-22T07:46:23Z</time>
      </trkpt>
      <trkpt lat="42.51088" lon="2.22354">
        <ele>991.66</ele>
        <time>2020-06-22T07:46:25Z</time>
      </trkpt>
      <trkpt lat="42.51084" lon="2.2235">
        <ele>991.7</ele>
        <time>2020-06-22T07:46:29Z</time>
      </trkpt>
      <trkpt lat="42.51077" lon="2.22353">
        <ele>991.72</ele>
        <time>2020-06-22T07:46:32Z</time>
      </trkpt>
      <trkpt lat="42.51068" lon="2.22351">
        <ele>991.9</ele>
        <time>2020-06-22T07:46:44Z</time>
      </trkpt>
      <trkpt lat="42.51067" lon="2.22354">
        <ele>992.01</ele>
        <time>2020-06-22T07:46:53Z</time>
      </trkpt>
      <trkpt lat="42.51066" lon="2.2236">
        <ele>992.05</ele>
        <time>2020-06-22T07:47:01Z</time>
      </trkpt>
      <trkpt lat="42.51064" lon="2.22369">
        <ele>992.09</ele>
        <time>2020-06-22T07:47:04Z</time>
      </trkpt>
      <trkpt lat="42.51061" lon="2.22369">
        <ele>992.13</ele>
        <time>2020-06-22T07:47:08Z</time>
      </trkpt>
      <trkpt lat="42.51059" lon="2.2237">
        <ele>992.15</ele>
        <time>2020-06-22T07:47:10Z</time>
      </trkpt>
      <trkpt lat="42.51058" lon="2.22367">
        <ele>992.19</ele>
        <time>2020-06-22T07:47:14Z</time>
      </trkpt>
      <trkpt lat="42.51054" lon="2.22368">
        <ele>992.2</ele>
        <time>2020-06-22T07:47:17Z</time>
      </trkpt>
      <trkpt lat="42.51047" lon="2.22366">
        <ele>992.21</ele>
        <time>2020-06-22T07:47:25Z</time>
      </trkpt>
      <trkpt lat="42.51045" lon="2.22365">
        <ele>992.21</ele>
        <time>2020-06-22T07:47:26Z</time>
      </trkpt>
      <trkpt lat="42.51043" lon="2.22364">
        <ele>992.21</ele>
        <time>2020-06-22T07:47:28Z</time>
      </trkpt>
      <trkpt lat="42.51046" lon="2.22364">
        <ele>992.22</ele>
        <time>2020-06-22T07:47:30Z</time>
      </trkpt>
      <trkpt lat="42.51048" lon="2.22395">
        <ele>992.26</ele>
        <time>2020-06-22T07:47:38Z</time>
      </trkpt>
      <trkpt lat="42.51042" lon="2.22404">
        <ele>992.34</ele>
        <time>2020-06-22T07:47:45Z</time>
      </trkpt>
      <trkpt lat="42.51035" lon="2.22409">
        <ele>992.53</ele>
        <time>2020-06-22T07:47:55Z</time>
      </trkpt>
      <trkpt lat="42.51034" lon="2.22409">
        <ele>992.83</ele>
        <time>2020-06-22T07:48:09Z</time>
      </trkpt>
      <trkpt lat="42.51042" lon="2.22404">
        <ele>994.14</ele>
        <time>2020-06-22T07:48:31Z</time>
      </trkpt>
      <trkpt lat="42.51041" lon="2.22405">
        <ele>994.67</ele>
        <time>2020-06-22T07:48:52Z</time>
      </trkpt>
      <trkpt lat="42.51031" lon="2.22408">
        <ele>995.29</ele>
        <time>2020-06-22T07:49:13Z</time>
      </trkpt>
      <trkpt lat="42.51032" lon="2.22405">
        <ele>995.93</ele>
        <time>2020-06-22T07:49:34Z</time>
      </trkpt>
      <trkpt lat="42.51029" lon="2.22404">
        <ele>996.31</ele>
        <time>2020-06-22T07:49:47Z</time>
      </trkpt>
      <trkpt lat="42.51031" lon="2.22405">
        <ele>996.88</ele>
        <time>2020-06-22T07:50:06Z</time>
      </trkpt>
      <trkpt lat="42.51026" lon="2.22395">
        <ele>997.48</ele>
        <time>2020-06-22T07:50:25Z</time>
      </trkpt>
      <trkpt lat="42.51022" lon="2.22397">
        <ele>998.4</ele>
        <time>2020-06-22T07:50:51Z</time>
      </trkpt>
      <trkpt lat="42.51023" lon="2.22408">
        <ele>998.58</ele>
        <time>2020-06-22T07:50:56Z</time>
      </trkpt>
      <trkpt lat="42.51017" lon="2.2243">
        <ele>999.38</ele>
        <time>2020-06-22T07:51:16Z</time>
      </trkpt>
      <trkpt lat="42.51" lon="2.22429">
        <ele>999.87</ele>
        <time>2020-06-22T07:51:28Z</time>
      </trkpt>
      <trkpt lat="42.50982" lon="2.22436">
        <ele>1001.91</ele>
        <time>2020-06-22T07:51:50Z</time>
      </trkpt>
      <trkpt lat="42.50975" lon="2.22443">
        <ele>1002.66</ele>
        <time>2020-06-22T07:52:03Z</time>
      </trkpt>
      <trkpt lat="42.50969" lon="2.22445">
        <ele>1003.62</ele>
        <time>2020-06-22T07:52:17Z</time>
      </trkpt>
      <trkpt lat="42.50967" lon="2.22443">
        <ele>1003.76</ele>
        <time>2020-06-22T07:52:19Z</time>
      </trkpt>
      <trkpt lat="42.50962" lon="2.22442">
        <ele>1004.56</ele>
        <time>2020-06-22T07:52:31Z</time>
      </trkpt>
      <trkpt lat="42.50954" lon="2.22443">
        <ele>1005.37</ele>
        <time>2020-06-22T07:52:42Z</time>
      </trkpt>
      <trkpt lat="42.50953" lon="2.22453">
        <ele>1005.55</ele>
        <time>2020-06-22T07:52:45Z</time>
      </trkpt>
      <trkpt lat="42.50955" lon="2.22449">
        <ele>1005.71</ele>
        <time>2020-06-22T07:52:47Z</time>
      </trkpt>
      <trkpt lat="42.50953" lon="2.22448">
        <ele>1005.87</ele>
        <time>2020-06-22T07:52:49Z</time>
      </trkpt>
      <trkpt lat="42.50946" lon="2.22441">
        <ele>1006.53</ele>
        <time>2020-06-22T07:52:58Z</time>
      </trkpt>
      <trkpt lat="42.50942" lon="2.22441">
        <ele>1006.67</ele>
        <time>2020-06-22T07:53:00Z</time>
      </trkpt>
      <trkpt lat="42.50936" lon="2.22442">
        <ele>1006.95</ele>
        <time>2020-06-22T07:53:04Z</time>
      </trkpt>
      <trkpt lat="42.50933" lon="2.22441">
        <ele>1007.23</ele>
        <time>2020-06-22T07:53:08Z</time>
      </trkpt>
      <trkpt lat="42.50932" lon="2.22452">
        <ele>1007.96</ele>
        <time>2020-06-22T07:53:18Z</time>
      </trkpt>
      <trkpt lat="42.50932" lon="2.22456">
        <ele>1008.17</ele>
        <time>2020-06-22T07:53:21Z</time>
      </trkpt>
      <trkpt lat="42.50932" lon="2.22465">
        <ele>1008.6</ele>
        <time>2020-06-22T07:53:28Z</time>
      </trkpt>
      <trkpt lat="42.50928" lon="2.22469">
        <ele>1008.85</ele>
        <time>2020-06-22T07:53:32Z</time>
      </trkpt>
      <trkpt lat="42.50929" lon="2.22483">
        <ele>1009.36</ele>
        <time>2020-06-22T07:53:41Z</time>
      </trkpt>
      <trkpt lat="42.5093" lon="2.22504">
        <ele>1010.48</ele>
        <time>2020-06-22T07:54:00Z</time>
      </trkpt>
      <trkpt lat="42.50927" lon="2.22516">
        <ele>1011.15</ele>
        <time>2020-06-22T07:54:13Z</time>
      </trkpt>
      <trkpt lat="42.50923" lon="2.22514">
        <ele>1011.8</ele>
        <time>2020-06-22T07:54:26Z</time>
      </trkpt>
      <trkpt lat="42.50921" lon="2.22528">
        <ele>1010.26</ele>
        <time>2020-06-22T07:54:41Z</time>
      </trkpt>
      <trkpt lat="42.50904" lon="2.22532">
        <ele>1010.94</ele>
        <time>2020-06-22T07:54:55Z</time>
      </trkpt>
      <trkpt lat="42.50894" lon="2.22536">
        <ele>1011.57</ele>
        <time>2020-06-22T07:55:13Z</time>
      </trkpt>
      <trkpt lat="42.50883" lon="2.2255">
        <ele>1012.1</ele>
        <time>2020-06-22T07:55:30Z</time>
      </trkpt>
      <trkpt lat="42.5088" lon="2.22556">
        <ele>1014.59</ele>
        <time>2020-06-22T07:55:37Z</time>
      </trkpt>
      <trkpt lat="42.50874" lon="2.22562">
        <ele>1014.77</ele>
        <time>2020-06-22T07:55:47Z</time>
      </trkpt>
      <trkpt lat="42.50865" lon="2.22578">
        <ele>1015.03</ele>
        <time>2020-06-22T07:56:06Z</time>
      </trkpt>
      <trkpt lat="42.50854" lon="2.22577">
        <ele>1015.21</ele>
        <time>2020-06-22T07:56:25Z</time>
      </trkpt>
      <trkpt lat="42.50853" lon="2.22576">
        <ele>1015.21</ele>
        <time>2020-06-22T07:56:26Z</time>
      </trkpt>
      <trkpt lat="42.50847" lon="2.22591">
        <ele>1015.37</ele>
        <time>2020-06-22T07:56:46Z</time>
      </trkpt>
      <trkpt lat="42.50841" lon="2.22607">
        <ele>1015.38</ele>
        <time>2020-06-22T07:57:08Z</time>
      </trkpt>
      <trkpt lat="42.50847" lon="2.2262">
        <ele>1015.39</ele>
        <time>2020-06-22T07:57:23Z</time>
      </trkpt>
      <trkpt lat="42.50848" lon="2.22632">
        <ele>1015.33</ele>
        <time>2020-06-22T07:57:35Z</time>
      </trkpt>
      <trkpt lat="42.5085" lon="2.22638">
        <ele>1015.28</ele>
        <time>2020-06-22T07:57:46Z</time>
      </trkpt>
      <trkpt lat="42.50858" lon="2.22642">
        <ele>1015.26</ele>
        <time>2020-06-22T07:57:52Z</time>
      </trkpt>
      <trkpt lat="42.50866" lon="2.2265">
        <ele>1015.2</ele>
        <time>2020-06-22T07:58:04Z</time>
      </trkpt>
      <trkpt lat="42.50874" lon="2.22667">
        <ele>1015.14</ele>
        <time>2020-06-22T07:58:17Z</time>
      </trkpt>
      <trkpt lat="42.50868" lon="2.22683">
        <ele>1015.09</ele>
        <time>2020-06-22T07:58:31Z</time>
      </trkpt>
      <trkpt lat="42.5087" lon="2.22681">
        <ele>1015.05</ele>
        <time>2020-06-22T07:58:47Z</time>
      </trkpt>
      <trkpt lat="42.50869" lon="2.22679">
        <ele>1012.52</ele>
        <time>2020-06-22T07:58:54Z</time>
      </trkpt>
      <trkpt lat="42.50863" lon="2.22678">
        <ele>1015.7</ele>
        <time>2020-06-22T07:59:05Z</time>
      </trkpt>
      <trkpt lat="42.50863" lon="2.22678">
        <ele>1015.73</ele>
        <time>2020-06-22T07:59:06Z</time>
      </trkpt>
      <trkpt lat="42.50862" lon="2.22676">
        <ele>1012.33</ele>
        <time>2020-06-22T07:59:13Z</time>
      </trkpt>
      <trkpt lat="42.50861" lon="2.22676">
        <ele>1012.33</ele>
        <time>2020-06-22T07:59:14Z</time>
      </trkpt>
      <trkpt lat="42.50862" lon="2.22677">
        <ele>1009.28</ele>
        <time>2020-06-22T07:59:19Z</time>
      </trkpt>
      <trkpt lat="42.50862" lon="2.22676">
        <ele>1012.97</ele>
        <time>2020-06-22T07:59:20Z</time>
      </trkpt>
      <trkpt lat="42.50861" lon="2.22677">
        <ele>1014.5</ele>
        <time>2020-06-22T07:59:23Z</time>
      </trkpt>
      <trkpt lat="42.50855" lon="2.22678">
        <ele>1006.55</ele>
        <time>2020-06-22T07:59:40Z</time>
      </trkpt>
      <trkpt lat="42.50855" lon="2.22678">
        <ele>1015.3</ele>
        <time>2020-06-22T07:59:41Z</time>
      </trkpt>
      <trkpt lat="42.50855" lon="2.22678">
        <ele>1016.17</ele>
        <time>2020-06-22T07:59:43Z</time>
      </trkpt>
      <trkpt lat="42.50855" lon="2.22679">
        <ele>1010.8</ele>
        <time>2020-06-22T07:59:44Z</time>
      </trkpt>
      <trkpt lat="42.50855" lon="2.22679">
        <ele>1014.36</ele>
        <time>2020-06-22T07:59:45Z</time>
      </trkpt>
      <trkpt lat="42.50856" lon="2.22678">
        <ele>1011.32</ele>
        <time>2020-06-22T07:59:47Z</time>
      </trkpt>
      <trkpt lat="42.50858" lon="2.22675">
        <ele>1011.76</ele>
        <time>2020-06-22T07:59:52Z</time>
      </trkpt>
      <trkpt lat="42.50859" lon="2.22674">
        <ele>1014.18</ele>
        <time>2020-06-22T07:59:55Z</time>
      </trkpt>
      <trkpt lat="42.50861" lon="2.22674">
        <ele>1014.08</ele>
        <time>2020-06-22T07:59:58Z</time>
      </trkpt>
      <trkpt lat="42.50857" lon="2.22684">
        <ele>1014.12</ele>
        <time>2020-06-22T08:00:26Z</time>
      </trkpt>
      <trkpt lat="42.50859" lon="2.22699">
        <ele>1014.14</ele>
        <time>2020-06-22T08:00:42Z</time>
      </trkpt>
      <trkpt lat="42.50859" lon="2.227">
        <ele>1014.13</ele>
        <time>2020-06-22T08:00:53Z</time>
      </trkpt>
      <trkpt lat="42.50858" lon="2.22705">
        <ele>1014.13</ele>
        <time>2020-06-22T08:00:56Z</time>
      </trkpt>
      <trkpt lat="42.50855" lon="2.22725">
        <ele>1014.95</ele>
        <time>2020-06-22T08:01:09Z</time>
      </trkpt>
      <trkpt lat="42.5085" lon="2.22741">
        <ele>1014.95</ele>
        <time>2020-06-22T08:01:23Z</time>
      </trkpt>
      <trkpt lat="42.50849" lon="2.22748">
        <ele>1014.97</ele>
        <time>2020-06-22T08:01:43Z</time>
      </trkpt>
      <trkpt lat="42.50847" lon="2.2275">
        <ele>1014.99</ele>
        <time>2020-06-22T08:02:07Z</time>
      </trkpt>
      <trkpt lat="42.50849" lon="2.22751">
        <ele>1015.03</ele>
        <time>2020-06-22T08:02:31Z</time>
      </trkpt>
      <trkpt lat="42.50851" lon="2.22755">
        <ele>1015.09</ele>
        <time>2020-06-22T08:02:55Z</time>
      </trkpt>
      <trkpt lat="42.50851" lon="2.22758">
        <ele>1018.11</ele>
        <time>2020-06-22T08:03:14Z</time>
      </trkpt>
      <trkpt lat="42.5085" lon="2.22765">
        <ele>1018.83</ele>
        <time>2020-06-22T08:03:30Z</time>
      </trkpt>
      <trkpt lat="42.50849" lon="2.22767">
        <ele>1018.82</ele>
        <time>2020-06-22T08:03:34Z</time>
      </trkpt>
      <trkpt lat="42.50849" lon="2.22775">
        <ele>1018.83</ele>
        <time>2020-06-22T08:03:54Z</time>
      </trkpt>
      <trkpt lat="42.50849" lon="2.22785">
        <ele>1018.82</ele>
        <time>2020-06-22T08:04:15Z</time>
      </trkpt>
      <trkpt lat="42.50848" lon="2.22797">
        <ele>1018.83</ele>
        <time>2020-06-22T08:04:34Z</time>
      </trkpt>
      <trkpt lat="42.50849" lon="2.22806">
        <ele>1019.63</ele>
        <time>2020-06-22T08:04:54Z</time>
      </trkpt>
      <trkpt lat="42.5085" lon="2.22809">
        <ele>1019.62</ele>
        <time>2020-06-22T08:05:07Z</time>
      </trkpt>
      <trkpt lat="42.50852" lon="2.22815">
        <ele>1019.63</ele>
        <time>2020-06-22T08:05:15Z</time>
      </trkpt>
      <trkpt lat="42.50861" lon="2.22822">
        <ele>1019.67</ele>
        <time>2020-06-22T08:05:34Z</time>
      </trkpt>
      <trkpt lat="42.50863" lon="2.22825">
        <ele>1019.71</ele>
        <time>2020-06-22T08:05:54Z</time>
      </trkpt>
      <trkpt lat="42.50858" lon="2.22831">
        <ele>1019.73</ele>
        <time>2020-06-22T08:06:12Z</time>
      </trkpt>
      <trkpt lat="42.5086" lon="2.22828">
        <ele>1019.72</ele>
        <time>2020-06-22T08:06:33Z</time>
      </trkpt>
      <trkpt lat="42.50858" lon="2.22836">
        <ele>1020.83</ele>
        <time>2020-06-22T08:06:59Z</time>
      </trkpt>
      <trkpt lat="42.50859" lon="2.2285">
        <ele>1022.62</ele>
        <time>2020-06-22T08:07:18Z</time>
      </trkpt>
      <trkpt lat="42.50858" lon="2.22851">
        <ele>1022.52</ele>
        <time>2020-06-22T08:07:36Z</time>
      </trkpt>
      <trkpt lat="42.50857" lon="2.22863">
        <ele>1022.52</ele>
        <time>2020-06-22T08:07:53Z</time>
      </trkpt>
      <trkpt lat="42.50858" lon="2.22867">
        <ele>1023.48</ele>
        <time>2020-06-22T08:08:10Z</time>
      </trkpt>
      <trkpt lat="42.50859" lon="2.22867">
        <ele>1023.45</ele>
        <time>2020-06-22T08:08:14Z</time>
      </trkpt>
      <trkpt lat="42.50861" lon="2.22865">
        <ele>1023.37</ele>
        <time>2020-06-22T08:08:40Z</time>
      </trkpt>
      <trkpt lat="42.50861" lon="2.22863">
        <ele>1023.3</ele>
        <time>2020-06-22T08:09:06Z</time>
      </trkpt>
      <trkpt lat="42.50859" lon="2.22857">
        <ele>1023.23</ele>
        <time>2020-06-22T08:09:44Z</time>
      </trkpt>
      <trkpt lat="42.50847" lon="2.2286">
        <ele>1023.22</ele>
        <time>2020-06-22T08:10:12Z</time>
      </trkpt>
      <trkpt lat="42.50855" lon="2.22857">
        <ele>1023.2</ele>
        <time>2020-06-22T08:10:37Z</time>
      </trkpt>
      <trkpt lat="42.50853" lon="2.22868">
        <ele>1024.1</ele>
        <time>2020-06-22T08:11:01Z</time>
      </trkpt>
      <trkpt lat="42.50851" lon="2.22886">
        <ele>1024.15</ele>
        <time>2020-06-22T08:11:21Z</time>
      </trkpt>
      <trkpt lat="42.50852" lon="2.2289">
        <ele>1024.1</ele>
        <time>2020-06-22T08:11:42Z</time>
      </trkpt>
      <trkpt lat="42.5085" lon="2.22886">
        <ele>1024.08</ele>
        <time>2020-06-22T08:12:10Z</time>
      </trkpt>
      <trkpt lat="42.5085" lon="2.22888">
        <ele>1024.07</ele>
        <time>2020-06-22T08:12:13Z</time>
      </trkpt>
      <trkpt lat="42.50851" lon="2.2289">
        <ele>1024.08</ele>
        <time>2020-06-22T08:12:15Z</time>
      </trkpt>
      <trkpt lat="42.5085" lon="2.22907">
        <ele>1025.76</ele>
        <time>2020-06-22T08:12:38Z</time>
      </trkpt>
      <trkpt lat="42.50851" lon="2.22907">
        <ele>1025.75</ele>
        <time>2020-06-22T08:12:43Z</time>
      </trkpt>
      <trkpt lat="42.50855" lon="2.22912">
        <ele>1025.74</ele>
        <time>2020-06-22T08:12:47Z</time>
      </trkpt>
      <trkpt lat="42.50857" lon="2.22916">
        <ele>1025.74</ele>
        <time>2020-06-22T08:13:02Z</time>
      </trkpt>
      <trkpt lat="42.50857" lon="2.22924">
        <ele>1025.73</ele>
        <time>2020-06-22T08:13:27Z</time>
      </trkpt>
      <trkpt lat="42.50858" lon="2.2292">
        <ele>1025.76</ele>
        <time>2020-06-22T08:13:50Z</time>
      </trkpt>
      <trkpt lat="42.50853" lon="2.22924">
        <ele>1027.42</ele>
        <time>2020-06-22T08:14:08Z</time>
      </trkpt>
      <trkpt lat="42.50853" lon="2.22924">
        <ele>1028.25</ele>
        <time>2020-06-22T08:14:09Z</time>
      </trkpt>
      <trkpt lat="42.50857" lon="2.22932">
        <ele>1030.2</ele>
        <time>2020-06-22T08:14:23Z</time>
      </trkpt>
      <trkpt lat="42.50854" lon="2.22932">
        <ele>1030.16</ele>
        <time>2020-06-22T08:14:27Z</time>
      </trkpt>
      <trkpt lat="42.50854" lon="2.22935">
        <ele>1030.12</ele>
        <time>2020-06-22T08:14:48Z</time>
      </trkpt>
      <trkpt lat="42.50855" lon="2.22933">
        <ele>1030.15</ele>
        <time>2020-06-22T08:15:15Z</time>
      </trkpt>
      <trkpt lat="42.50856" lon="2.2293">
        <ele>1030.16</ele>
        <time>2020-06-22T08:15:41Z</time>
      </trkpt>
      <trkpt lat="42.50842" lon="2.2293">
        <ele>1030.19</ele>
        <time>2020-06-22T08:16:03Z</time>
      </trkpt>
      <trkpt lat="42.50837" lon="2.22931">
        <ele>1030.2</ele>
        <time>2020-06-22T08:16:16Z</time>
      </trkpt>
      <trkpt lat="42.50839" lon="2.22937">
        <ele>1030.21</ele>
        <time>2020-06-22T08:16:20Z</time>
      </trkpt>
      <trkpt lat="42.50842" lon="2.22944">
        <ele>1030.23</ele>
        <time>2020-06-22T08:16:23Z</time>
      </trkpt>
      <trkpt lat="42.50842" lon="2.22949">
        <ele>1030.25</ele>
        <time>2020-06-22T08:16:27Z</time>
      </trkpt>
      <trkpt lat="42.50842" lon="2.22954">
        <ele>1030.27</ele>
        <time>2020-06-22T08:16:31Z</time>
      </trkpt>
      <trkpt lat="42.50842" lon="2.22958">
        <ele>1031.03</ele>
        <time>2020-06-22T08:16:35Z</time>
      </trkpt>
      <trkpt lat="42.50841" lon="2.22963">
        <ele>1032.05</ele>
        <time>2020-06-22T08:16:45Z</time>
      </trkpt>
      <trkpt lat="42.50841" lon="2.22968">
        <ele>1032.9</ele>
        <time>2020-06-22T08:16:53Z</time>
      </trkpt>
      <trkpt lat="42.5084" lon="2.22973">
        <ele>1033.66</ele>
        <time>2020-06-22T08:16:58Z</time>
      </trkpt>
      <trkpt lat="42.5084" lon="2.22977">
        <ele>1034.48</ele>
        <time>2020-06-22T08:17:00Z</time>
      </trkpt>
      <trkpt lat="42.5084" lon="2.22979">
        <ele>1034.46</ele>
        <time>2020-06-22T08:17:06Z</time>
      </trkpt>
      <trkpt lat="42.5084" lon="2.22982">
        <ele>1034.44</ele>
        <time>2020-06-22T08:17:10Z</time>
      </trkpt>
      <trkpt lat="42.50835" lon="2.22991">
        <ele>1034.42</ele>
        <time>2020-06-22T08:17:20Z</time>
      </trkpt>
      <trkpt lat="42.50834" lon="2.22994">
        <ele>1034.41</ele>
        <time>2020-06-22T08:17:22Z</time>
      </trkpt>
      <trkpt lat="42.50831" lon="2.22999">
        <ele>1034.42</ele>
        <time>2020-06-22T08:17:25Z</time>
      </trkpt>
      <trkpt lat="42.50828" lon="2.23001">
        <ele>1034.41</ele>
        <time>2020-06-22T08:17:28Z</time>
      </trkpt>
      <trkpt lat="42.50826" lon="2.23006">
        <ele>1034.42</ele>
        <time>2020-06-22T08:17:36Z</time>
      </trkpt>
      <trkpt lat="42.50823" lon="2.23012">
        <ele>1035.24</ele>
        <time>2020-06-22T08:17:48Z</time>
      </trkpt>
      <trkpt lat="42.50818" lon="2.23017">
        <ele>1035.22</ele>
        <time>2020-06-22T08:17:59Z</time>
      </trkpt>
      <trkpt lat="42.50816" lon="2.23018">
        <ele>1035.21</ele>
        <time>2020-06-22T08:18:03Z</time>
      </trkpt>
      <trkpt lat="42.50817" lon="2.23019">
        <ele>1035.2</ele>
        <time>2020-06-22T08:18:12Z</time>
      </trkpt>
      <trkpt lat="42.50817" lon="2.2302">
        <ele>1035.2</ele>
        <time>2020-06-22T08:18:14Z</time>
      </trkpt>
      <trkpt lat="42.50811" lon="2.23024">
        <ele>1035.22</ele>
        <time>2020-06-22T08:18:27Z</time>
      </trkpt>
      <trkpt lat="42.50815" lon="2.2302">
        <ele>1035.23</ele>
        <time>2020-06-22T08:18:31Z</time>
      </trkpt>
      <trkpt lat="42.5081" lon="2.23025">
        <ele>1036.04</ele>
        <time>2020-06-22T08:18:45Z</time>
      </trkpt>
      <trkpt lat="42.50807" lon="2.2303">
        <ele>1036.09</ele>
        <time>2020-06-22T08:18:56Z</time>
      </trkpt>
      <trkpt lat="42.50804" lon="2.23032">
        <ele>1036.19</ele>
        <time>2020-06-22T08:19:12Z</time>
      </trkpt>
      <trkpt lat="42.50802" lon="2.23034">
        <ele>1037.13</ele>
        <time>2020-06-22T08:19:14Z</time>
      </trkpt>
      <trkpt lat="42.50801" lon="2.23033">
        <ele>1037.14</ele>
        <time>2020-06-22T08:19:17Z</time>
      </trkpt>
      <trkpt lat="42.50803" lon="2.23033">
        <ele>1037.15</ele>
        <time>2020-06-22T08:19:19Z</time>
      </trkpt>
      <trkpt lat="42.50799" lon="2.23036">
        <ele>1037.19</ele>
        <time>2020-06-22T08:19:28Z</time>
      </trkpt>
      <trkpt lat="42.50797" lon="2.23037">
        <ele>1037.2</ele>
        <time>2020-06-22T08:19:30Z</time>
      </trkpt>
      <trkpt lat="42.50795" lon="2.23042">
        <ele>1038.19</ele>
        <time>2020-06-22T08:19:41Z</time>
      </trkpt>
      <trkpt lat="42.50793" lon="2.23044">
        <ele>1039.01</ele>
        <time>2020-06-22T08:19:52Z</time>
      </trkpt>
      <trkpt lat="42.50791" lon="2.23048">
        <ele>1039.02</ele>
        <time>2020-06-22T08:19:56Z</time>
      </trkpt>
      <trkpt lat="42.50788" lon="2.23051">
        <ele>1039.8</ele>
        <time>2020-06-22T08:20:01Z</time>
      </trkpt>
      <trkpt lat="42.50786" lon="2.23055">
        <ele>1039.87</ele>
        <time>2020-06-22T08:20:14Z</time>
      </trkpt>
      <trkpt lat="42.50782" lon="2.23059">
        <ele>1039.93</ele>
        <time>2020-06-22T08:20:22Z</time>
      </trkpt>
      <trkpt lat="42.50781" lon="2.23064">
        <ele>1039.97</ele>
        <time>2020-06-22T08:20:26Z</time>
      </trkpt>
      <trkpt lat="42.50779" lon="2.23067">
        <ele>1040.01</ele>
        <time>2020-06-22T08:20:31Z</time>
      </trkpt>
      <trkpt lat="42.50777" lon="2.23071">
        <ele>1040.84</ele>
        <time>2020-06-22T08:20:37Z</time>
      </trkpt>
      <trkpt lat="42.50773" lon="2.23074">
        <ele>1041.78</ele>
        <time>2020-06-22T08:20:42Z</time>
      </trkpt>
      <trkpt lat="42.50772" lon="2.23078">
        <ele>1041.81</ele>
        <time>2020-06-22T08:20:45Z</time>
      </trkpt>
      <trkpt lat="42.50768" lon="2.23081">
        <ele>1041.84</ele>
        <time>2020-06-22T08:20:47Z</time>
      </trkpt>
      <trkpt lat="42.50766" lon="2.23083">
        <ele>1041.86</ele>
        <time>2020-06-22T08:20:50Z</time>
      </trkpt>
      <trkpt lat="42.50765" lon="2.23085">
        <ele>1043.68</ele>
        <time>2020-06-22T08:21:03Z</time>
      </trkpt>
      <trkpt lat="42.50764" lon="2.23086">
        <ele>1043.74</ele>
        <time>2020-06-22T08:21:08Z</time>
      </trkpt>
      <trkpt lat="42.50762" lon="2.23087">
        <ele>1043.81</ele>
        <time>2020-06-22T08:21:16Z</time>
      </trkpt>
      <trkpt lat="42.50761" lon="2.2309">
        <ele>1043.84</ele>
        <time>2020-06-22T08:21:27Z</time>
      </trkpt>
      <trkpt lat="42.5076" lon="2.23091">
        <ele>1044.02</ele>
        <time>2020-06-22T08:21:33Z</time>
      </trkpt>
      <trkpt lat="42.50758" lon="2.23092">
        <ele>1044.18</ele>
        <time>2020-06-22T08:21:44Z</time>
      </trkpt>
      <trkpt lat="42.50757" lon="2.23095">
        <ele>1044.36</ele>
        <time>2020-06-22T08:21:56Z</time>
      </trkpt>
      <trkpt lat="42.50756" lon="2.23096">
        <ele>1044.6</ele>
        <time>2020-06-22T08:22:14Z</time>
      </trkpt>
      <trkpt lat="42.50753" lon="2.23097">
        <ele>1044.66</ele>
        <time>2020-06-22T08:22:18Z</time>
      </trkpt>
      <trkpt lat="42.5075" lon="2.23098">
        <ele>1044.86</ele>
        <time>2020-06-22T08:22:32Z</time>
      </trkpt>
      <trkpt lat="42.50748" lon="2.23097">
        <ele>1044.94</ele>
        <time>2020-06-22T08:22:37Z</time>
      </trkpt>
      <trkpt lat="42.50746" lon="2.23096">
        <ele>1044.98</ele>
        <time>2020-06-22T08:22:40Z</time>
      </trkpt>
      <trkpt lat="42.50744" lon="2.23096">
        <ele>1045.14</ele>
        <time>2020-06-22T08:22:52Z</time>
      </trkpt>
      <trkpt lat="42.50742" lon="2.23095">
        <ele>1045.19</ele>
        <time>2020-06-22T08:22:57Z</time>
      </trkpt>
      <trkpt lat="42.5074" lon="2.23096">
        <ele>1045.38</ele>
        <time>2020-06-22T08:23:18Z</time>
      </trkpt>
      <trkpt lat="42.50737" lon="2.23095">
        <ele>1046.17</ele>
        <time>2020-06-22T08:23:24Z</time>
      </trkpt>
      <trkpt lat="42.50736" lon="2.23098">
        <ele>1047.02</ele>
        <time>2020-06-22T08:23:33Z</time>
      </trkpt>
      <trkpt lat="42.50735" lon="2.231">
        <ele>1047.95</ele>
        <time>2020-06-22T08:23:45Z</time>
      </trkpt>
      <trkpt lat="42.50727" lon="2.2311">
        <ele>1047.97</ele>
        <time>2020-06-22T08:23:51Z</time>
      </trkpt>
      <trkpt lat="42.50726" lon="2.23112">
        <ele>1048.9</ele>
        <time>2020-06-22T08:23:56Z</time>
      </trkpt>
      <trkpt lat="42.50725" lon="2.23114">
        <ele>1048.9</ele>
        <time>2020-06-22T08:23:59Z</time>
      </trkpt>
      <trkpt lat="42.50723" lon="2.23118">
        <ele>1051.53</ele>
        <time>2020-06-22T08:24:13Z</time>
      </trkpt>
      <trkpt lat="42.50721" lon="2.2312">
        <ele>1052.35</ele>
        <time>2020-06-22T08:24:20Z</time>
      </trkpt>
      <trkpt lat="42.5072" lon="2.23121">
        <ele>1053.16</ele>
        <time>2020-06-22T08:24:27Z</time>
      </trkpt>
      <trkpt lat="42.50717" lon="2.23124">
        <ele>1055.08</ele>
        <time>2020-06-22T08:24:43Z</time>
      </trkpt>
      <trkpt lat="42.50715" lon="2.23125">
        <ele>1055.07</ele>
        <time>2020-06-22T08:24:45Z</time>
      </trkpt>
      <trkpt lat="42.50713" lon="2.23128">
        <ele>1055.07</ele>
        <time>2020-06-22T08:25:00Z</time>
      </trkpt>
      <trkpt lat="42.5071" lon="2.2313">
        <ele>1055.07</ele>
        <time>2020-06-22T08:25:05Z</time>
      </trkpt>
      <trkpt lat="42.50707" lon="2.23133">
        <ele>1055.89</ele>
        <time>2020-06-22T08:25:21Z</time>
      </trkpt>
      <trkpt lat="42.507" lon="2.23136">
        <ele>1056.69</ele>
        <time>2020-06-22T08:25:37Z</time>
      </trkpt>
      <trkpt lat="42.50696" lon="2.23139">
        <ele>1056.7</ele>
        <time>2020-06-22T08:25:38Z</time>
      </trkpt>
      <trkpt lat="42.50692" lon="2.23135">
        <ele>1056.71</ele>
        <time>2020-06-22T08:25:41Z</time>
      </trkpt>
      <trkpt lat="42.50693" lon="2.23137">
        <ele>1058.73</ele>
        <time>2020-06-22T08:25:53Z</time>
      </trkpt>
      <trkpt lat="42.50697" lon="2.23139">
        <ele>1058.78</ele>
        <time>2020-06-22T08:26:06Z</time>
      </trkpt>
      <trkpt lat="42.50697" lon="2.23135">
        <ele>1058.84</ele>
        <time>2020-06-22T08:26:19Z</time>
      </trkpt>
      <trkpt lat="42.50698" lon="2.23133">
        <ele>1058.9</ele>
        <time>2020-06-22T08:26:30Z</time>
      </trkpt>
      <trkpt lat="42.50705" lon="2.23136">
        <ele>1059</ele>
        <time>2020-06-22T08:26:43Z</time>
      </trkpt>
      <trkpt lat="42.507" lon="2.23132">
        <ele>1059.05</ele>
        <time>2020-06-22T08:26:50Z</time>
      </trkpt>
      <trkpt lat="42.50702" lon="2.23135">
        <ele>1059.28</ele>
        <time>2020-06-22T08:27:14Z</time>
      </trkpt>
      <trkpt lat="42.507" lon="2.23135">
        <ele>1059.55</ele>
        <time>2020-06-22T08:27:37Z</time>
      </trkpt>
      <trkpt lat="42.507" lon="2.23134">
        <ele>1059.57</ele>
        <time>2020-06-22T08:27:39Z</time>
      </trkpt>
      <trkpt lat="42.50698" lon="2.23135">
        <ele>1059.85</ele>
        <time>2020-06-22T08:28:01Z</time>
      </trkpt>
      <trkpt lat="42.507" lon="2.23137">
        <ele>1060.7</ele>
        <time>2020-06-22T08:28:09Z</time>
      </trkpt>
      <trkpt lat="42.507" lon="2.23135">
        <ele>1060.75</ele>
        <time>2020-06-22T08:28:13Z</time>
      </trkpt>
      <trkpt lat="42.50697" lon="2.23136">
        <ele>1060.9</ele>
        <time>2020-06-22T08:28:25Z</time>
      </trkpt>
      <trkpt lat="42.50699" lon="2.23136">
        <ele>1062.05</ele>
        <time>2020-06-22T08:28:48Z</time>
      </trkpt>
      <trkpt lat="42.50699" lon="2.23135">
        <ele>1062.11</ele>
        <time>2020-06-22T08:28:52Z</time>
      </trkpt>
      <trkpt lat="42.507" lon="2.23139">
        <ele>1062.42</ele>
        <time>2020-06-22T08:29:14Z</time>
      </trkpt>
      <trkpt lat="42.50698" lon="2.23135">
        <ele>1063.47</ele>
        <time>2020-06-22T08:29:26Z</time>
      </trkpt>
      <trkpt lat="42.50699" lon="2.23135">
        <ele>1063.5</ele>
        <time>2020-06-22T08:29:30Z</time>
      </trkpt>
      <trkpt lat="42.50698" lon="2.23134">
        <ele>1064.4</ele>
        <time>2020-06-22T08:29:39Z</time>
      </trkpt>
      <trkpt lat="42.50699" lon="2.23137">
        <ele>1064.48</ele>
        <time>2020-06-22T08:29:48Z</time>
      </trkpt>
      <trkpt lat="42.50697" lon="2.23132">
        <ele>1064.62</ele>
        <time>2020-06-22T08:29:58Z</time>
      </trkpt>
      <trkpt lat="42.50698" lon="2.23134">
        <ele>1064.64</ele>
        <time>2020-06-22T08:30:00Z</time>
      </trkpt>
      <trkpt lat="42.50699" lon="2.23135">
        <ele>1064.71</ele>
        <time>2020-06-22T08:30:03Z</time>
      </trkpt>
      <trkpt lat="42.50701" lon="2.23132">
        <ele>1064.78</ele>
        <time>2020-06-22T08:30:07Z</time>
      </trkpt>
      <trkpt lat="42.50699" lon="2.23134">
        <ele>1066.08</ele>
        <time>2020-06-22T08:30:24Z</time>
      </trkpt>
      <trkpt lat="42.507" lon="2.23134">
        <ele>1067.99</ele>
        <time>2020-06-22T08:30:36Z</time>
      </trkpt>
      <trkpt lat="42.50701" lon="2.23137">
        <ele>1070.64</ele>
        <time>2020-06-22T08:30:50Z</time>
      </trkpt>
      <trkpt lat="42.50698" lon="2.23136">
        <ele>1070.73</ele>
        <time>2020-06-22T08:31:00Z</time>
      </trkpt>
      <trkpt lat="42.50699" lon="2.2314">
        <ele>1070.97</ele>
        <time>2020-06-22T08:31:16Z</time>
      </trkpt>
      <trkpt lat="42.50697" lon="2.23137">
        <ele>1071.26</ele>
        <time>2020-06-22T08:31:31Z</time>
      </trkpt>
      <trkpt lat="42.50696" lon="2.23136">
        <ele>1071.34</ele>
        <time>2020-06-22T08:31:35Z</time>
      </trkpt>
      <trkpt lat="42.50697" lon="2.23139">
        <ele>1071.43</ele>
        <time>2020-06-22T08:31:40Z</time>
      </trkpt>
      <trkpt lat="42.50699" lon="2.23138">
        <ele>1071.75</ele>
        <time>2020-06-22T08:31:57Z</time>
      </trkpt>
      <trkpt lat="42.507" lon="2.23134">
        <ele>1072.72</ele>
        <time>2020-06-22T08:32:10Z</time>
      </trkpt>
      <trkpt lat="42.50702" lon="2.23132">
        <ele>1073.1</ele>
        <time>2020-06-22T08:32:28Z</time>
      </trkpt>
      <trkpt lat="42.50701" lon="2.23136">
        <ele>1073.52</ele>
        <time>2020-06-22T08:32:49Z</time>
      </trkpt>
      <trkpt lat="42.50701" lon="2.23138">
        <ele>1073.85</ele>
        <time>2020-06-22T08:33:03Z</time>
      </trkpt>
      <trkpt lat="42.50699" lon="2.23136">
        <ele>1074.2</ele>
        <time>2020-06-22T08:33:19Z</time>
      </trkpt>
      <trkpt lat="42.50699" lon="2.23141">
        <ele>1074.28</ele>
        <time>2020-06-22T08:33:22Z</time>
      </trkpt>
      <trkpt lat="42.50699" lon="2.23139">
        <ele>1074.34</ele>
        <time>2020-06-22T08:33:25Z</time>
      </trkpt>
      <trkpt lat="42.50698" lon="2.23139">
        <ele>1074.52</ele>
        <time>2020-06-22T08:33:32Z</time>
      </trkpt>
      <trkpt lat="42.50695" lon="2.23138">
        <ele>1074.76</ele>
        <time>2020-06-22T08:33:45Z</time>
      </trkpt>
      <trkpt lat="42.50698" lon="2.23139">
        <ele>1075.05</ele>
        <time>2020-06-22T08:33:58Z</time>
      </trkpt>
      <trkpt lat="42.50699" lon="2.23138">
        <ele>1072.93</ele>
        <time>2020-06-22T08:34:10Z</time>
      </trkpt>
      <trkpt lat="42.50698" lon="2.23137">
        <ele>1072.34</ele>
        <time>2020-06-22T08:34:22Z</time>
      </trkpt>
      <trkpt lat="42.50697" lon="2.23138">
        <ele>1071.47</ele>
        <time>2020-06-22T08:34:24Z</time>
      </trkpt>
      <trkpt lat="42.507" lon="2.2314">
        <ele>1071.74</ele>
        <time>2020-06-22T08:34:30Z</time>
      </trkpt>
      <trkpt lat="42.50695" lon="2.23136">
        <ele>1071.73</ele>
        <time>2020-06-22T08:34:33Z</time>
      </trkpt>
      <trkpt lat="42.507" lon="2.23138">
        <ele>1071.34</ele>
        <time>2020-06-22T08:34:46Z</time>
      </trkpt>
      <trkpt lat="42.50698" lon="2.23137">
        <ele>1069.87</ele>
        <time>2020-06-22T08:35:00Z</time>
      </trkpt>
      <trkpt lat="42.50698" lon="2.23138">
        <ele>1069.38</ele>
        <time>2020-06-22T08:35:13Z</time>
      </trkpt>
      <trkpt lat="42.50697" lon="2.23137">
        <ele>1067.71</ele>
        <time>2020-06-22T08:35:19Z</time>
      </trkpt>
      <trkpt lat="42.50702" lon="2.23134">
        <ele>1066.3</ele>
        <time>2020-06-22T08:35:33Z</time>
      </trkpt>
      <trkpt lat="42.50707" lon="2.23132">
        <ele>1065.76</ele>
        <time>2020-06-22T08:35:45Z</time>
      </trkpt>
      <trkpt lat="42.50708" lon="2.23133">
        <ele>1065.98</ele>
        <time>2020-06-22T08:35:52Z</time>
      </trkpt>
      <trkpt lat="42.50711" lon="2.23132">
        <ele>1066.09</ele>
        <time>2020-06-22T08:35:55Z</time>
      </trkpt>
      <trkpt lat="42.50709" lon="2.23132">
        <ele>1066.2</ele>
        <time>2020-06-22T08:35:59Z</time>
      </trkpt>
      <trkpt lat="42.50709" lon="2.23132">
        <ele>1066.27</ele>
        <time>2020-06-22T08:36:02Z</time>
      </trkpt>
      <trkpt lat="42.50702" lon="2.23137">
        <ele>1066.36</ele>
        <time>2020-06-22T08:36:06Z</time>
      </trkpt>
      <trkpt lat="42.50702" lon="2.23135">
        <ele>1066.44</ele>
        <time>2020-06-22T08:36:09Z</time>
      </trkpt>
      <trkpt lat="42.50714" lon="2.23126">
        <ele>1066.75</ele>
        <time>2020-06-22T08:36:24Z</time>
      </trkpt>
      <trkpt lat="42.50717" lon="2.23121">
        <ele>1066.79</ele>
        <time>2020-06-22T08:36:26Z</time>
      </trkpt>
      <trkpt lat="42.50721" lon="2.23121">
        <ele>1066.93</ele>
        <time>2020-06-22T08:36:33Z</time>
      </trkpt>
      <trkpt lat="42.5072" lon="2.23121">
        <ele>1067.01</ele>
        <time>2020-06-22T08:36:36Z</time>
      </trkpt>
      <trkpt lat="42.50722" lon="2.2312">
        <ele>1067.13</ele>
        <time>2020-06-22T08:36:41Z</time>
      </trkpt>
      <trkpt lat="42.50723" lon="2.2312">
        <ele>1067.35</ele>
        <time>2020-06-22T08:36:56Z</time>
      </trkpt>
      <trkpt lat="42.50726" lon="2.23118">
        <ele>1067.41</ele>
        <time>2020-06-22T08:36:59Z</time>
      </trkpt>
      <trkpt lat="42.50723" lon="2.23115">
        <ele>1067.5</ele>
        <time>2020-06-22T08:37:04Z</time>
      </trkpt>
      <trkpt lat="42.5072" lon="2.2312">
        <ele>1067.6</ele>
        <time>2020-06-22T08:37:11Z</time>
      </trkpt>
      <trkpt lat="42.50722" lon="2.2312">
        <ele>1067.62</ele>
        <time>2020-06-22T08:37:12Z</time>
      </trkpt>
      <trkpt lat="42.50721" lon="2.23117">
        <ele>1067.75</ele>
        <time>2020-06-22T08:37:27Z</time>
      </trkpt>
      <trkpt lat="42.50725" lon="2.23116">
        <ele>1067.83</ele>
        <time>2020-06-22T08:37:34Z</time>
      </trkpt>
      <trkpt lat="42.50694" lon="2.23138">
        <ele>1067.91</ele>
        <time>2020-06-22T08:37:40Z</time>
      </trkpt>
      <trkpt lat="42.50697" lon="2.23139">
        <ele>1067.91</ele>
        <time>2020-06-22T08:38:09Z</time>
      </trkpt>
      <trkpt lat="42.50698" lon="2.23139">
        <ele>1064.66</ele>
        <time>2020-06-22T08:38:43Z</time>
      </trkpt>
      <trkpt lat="42.50702" lon="2.23137">
        <ele>1067.11</ele>
        <time>2020-06-22T08:40:42Z</time>
      </trkpt>
      <trkpt lat="42.50703" lon="2.23136">
        <ele>1071</ele>
        <time>2020-06-22T08:41:00Z</time>
      </trkpt>
      <trkpt lat="42.50691" lon="2.23134">
        <ele>1073.48</ele>
        <time>2020-06-22T08:43:04Z</time>
      </trkpt>
      <trkpt lat="42.50685" lon="2.23132">
        <ele>1073.49</ele>
        <time>2020-06-22T08:43:08Z</time>
      </trkpt>
      <trkpt lat="42.50679" lon="2.23134">
        <ele>1073.52</ele>
        <time>2020-06-22T08:43:16Z</time>
      </trkpt>
      <trkpt lat="42.50668" lon="2.23137">
        <ele>1073.57</ele>
        <time>2020-06-22T08:43:26Z</time>
      </trkpt>
      <trkpt lat="42.50648" lon="2.2314">
        <ele>1073.65</ele>
        <time>2020-06-22T08:43:38Z</time>
      </trkpt>
      <trkpt lat="42.50647" lon="2.23138">
        <ele>1071.52</ele>
        <time>2020-06-22T08:43:53Z</time>
      </trkpt>
      <trkpt lat="42.50645" lon="2.23133">
        <ele>1070</ele>
        <time>2020-06-22T08:44:03Z</time>
      </trkpt>
      <trkpt lat="42.50643" lon="2.23129">
        <ele>1069.97</ele>
        <time>2020-06-22T08:44:05Z</time>
      </trkpt>
      <trkpt lat="42.50642" lon="2.23125">
        <ele>1070.21</ele>
        <time>2020-06-22T08:44:18Z</time>
      </trkpt>
      <trkpt lat="42.50641" lon="2.23122">
        <ele>1072.66</ele>
        <time>2020-06-22T08:44:20Z</time>
      </trkpt>
      <trkpt lat="42.5064" lon="2.2312">
        <ele>1074.42</ele>
        <time>2020-06-22T08:44:33Z</time>
      </trkpt>
      <trkpt lat="42.50638" lon="2.23115">
        <ele>1075.3</ele>
        <time>2020-06-22T08:44:43Z</time>
      </trkpt>
      <trkpt lat="42.50637" lon="2.23111">
        <ele>1078.74</ele>
        <time>2020-06-22T08:44:58Z</time>
      </trkpt>
      <trkpt lat="42.50636" lon="2.23105">
        <ele>1080.52</ele>
        <time>2020-06-22T08:45:25Z</time>
      </trkpt>
      <trkpt lat="42.50629" lon="2.23093">
        <ele>1081.89</ele>
        <time>2020-06-22T08:46:38Z</time>
      </trkpt>
      <trkpt lat="42.50618" lon="2.23108">
        <ele>1083.27</ele>
        <time>2020-06-22T08:47:48Z</time>
      </trkpt>
      <trkpt lat="42.50605" lon="2.23119">
        <ele>1087.2</ele>
        <time>2020-06-22T08:48:06Z</time>
      </trkpt>
      <trkpt lat="42.50596" lon="2.23131">
        <ele>1089.41</ele>
        <time>2020-06-22T08:48:29Z</time>
      </trkpt>
      <trkpt lat="42.50573" lon="2.23143">
        <ele>1089.81</ele>
        <time>2020-06-22T08:48:48Z</time>
      </trkpt>
      <trkpt lat="42.50549" lon="2.23145">
        <ele>1090.89</ele>
        <time>2020-06-22T08:48:59Z</time>
      </trkpt>
      <trkpt lat="42.50527" lon="2.23136">
        <ele>1090.96</ele>
        <time>2020-06-22T08:49:03Z</time>
      </trkpt>
      <trkpt lat="42.50517" lon="2.23119">
        <ele>1090.99</ele>
        <time>2020-06-22T08:49:05Z</time>
      </trkpt>
      <trkpt lat="42.50506" lon="2.23118">
        <ele>1091.98</ele>
        <time>2020-06-22T08:49:14Z</time>
      </trkpt>
      <trkpt lat="42.50507" lon="2.23118">
        <ele>1092.01</ele>
        <time>2020-06-22T08:49:15Z</time>
      </trkpt>
      <trkpt lat="42.50504" lon="2.23116">
        <ele>1092.19</ele>
        <time>2020-06-22T08:49:25Z</time>
      </trkpt>
      <trkpt lat="42.50507" lon="2.23118">
        <ele>1092.33</ele>
        <time>2020-06-22T08:49:33Z</time>
      </trkpt>
      <trkpt lat="42.50503" lon="2.23118">
        <ele>1092.44</ele>
        <time>2020-06-22T08:49:38Z</time>
      </trkpt>
      <trkpt lat="42.505" lon="2.23117">
        <ele>1092.48</ele>
        <time>2020-06-22T08:49:40Z</time>
      </trkpt>
      <trkpt lat="42.505" lon="2.23116">
        <ele>1092.61</ele>
        <time>2020-06-22T08:49:46Z</time>
      </trkpt>
      <trkpt lat="42.50503" lon="2.23115">
        <ele>1092.78</ele>
        <time>2020-06-22T08:49:59Z</time>
      </trkpt>
      <trkpt lat="42.50502" lon="2.23116">
        <ele>1092.82</ele>
        <time>2020-06-22T08:50:02Z</time>
      </trkpt>
      <trkpt lat="42.50501" lon="2.23112">
        <ele>1093.02</ele>
        <time>2020-06-22T08:50:14Z</time>
      </trkpt>
      <trkpt lat="42.50504" lon="2.23107">
        <ele>1093.23</ele>
        <time>2020-06-22T08:50:25Z</time>
      </trkpt>
      <trkpt lat="42.50509" lon="2.231">
        <ele>1093.24</ele>
        <time>2020-06-22T08:50:26Z</time>
      </trkpt>
      <trkpt lat="42.50492" lon="2.23105">
        <ele>1093.36</ele>
        <time>2020-06-22T08:50:33Z</time>
      </trkpt>
      <trkpt lat="42.50496" lon="2.23102">
        <ele>1094.34</ele>
        <time>2020-06-22T08:50:38Z</time>
      </trkpt>
      <trkpt lat="42.50494" lon="2.23101">
        <ele>1094.43</ele>
        <time>2020-06-22T08:50:44Z</time>
      </trkpt>
      <trkpt lat="42.50485" lon="2.23098">
        <ele>1094.49</ele>
        <time>2020-06-22T08:50:51Z</time>
      </trkpt>
      <trkpt lat="42.50485" lon="2.23097">
        <ele>1094.52</ele>
        <time>2020-06-22T08:50:55Z</time>
      </trkpt>
      <trkpt lat="42.50487" lon="2.23095">
        <ele>1094.62</ele>
        <time>2020-06-22T08:51:03Z</time>
      </trkpt>
      <trkpt lat="42.50484" lon="2.23094">
        <ele>1096.5</ele>
        <time>2020-06-22T08:51:14Z</time>
      </trkpt>
      <trkpt lat="42.50496" lon="2.23093">
        <ele>1096.55</ele>
        <time>2020-06-22T08:51:23Z</time>
      </trkpt>
      <trkpt lat="42.50498" lon="2.23093">
        <ele>1096.6</ele>
        <time>2020-06-22T08:51:26Z</time>
      </trkpt>
      <trkpt lat="42.50499" lon="2.23092">
        <ele>1097.74</ele>
        <time>2020-06-22T08:51:32Z</time>
      </trkpt>
      <trkpt lat="42.50495" lon="2.23093">
        <ele>1097.74</ele>
        <time>2020-06-22T08:51:35Z</time>
      </trkpt>
      <trkpt lat="42.50493" lon="2.23094">
        <ele>1097.76</ele>
        <time>2020-06-22T08:51:37Z</time>
      </trkpt>
      <trkpt lat="42.50493" lon="2.23096">
        <ele>1097.8</ele>
        <time>2020-06-22T08:51:40Z</time>
      </trkpt>
      <trkpt lat="42.5049" lon="2.23094">
        <ele>1098.88</ele>
        <time>2020-06-22T08:51:43Z</time>
      </trkpt>
      <trkpt lat="42.50493" lon="2.23085">
        <ele>1099.78</ele>
        <time>2020-06-22T08:51:54Z</time>
      </trkpt>
      <trkpt lat="42.50496" lon="2.23078">
        <ele>1099.81</ele>
        <time>2020-06-22T08:52:02Z</time>
      </trkpt>
      <trkpt lat="42.50498" lon="2.23074">
        <ele>1099.84</ele>
        <time>2020-06-22T08:52:07Z</time>
      </trkpt>
      <trkpt lat="42.505" lon="2.2307">
        <ele>1099.9</ele>
        <time>2020-06-22T08:52:18Z</time>
      </trkpt>
      <trkpt lat="42.50504" lon="2.23066">
        <ele>1099.99</ele>
        <time>2020-06-22T08:52:28Z</time>
      </trkpt>
      <trkpt lat="42.50505" lon="2.23066">
        <ele>1100.01</ele>
        <time>2020-06-22T08:52:30Z</time>
      </trkpt>
      <trkpt lat="42.50504" lon="2.23064">
        <ele>1100.04</ele>
        <time>2020-06-22T08:52:32Z</time>
      </trkpt>
      <trkpt lat="42.50503" lon="2.23056">
        <ele>1100.08</ele>
        <time>2020-06-22T08:52:37Z</time>
      </trkpt>
      <trkpt lat="42.50504" lon="2.23052">
        <ele>1101.12</ele>
        <time>2020-06-22T08:52:43Z</time>
      </trkpt>
      <trkpt lat="42.50506" lon="2.2305">
        <ele>1101.16</ele>
        <time>2020-06-22T08:52:51Z</time>
      </trkpt>
      <trkpt lat="42.50503" lon="2.23043">
        <ele>1101.17</ele>
        <time>2020-06-22T08:52:59Z</time>
      </trkpt>
      <trkpt lat="42.5051" lon="2.2304">
        <ele>1102.06</ele>
        <time>2020-06-22T08:53:07Z</time>
      </trkpt>
      <trkpt lat="42.50511" lon="2.2304">
        <ele>1102.93</ele>
        <time>2020-06-22T08:53:09Z</time>
      </trkpt>
      <trkpt lat="42.50514" lon="2.23036">
        <ele>1102.95</ele>
        <time>2020-06-22T08:53:15Z</time>
      </trkpt>
      <trkpt lat="42.50515" lon="2.23032">
        <ele>1102.95</ele>
        <time>2020-06-22T08:53:20Z</time>
      </trkpt>
      <trkpt lat="42.50514" lon="2.2303">
        <ele>1102.97</ele>
        <time>2020-06-22T08:53:22Z</time>
      </trkpt>
      <trkpt lat="42.50513" lon="2.23027">
        <ele>1103.89</ele>
        <time>2020-06-22T08:53:30Z</time>
      </trkpt>
      <trkpt lat="42.50512" lon="2.2302">
        <ele>1104.76</ele>
        <time>2020-06-22T08:53:40Z</time>
      </trkpt>
      <trkpt lat="42.5052" lon="2.23016">
        <ele>1105.53</ele>
        <time>2020-06-22T08:53:46Z</time>
      </trkpt>
      <trkpt lat="42.50517" lon="2.23013">
        <ele>1105.53</ele>
        <time>2020-06-22T08:53:49Z</time>
      </trkpt>
      <trkpt lat="42.50513" lon="2.23">
        <ele>1105.52</ele>
        <time>2020-06-22T08:54:00Z</time>
      </trkpt>
      <trkpt lat="42.50514" lon="2.22999">
        <ele>1105.52</ele>
        <time>2020-06-22T08:54:01Z</time>
      </trkpt>
      <trkpt lat="42.50526" lon="2.22997">
        <ele>1106.41</ele>
        <time>2020-06-22T08:54:07Z</time>
      </trkpt>
      <trkpt lat="42.50527" lon="2.22994">
        <ele>1107.22</ele>
        <time>2020-06-22T08:54:09Z</time>
      </trkpt>
      <trkpt lat="42.50524" lon="2.22993">
        <ele>1107.2</ele>
        <time>2020-06-22T08:54:12Z</time>
      </trkpt>
      <trkpt lat="42.50531" lon="2.2299">
        <ele>1107.98</ele>
        <time>2020-06-22T08:54:18Z</time>
      </trkpt>
      <trkpt lat="42.50532" lon="2.22986">
        <ele>1108.74</ele>
        <time>2020-06-22T08:54:22Z</time>
      </trkpt>
      <trkpt lat="42.50525" lon="2.2298">
        <ele>1108.68</ele>
        <time>2020-06-22T08:54:32Z</time>
      </trkpt>
      <trkpt lat="42.50533" lon="2.22976">
        <ele>1108.63</ele>
        <time>2020-06-22T08:54:40Z</time>
      </trkpt>
      <trkpt lat="42.50536" lon="2.22977">
        <ele>1108.61</ele>
        <time>2020-06-22T08:54:44Z</time>
      </trkpt>
      <trkpt lat="42.50537" lon="2.22977">
        <ele>1108.6</ele>
        <time>2020-06-22T08:54:46Z</time>
      </trkpt>
      <trkpt lat="42.50539" lon="2.22985">
        <ele>1109.41</ele>
        <time>2020-06-22T08:54:52Z</time>
      </trkpt>
      <trkpt lat="42.50533" lon="2.22992">
        <ele>1109.38</ele>
        <time>2020-06-22T08:54:59Z</time>
      </trkpt>
      <trkpt lat="42.50526" lon="2.22994">
        <ele>1109.37</ele>
        <time>2020-06-22T08:55:05Z</time>
      </trkpt>
      <trkpt lat="42.50523" lon="2.22992">
        <ele>1110.15</ele>
        <time>2020-06-22T08:55:08Z</time>
      </trkpt>
      <trkpt lat="42.50523" lon="2.23005">
        <ele>1110.06</ele>
        <time>2020-06-22T08:55:21Z</time>
      </trkpt>
      <trkpt lat="42.50525" lon="2.23005">
        <ele>1109.98</ele>
        <time>2020-06-22T08:55:31Z</time>
      </trkpt>
      <trkpt lat="42.50513" lon="2.23001">
        <ele>1109.89</ele>
        <time>2020-06-22T08:55:41Z</time>
      </trkpt>
      <trkpt lat="42.50503" lon="2.22992">
        <ele>1109.83</ele>
        <time>2020-06-22T08:55:48Z</time>
      </trkpt>
      <trkpt lat="42.50501" lon="2.2299">
        <ele>1109.82</ele>
        <time>2020-06-22T08:55:50Z</time>
      </trkpt>
      <trkpt lat="42.50495" lon="2.22986">
        <ele>1109.8</ele>
        <time>2020-06-22T08:55:54Z</time>
      </trkpt>
      <trkpt lat="42.50488" lon="2.22983">
        <ele>1109.74</ele>
        <time>2020-06-22T08:56:01Z</time>
      </trkpt>
      <trkpt lat="42.50483" lon="2.22982">
        <ele>1109.72</ele>
        <time>2020-06-22T08:56:04Z</time>
      </trkpt>
      <trkpt lat="42.50477" lon="2.22985">
        <ele>1109.69</ele>
        <time>2020-06-22T08:56:08Z</time>
      </trkpt>
      <trkpt lat="42.50478" lon="2.22988">
        <ele>1109.62</ele>
        <time>2020-06-22T08:56:20Z</time>
      </trkpt>
      <trkpt lat="42.5048" lon="2.22989">
        <ele>1109.59</ele>
        <time>2020-06-22T08:56:24Z</time>
      </trkpt>
      <trkpt lat="42.5048" lon="2.22994">
        <ele>1109.52</ele>
        <time>2020-06-22T08:56:35Z</time>
      </trkpt>
      <trkpt lat="42.50477" lon="2.23001">
        <ele>1109.43</ele>
        <time>2020-06-22T08:56:45Z</time>
      </trkpt>
      <trkpt lat="42.50477" lon="2.23003">
        <ele>1109.39</ele>
        <time>2020-06-22T08:56:49Z</time>
      </trkpt>
      <trkpt lat="42.50478" lon="2.23003">
        <ele>1109.38</ele>
        <time>2020-06-22T08:56:51Z</time>
      </trkpt>
      <trkpt lat="42.50481" lon="2.23004">
        <ele>1109.33</ele>
        <time>2020-06-22T08:56:56Z</time>
      </trkpt>
      <trkpt lat="42.5048" lon="2.23004">
        <ele>1109.98</ele>
        <time>2020-06-22T08:57:08Z</time>
      </trkpt>
      <trkpt lat="42.50473" lon="2.23012">
        <ele>1110.66</ele>
        <time>2020-06-22T08:57:19Z</time>
      </trkpt>
      <trkpt lat="42.50483" lon="2.23016">
        <ele>1111.29</ele>
        <time>2020-06-22T08:57:30Z</time>
      </trkpt>
      <trkpt lat="42.50486" lon="2.23018">
        <ele>1111.22</ele>
        <time>2020-06-22T08:57:34Z</time>
      </trkpt>
      <trkpt lat="42.50484" lon="2.23019">
        <ele>1111.2</ele>
        <time>2020-06-22T08:57:36Z</time>
      </trkpt>
      <trkpt lat="42.50482" lon="2.23025">
        <ele>1111.86</ele>
        <time>2020-06-22T08:57:47Z</time>
      </trkpt>
      <trkpt lat="42.5048" lon="2.23027">
        <ele>1111.8</ele>
        <time>2020-06-22T08:57:51Z</time>
      </trkpt>
      <trkpt lat="42.50478" lon="2.23032">
        <ele>1111.74</ele>
        <time>2020-06-22T08:57:56Z</time>
      </trkpt>
      <trkpt lat="42.50477" lon="2.23042">
        <ele>1113.93</ele>
        <time>2020-06-22T08:58:13Z</time>
      </trkpt>
      <trkpt lat="42.50478" lon="2.23044">
        <ele>1114.53</ele>
        <time>2020-06-22T08:58:28Z</time>
      </trkpt>
      <trkpt lat="42.5048" lon="2.23046">
        <ele>1115.17</ele>
        <time>2020-06-22T08:58:35Z</time>
      </trkpt>
      <trkpt lat="42.50483" lon="2.23039">
        <ele>1115.9</ele>
        <time>2020-06-22T08:58:43Z</time>
      </trkpt>
      <trkpt lat="42.50492" lon="2.23032">
        <ele>1115.64</ele>
        <time>2020-06-22T08:58:57Z</time>
      </trkpt>
      <trkpt lat="42.50493" lon="2.23028">
        <ele>1116.04</ele>
        <time>2020-06-22T08:59:22Z</time>
      </trkpt>
      <trkpt lat="42.50495" lon="2.23029">
        <ele>1115.83</ele>
        <time>2020-06-22T08:59:35Z</time>
      </trkpt>
      <trkpt lat="42.5048" lon="2.23027">
        <ele>1115.55</ele>
        <time>2020-06-22T08:59:56Z</time>
      </trkpt>
      <trkpt lat="42.50477" lon="2.23026">
        <ele>1115.18</ele>
        <time>2020-06-22T09:00:20Z</time>
      </trkpt>
      <trkpt lat="42.50468" lon="2.23038">
        <ele>1114.85</ele>
        <time>2020-06-22T09:00:43Z</time>
      </trkpt>
      <trkpt lat="42.50459" lon="2.23048">
        <ele>1114.72</ele>
        <time>2020-06-22T09:00:52Z</time>
      </trkpt>
      <trkpt lat="42.50466" lon="2.23048">
        <ele>1114.31</ele>
        <time>2020-06-22T09:01:19Z</time>
      </trkpt>
      <trkpt lat="42.50479" lon="2.23029">
        <ele>1110.67</ele>
        <time>2020-06-22T09:01:54Z</time>
      </trkpt>
      <trkpt lat="42.5048" lon="2.23028">
        <ele>1114.7</ele>
        <time>2020-06-22T09:01:55Z</time>
      </trkpt>
      <trkpt lat="42.50479" lon="2.23028">
        <ele>1111.68</ele>
        <time>2020-06-22T09:01:59Z</time>
      </trkpt>
      <trkpt lat="42.50476" lon="2.23029">
        <ele>1115.45</ele>
        <time>2020-06-22T09:02:01Z</time>
      </trkpt>
      <trkpt lat="42.50475" lon="2.2303">
        <ele>1115.43</ele>
        <time>2020-06-22T09:02:02Z</time>
      </trkpt>
      <trkpt lat="42.50473" lon="2.23031">
        <ele>1115.36</ele>
        <time>2020-06-22T09:02:05Z</time>
      </trkpt>
      <trkpt lat="42.50472" lon="2.23032">
        <ele>1115.3</ele>
        <time>2020-06-22T09:02:07Z</time>
      </trkpt>
      <trkpt lat="42.50469" lon="2.23033">
        <ele>1115.22</ele>
        <time>2020-06-22T09:02:15Z</time>
      </trkpt>
      <trkpt lat="42.50478" lon="2.23025">
        <ele>1115.05</ele>
        <time>2020-06-22T09:02:28Z</time>
      </trkpt>
      <trkpt lat="42.50479" lon="2.23024">
        <ele>1115.01</ele>
        <time>2020-06-22T09:02:32Z</time>
      </trkpt>
      <trkpt lat="42.50478" lon="2.23022">
        <ele>1114.9</ele>
        <time>2020-06-22T09:02:41Z</time>
      </trkpt>
      <trkpt lat="42.50473" lon="2.23012">
        <ele>1116.35</ele>
        <time>2020-06-22T09:02:59Z</time>
      </trkpt>
      <trkpt lat="42.50473" lon="2.23011">
        <ele>1116.33</ele>
        <time>2020-06-22T09:03:01Z</time>
      </trkpt>
      <trkpt lat="42.50471" lon="2.22999">
        <ele>1116.8</ele>
        <time>2020-06-22T09:03:17Z</time>
      </trkpt>
      <trkpt lat="42.50479" lon="2.22993">
        <ele>1116.51</ele>
        <time>2020-06-22T09:03:33Z</time>
      </trkpt>
      <trkpt lat="42.50482" lon="2.22993">
        <ele>1116.38</ele>
        <time>2020-06-22T09:03:40Z</time>
      </trkpt>
      <trkpt lat="42.50489" lon="2.22982">
        <ele>1115.99</ele>
        <time>2020-06-22T09:04:01Z</time>
      </trkpt>
      <trkpt lat="42.5049" lon="2.22979">
        <ele>1116.6</ele>
        <time>2020-06-22T09:04:11Z</time>
      </trkpt>
      <trkpt lat="42.50491" lon="2.2298">
        <ele>1117.29</ele>
        <time>2020-06-22T09:04:16Z</time>
      </trkpt>
      <trkpt lat="42.50482" lon="2.22975">
        <ele>1117.75</ele>
        <time>2020-06-22T09:04:36Z</time>
      </trkpt>
      <trkpt lat="42.50459" lon="2.22978">
        <ele>1117.4</ele>
        <time>2020-06-22T09:04:56Z</time>
      </trkpt>
      <trkpt lat="42.50457" lon="2.22971">
        <ele>1117.11</ele>
        <time>2020-06-22T09:05:13Z</time>
      </trkpt>
      <trkpt lat="42.50454" lon="2.22964">
        <ele>1118.73</ele>
        <time>2020-06-22T09:05:33Z</time>
      </trkpt>
      <trkpt lat="42.50442" lon="2.22961">
        <ele>1119.9</ele>
        <time>2020-06-22T09:05:52Z</time>
      </trkpt>
      <trkpt lat="42.50433" lon="2.22957">
        <ele>1120.28</ele>
        <time>2020-06-22T09:06:12Z</time>
      </trkpt>
      <trkpt lat="42.5043" lon="2.22957">
        <ele>1120.12</ele>
        <time>2020-06-22T09:06:21Z</time>
      </trkpt>
      <trkpt lat="42.50427" lon="2.22958">
        <ele>1120.98</ele>
        <time>2020-06-22T09:06:25Z</time>
      </trkpt>
      <trkpt lat="42.50424" lon="2.2296">
        <ele>1121.71</ele>
        <time>2020-06-22T09:06:36Z</time>
      </trkpt>
      <trkpt lat="42.50432" lon="2.22965">
        <ele>1122.99</ele>
        <time>2020-06-22T09:06:55Z</time>
      </trkpt>
      <trkpt lat="42.50395" lon="2.2298">
        <ele>1122.65</ele>
        <time>2020-06-22T09:07:13Z</time>
      </trkpt>
      <trkpt lat="42.50359" lon="2.22998">
        <ele>1123.22</ele>
        <time>2020-06-22T09:07:32Z</time>
      </trkpt>
      <trkpt lat="42.50355" lon="2.23001">
        <ele>1123.14</ele>
        <time>2020-06-22T09:07:39Z</time>
      </trkpt>
      <trkpt lat="42.50344" lon="2.23008">
        <ele>1124.67</ele>
        <time>2020-06-22T09:07:53Z</time>
      </trkpt>
      <trkpt lat="42.50334" lon="2.23016">
        <ele>1126.35</ele>
        <time>2020-06-22T09:08:08Z</time>
      </trkpt>
      <trkpt lat="42.5033" lon="2.23026">
        <ele>1126.97</ele>
        <time>2020-06-22T09:08:26Z</time>
      </trkpt>
      <trkpt lat="42.50316" lon="2.23027">
        <ele>1126.89</ele>
        <time>2020-06-22T09:08:41Z</time>
      </trkpt>
      <trkpt lat="42.50307" lon="2.2303">
        <ele>1128.52</ele>
        <time>2020-06-22T09:08:59Z</time>
      </trkpt>
      <trkpt lat="42.50298" lon="2.23027">
        <ele>1128.5</ele>
        <time>2020-06-22T09:09:13Z</time>
      </trkpt>
      <trkpt lat="42.50291" lon="2.23029">
        <ele>1131.28</ele>
        <time>2020-06-22T09:09:29Z</time>
      </trkpt>
      <trkpt lat="42.50282" lon="2.23033">
        <ele>1132.87</ele>
        <time>2020-06-22T09:09:47Z</time>
      </trkpt>
      <trkpt lat="42.50284" lon="2.23035">
        <ele>1133.77</ele>
        <time>2020-06-22T09:10:04Z</time>
      </trkpt>
      <trkpt lat="42.50283" lon="2.23031">
        <ele>1134.63</ele>
        <time>2020-06-22T09:10:26Z</time>
      </trkpt>
      <trkpt lat="42.50282" lon="2.23034">
        <ele>1134.67</ele>
        <time>2020-06-22T09:10:31Z</time>
      </trkpt>
      <trkpt lat="42.50277" lon="2.23038">
        <ele>1132.3</ele>
        <time>2020-06-22T09:10:48Z</time>
      </trkpt>
      <trkpt lat="42.50271" lon="2.2304">
        <ele>1131.58</ele>
        <time>2020-06-22T09:11:07Z</time>
      </trkpt>
      <trkpt lat="42.50265" lon="2.23039">
        <ele>1131.83</ele>
        <time>2020-06-22T09:11:27Z</time>
      </trkpt>
      <trkpt lat="42.50262" lon="2.23049">
        <ele>1132.15</ele>
        <time>2020-06-22T09:11:53Z</time>
      </trkpt>
      <trkpt lat="42.50262" lon="2.23055">
        <ele>1132.17</ele>
        <time>2020-06-22T09:11:55Z</time>
      </trkpt>
      <trkpt lat="42.50261" lon="2.23057">
        <ele>1132.22</ele>
        <time>2020-06-22T09:11:58Z</time>
      </trkpt>
      <trkpt lat="42.50259" lon="2.23062">
        <ele>1134.61</ele>
        <time>2020-06-22T09:12:04Z</time>
      </trkpt>
      <trkpt lat="42.50257" lon="2.23063">
        <ele>1134.89</ele>
        <time>2020-06-22T09:12:23Z</time>
      </trkpt>
      <trkpt lat="42.50253" lon="2.23058">
        <ele>1137.56</ele>
        <time>2020-06-22T09:12:42Z</time>
      </trkpt>
      <trkpt lat="42.5025" lon="2.23061">
        <ele>1137.64</ele>
        <time>2020-06-22T09:12:47Z</time>
      </trkpt>
      <trkpt lat="42.50247" lon="2.23067">
        <ele>1138.56</ele>
        <time>2020-06-22T09:12:54Z</time>
      </trkpt>
      <trkpt lat="42.50238" lon="2.2308">
        <ele>1140.56</ele>
        <time>2020-06-22T09:13:10Z</time>
      </trkpt>
      <trkpt lat="42.50231" lon="2.2309">
        <ele>1143.63</ele>
        <time>2020-06-22T09:13:26Z</time>
      </trkpt>
      <trkpt lat="42.5023" lon="2.2311">
        <ele>1144.8</ele>
        <time>2020-06-22T09:13:47Z</time>
      </trkpt>
      <trkpt lat="42.50229" lon="2.23123">
        <ele>1145.11</ele>
        <time>2020-06-22T09:14:05Z</time>
      </trkpt>
      <trkpt lat="42.50228" lon="2.23124">
        <ele>1145.19</ele>
        <time>2020-06-22T09:14:08Z</time>
      </trkpt>
      <trkpt lat="42.50227" lon="2.23126">
        <ele>1145.16</ele>
        <time>2020-06-22T09:14:10Z</time>
      </trkpt>
      <trkpt lat="42.50219" lon="2.23132">
        <ele>1146.48</ele>
        <time>2020-06-22T09:14:30Z</time>
      </trkpt>
      <trkpt lat="42.50212" lon="2.23136">
        <ele>1148.59</ele>
        <time>2020-06-22T09:14:48Z</time>
      </trkpt>
      <trkpt lat="42.50204" lon="2.2314">
        <ele>1149.56</ele>
        <time>2020-06-22T09:15:02Z</time>
      </trkpt>
      <trkpt lat="42.50201" lon="2.23151">
        <ele>1152.55</ele>
        <time>2020-06-22T09:15:19Z</time>
      </trkpt>
      <trkpt lat="42.50199" lon="2.23149">
        <ele>1152.77</ele>
        <time>2020-06-22T09:15:39Z</time>
      </trkpt>
      <trkpt lat="42.50197" lon="2.23151">
        <ele>1153.1</ele>
        <time>2020-06-22T09:16:04Z</time>
      </trkpt>
      <trkpt lat="42.50193" lon="2.23149">
        <ele>1154.33</ele>
        <time>2020-06-22T09:16:21Z</time>
      </trkpt>
      <trkpt lat="42.50195" lon="2.23153">
        <ele>1154.53</ele>
        <time>2020-06-22T09:16:40Z</time>
      </trkpt>
      <trkpt lat="42.50195" lon="2.23158">
        <ele>1154.94</ele>
        <time>2020-06-22T09:17:06Z</time>
      </trkpt>
      <trkpt lat="42.50193" lon="2.23158">
        <ele>1155.43</ele>
        <time>2020-06-22T09:17:31Z</time>
      </trkpt>
      <trkpt lat="42.50193" lon="2.2315">
        <ele>1155.7</ele>
        <time>2020-06-22T09:17:45Z</time>
      </trkpt>
      <trkpt lat="42.50191" lon="2.2315">
        <ele>1157.8</ele>
        <time>2020-06-22T09:18:03Z</time>
      </trkpt>
      <trkpt lat="42.50175" lon="2.23151">
        <ele>1159.55</ele>
        <time>2020-06-22T09:18:24Z</time>
      </trkpt>
      <trkpt lat="42.50166" lon="2.23151">
        <ele>1162.21</ele>
        <time>2020-06-22T09:18:42Z</time>
      </trkpt>
      <trkpt lat="42.50154" lon="2.23169">
        <ele>1163.95</ele>
        <time>2020-06-22T09:19:00Z</time>
      </trkpt>
      <trkpt lat="42.50143" lon="2.2319">
        <ele>1165.58</ele>
        <time>2020-06-22T09:19:19Z</time>
      </trkpt>
      <trkpt lat="42.50134" lon="2.2321">
        <ele>1167.18</ele>
        <time>2020-06-22T09:19:38Z</time>
      </trkpt>
      <trkpt lat="42.50128" lon="2.23217">
        <ele>1167.17</ele>
        <time>2020-06-22T09:19:46Z</time>
      </trkpt>
      <trkpt lat="42.50118" lon="2.23235">
        <ele>1168.88</ele>
        <time>2020-06-22T09:20:05Z</time>
      </trkpt>
      <trkpt lat="42.50107" lon="2.2325">
        <ele>1170.65</ele>
        <time>2020-06-22T09:20:22Z</time>
      </trkpt>
      <trkpt lat="42.50094" lon="2.23261">
        <ele>1172.29</ele>
        <time>2020-06-22T09:20:41Z</time>
      </trkpt>
      <trkpt lat="42.5008" lon="2.23268">
        <ele>1173.91</ele>
        <time>2020-06-22T09:20:58Z</time>
      </trkpt>
      <trkpt lat="42.50069" lon="2.23265">
        <ele>1175.58</ele>
        <time>2020-06-22T09:21:15Z</time>
      </trkpt>
      <trkpt lat="42.50051" lon="2.23261">
        <ele>1177.91</ele>
        <time>2020-06-22T09:21:37Z</time>
      </trkpt>
      <trkpt lat="42.50039" lon="2.23274">
        <ele>1179.47</ele>
        <time>2020-06-22T09:21:54Z</time>
      </trkpt>
      <trkpt lat="42.50041" lon="2.23287">
        <ele>1180.23</ele>
        <time>2020-06-22T09:22:15Z</time>
      </trkpt>
      <trkpt lat="42.5004" lon="2.23292">
        <ele>1180.08</ele>
        <time>2020-06-22T09:22:33Z</time>
      </trkpt>
      <trkpt lat="42.50044" lon="2.233">
        <ele>1180.75</ele>
        <time>2020-06-22T09:23:00Z</time>
      </trkpt>
      <trkpt lat="42.50045" lon="2.23298">
        <ele>1173.16</ele>
        <time>2020-06-22T09:23:20Z</time>
      </trkpt>
      <trkpt lat="42.50045" lon="2.23298">
        <ele>1164</ele>
        <time>2020-06-22T09:23:21Z</time>
      </trkpt>
      <trkpt lat="42.50046" lon="2.23298">
        <ele>1169.95</ele>
        <time>2020-06-22T09:23:22Z</time>
      </trkpt>
      <trkpt lat="42.50046" lon="2.23297">
        <ele>1188.14</ele>
        <time>2020-06-22T09:23:23Z</time>
      </trkpt>
      <trkpt lat="42.50046" lon="2.23297">
        <ele>1188.14</ele>
        <time>2020-06-22T09:23:24Z</time>
      </trkpt>
      <trkpt lat="42.50047" lon="2.23297">
        <ele>1184.73</ele>
        <time>2020-06-22T09:23:26Z</time>
      </trkpt>
      <trkpt lat="42.50047" lon="2.23296">
        <ele>1181.31</ele>
        <time>2020-06-22T09:23:28Z</time>
      </trkpt>
      <trkpt lat="42.50047" lon="2.23296">
        <ele>1175.34</ele>
        <time>2020-06-22T09:23:30Z</time>
      </trkpt>
      <trkpt lat="42.50047" lon="2.23296">
        <ele>1180.25</ele>
        <time>2020-06-22T09:23:31Z</time>
      </trkpt>
      <trkpt lat="42.50047" lon="2.23296">
        <ele>1181.42</ele>
        <time>2020-06-22T09:23:33Z</time>
      </trkpt>
      <trkpt lat="42.50047" lon="2.23297">
        <ele>1178.24</ele>
        <time>2020-06-22T09:23:35Z</time>
      </trkpt>
      <trkpt lat="42.50046" lon="2.23297">
        <ele>1181.84</ele>
        <time>2020-06-22T09:23:37Z</time>
      </trkpt>
      <trkpt lat="42.50046" lon="2.23296">
        <ele>1181.84</ele>
        <time>2020-06-22T09:23:38Z</time>
      </trkpt>
      <trkpt lat="42.50046" lon="2.23297">
        <ele>1178.8</ele>
        <time>2020-06-22T09:23:41Z</time>
      </trkpt>
      <trkpt lat="42.50046" lon="2.23297">
        <ele>1178.79</ele>
        <time>2020-06-22T09:23:42Z</time>
      </trkpt>
      <trkpt lat="42.50046" lon="2.23298">
        <ele>1181.15</ele>
        <time>2020-06-22T09:23:44Z</time>
      </trkpt>
      <trkpt lat="42.50046" lon="2.23295">
        <ele>1181.26</ele>
        <time>2020-06-22T09:24:14Z</time>
      </trkpt>
      <trkpt lat="42.5004" lon="2.23294">
        <ele>1181.02</ele>
        <time>2020-06-22T09:24:45Z</time>
      </trkpt>
      <trkpt lat="42.50036" lon="2.23303">
        <ele>1180.84</ele>
        <time>2020-06-22T09:25:12Z</time>
      </trkpt>
      <trkpt lat="42.5004" lon="2.23301">
        <ele>1180.64</ele>
        <time>2020-06-22T09:25:40Z</time>
      </trkpt>
      <trkpt lat="42.50035" lon="2.23294">
        <ele>1180.5</ele>
        <time>2020-06-22T09:26:03Z</time>
      </trkpt>
      <trkpt lat="42.50028" lon="2.23284">
        <ele>1180.42</ele>
        <time>2020-06-22T09:26:19Z</time>
      </trkpt>
      <trkpt lat="42.5003" lon="2.23287">
        <ele>1181.07</ele>
        <time>2020-06-22T09:26:43Z</time>
      </trkpt>
      <trkpt lat="42.50032" lon="2.23288">
        <ele>1180.98</ele>
        <time>2020-06-22T09:27:07Z</time>
      </trkpt>
      <trkpt lat="42.50033" lon="2.23295">
        <ele>1180.93</ele>
        <time>2020-06-22T09:27:34Z</time>
      </trkpt>
      <trkpt lat="42.50034" lon="2.23294">
        <ele>1180.89</ele>
        <time>2020-06-22T09:28:00Z</time>
      </trkpt>
      <trkpt lat="42.50043" lon="2.23301">
        <ele>1180.87</ele>
        <time>2020-06-22T09:28:20Z</time>
      </trkpt>
      <trkpt lat="42.50043" lon="2.23321">
        <ele>1180.96</ele>
        <time>2020-06-22T09:28:38Z</time>
      </trkpt>
      <trkpt lat="42.5004" lon="2.23343">
        <ele>1182.54</ele>
        <time>2020-06-22T09:28:57Z</time>
      </trkpt>
      <trkpt lat="42.50039" lon="2.23363">
        <ele>1184.06</ele>
        <time>2020-06-22T09:29:15Z</time>
      </trkpt>
      <trkpt lat="42.50036" lon="2.23377">
        <ele>1184.78</ele>
        <time>2020-06-22T09:29:33Z</time>
      </trkpt>
      <trkpt lat="42.50024" lon="2.23389">
        <ele>1187.05</ele>
        <time>2020-06-22T09:29:52Z</time>
      </trkpt>
      <trkpt lat="42.50011" lon="2.23399">
        <ele>1189.56</ele>
        <time>2020-06-22T09:30:12Z</time>
      </trkpt>
      <trkpt lat="42.49999" lon="2.23406">
        <ele>1191.02</ele>
        <time>2020-06-22T09:30:30Z</time>
      </trkpt>
      <trkpt lat="42.49985" lon="2.23419">
        <ele>1193.3</ele>
        <time>2020-06-22T09:30:50Z</time>
      </trkpt>
      <trkpt lat="42.49972" lon="2.23432">
        <ele>1195.42</ele>
        <time>2020-06-22T09:31:09Z</time>
      </trkpt>
      <trkpt lat="42.49966" lon="2.23438">
        <ele>1196.16</ele>
        <time>2020-06-22T09:31:19Z</time>
      </trkpt>
      <trkpt lat="42.49955" lon="2.2345">
        <ele>1198.62</ele>
        <time>2020-06-22T09:31:37Z</time>
      </trkpt>
      <trkpt lat="42.49942" lon="2.23462">
        <ele>1200.82</ele>
        <time>2020-06-22T09:31:55Z</time>
      </trkpt>
      <trkpt lat="42.49931" lon="2.23472">
        <ele>1202.23</ele>
        <time>2020-06-22T09:32:09Z</time>
      </trkpt>
      <trkpt lat="42.49921" lon="2.23489">
        <ele>1202.83</ele>
        <time>2020-06-22T09:32:28Z</time>
      </trkpt>
      <trkpt lat="42.49914" lon="2.23504">
        <ele>1204.36</ele>
        <time>2020-06-22T09:32:46Z</time>
      </trkpt>
      <trkpt lat="42.49904" lon="2.23515">
        <ele>1205.77</ele>
        <time>2020-06-22T09:33:05Z</time>
      </trkpt>
      <trkpt lat="42.49892" lon="2.23529">
        <ele>1207.15</ele>
        <time>2020-06-22T09:33:24Z</time>
      </trkpt>
      <trkpt lat="42.49881" lon="2.23541">
        <ele>1208.45</ele>
        <time>2020-06-22T09:33:39Z</time>
      </trkpt>
      <trkpt lat="42.49869" lon="2.2356">
        <ele>1210.64</ele>
        <time>2020-06-22T09:34:00Z</time>
      </trkpt>
      <trkpt lat="42.49863" lon="2.23575">
        <ele>1212.07</ele>
        <time>2020-06-22T09:34:15Z</time>
      </trkpt>
      <trkpt lat="42.49849" lon="2.23587">
        <ele>1213.52</ele>
        <time>2020-06-22T09:34:33Z</time>
      </trkpt>
      <trkpt lat="42.49834" lon="2.23597">
        <ele>1214.74</ele>
        <time>2020-06-22T09:34:52Z</time>
      </trkpt>
      <trkpt lat="42.4982" lon="2.23606">
        <ele>1216.39</ele>
        <time>2020-06-22T09:35:13Z</time>
      </trkpt>
      <trkpt lat="42.49808" lon="2.23621">
        <ele>1218.81</ele>
        <time>2020-06-22T09:35:33Z</time>
      </trkpt>
      <trkpt lat="42.49794" lon="2.23633">
        <ele>1220.12</ele>
        <time>2020-06-22T09:35:52Z</time>
      </trkpt>
      <trkpt lat="42.49781" lon="2.23645">
        <ele>1222.37</ele>
        <time>2020-06-22T09:36:10Z</time>
      </trkpt>
      <trkpt lat="42.49781" lon="2.23644">
        <ele>1221.87</ele>
        <time>2020-06-22T09:36:33Z</time>
      </trkpt>
      <trkpt lat="42.49774" lon="2.23647">
        <ele>1223.07</ele>
        <time>2020-06-22T09:36:54Z</time>
      </trkpt>
      <trkpt lat="42.49767" lon="2.23652">
        <ele>1224.57</ele>
        <time>2020-06-22T09:37:10Z</time>
      </trkpt>
      <trkpt lat="42.49762" lon="2.23665">
        <ele>1225.04</ele>
        <time>2020-06-22T09:37:25Z</time>
      </trkpt>
      <trkpt lat="42.49752" lon="2.2367">
        <ele>1226.46</ele>
        <time>2020-06-22T09:37:39Z</time>
      </trkpt>
      <trkpt lat="42.49742" lon="2.23661">
        <ele>1227.66</ele>
        <time>2020-06-22T09:37:57Z</time>
      </trkpt>
      <trkpt lat="42.49727" lon="2.23659">
        <ele>1228.16</ele>
        <time>2020-06-22T09:38:17Z</time>
      </trkpt>
      <trkpt lat="42.49715" lon="2.23658">
        <ele>1229.59</ele>
        <time>2020-06-22T09:38:33Z</time>
      </trkpt>
      <trkpt lat="42.49702" lon="2.23659">
        <ele>1230.04</ele>
        <time>2020-06-22T09:38:52Z</time>
      </trkpt>
      <trkpt lat="42.49688" lon="2.23663">
        <ele>1231.3</ele>
        <time>2020-06-22T09:39:09Z</time>
      </trkpt>
      <trkpt lat="42.49672" lon="2.23668">
        <ele>1232.63</ele>
        <time>2020-06-22T09:39:28Z</time>
      </trkpt>
      <trkpt lat="42.49659" lon="2.23673">
        <ele>1233.03</ele>
        <time>2020-06-22T09:39:46Z</time>
      </trkpt>
      <trkpt lat="42.49642" lon="2.23684">
        <ele>1234.16</ele>
        <time>2020-06-22T09:40:04Z</time>
      </trkpt>
      <trkpt lat="42.4963" lon="2.2369">
        <ele>1235.59</ele>
        <time>2020-06-22T09:40:20Z</time>
      </trkpt>
      <trkpt lat="42.49618" lon="2.23692">
        <ele>1236.87</ele>
        <time>2020-06-22T09:40:37Z</time>
      </trkpt>
      <trkpt lat="42.49604" lon="2.23692">
        <ele>1238.19</ele>
        <time>2020-06-22T09:40:55Z</time>
      </trkpt>
      <trkpt lat="42.4959" lon="2.23693">
        <ele>1240.02</ele>
        <time>2020-06-22T09:41:13Z</time>
      </trkpt>
      <trkpt lat="42.49577" lon="2.237">
        <ele>1241.18</ele>
        <time>2020-06-22T09:41:32Z</time>
      </trkpt>
      <trkpt lat="42.49565" lon="2.23701">
        <ele>1243.53</ele>
        <time>2020-06-22T09:41:52Z</time>
      </trkpt>
      <trkpt lat="42.49564" lon="2.23709">
        <ele>1242.93</ele>
        <time>2020-06-22T09:42:13Z</time>
      </trkpt>
      <trkpt lat="42.49557" lon="2.2371">
        <ele>1242.54</ele>
        <time>2020-06-22T09:42:30Z</time>
      </trkpt>
      <trkpt lat="42.49548" lon="2.23711">
        <ele>1243.69</ele>
        <time>2020-06-22T09:42:54Z</time>
      </trkpt>
      <trkpt lat="42.49544" lon="2.23715">
        <ele>1245.85</ele>
        <time>2020-06-22T09:43:07Z</time>
      </trkpt>
      <trkpt lat="42.49544" lon="2.23718">
        <ele>1245.8</ele>
        <time>2020-06-22T09:43:09Z</time>
      </trkpt>
      <trkpt lat="42.4953" lon="2.23726">
        <ele>1248.21</ele>
        <time>2020-06-22T09:43:40Z</time>
      </trkpt>
      <trkpt lat="42.49518" lon="2.23747">
        <ele>1248.4</ele>
        <time>2020-06-22T09:44:03Z</time>
      </trkpt>
      <trkpt lat="42.4951" lon="2.23748">
        <ele>1248.76</ele>
        <time>2020-06-22T09:44:18Z</time>
      </trkpt>
      <trkpt lat="42.4951" lon="2.23755">
        <ele>1248.33</ele>
        <time>2020-06-22T09:44:34Z</time>
      </trkpt>
      <trkpt lat="42.49503" lon="2.23755">
        <ele>1247.84</ele>
        <time>2020-06-22T09:44:56Z</time>
      </trkpt>
      <trkpt lat="42.49497" lon="2.23756">
        <ele>1247.52</ele>
        <time>2020-06-22T09:45:10Z</time>
      </trkpt>
      <trkpt lat="42.49495" lon="2.2376">
        <ele>1247.06</ele>
        <time>2020-06-22T09:45:31Z</time>
      </trkpt>
      <trkpt lat="42.49488" lon="2.23756">
        <ele>1248.35</ele>
        <time>2020-06-22T09:45:51Z</time>
      </trkpt>
      <trkpt lat="42.49484" lon="2.23751">
        <ele>1247.95</ele>
        <time>2020-06-22T09:46:08Z</time>
      </trkpt>
      <trkpt lat="42.49483" lon="2.2375">
        <ele>1247.79</ele>
        <time>2020-06-22T09:46:15Z</time>
      </trkpt>
      <trkpt lat="42.49474" lon="2.2375">
        <ele>1248.96</ele>
        <time>2020-06-22T09:46:36Z</time>
      </trkpt>
      <trkpt lat="42.49466" lon="2.23758">
        <ele>1250.21</ele>
        <time>2020-06-22T09:46:55Z</time>
      </trkpt>
      <trkpt lat="42.49459" lon="2.23773">
        <ele>1252.14</ele>
        <time>2020-06-22T09:47:14Z</time>
      </trkpt>
      <trkpt lat="42.4945" lon="2.23785">
        <ele>1254.25</ele>
        <time>2020-06-22T09:47:33Z</time>
      </trkpt>
      <trkpt lat="42.4944" lon="2.23795">
        <ele>1254.53</ele>
        <time>2020-06-22T09:47:54Z</time>
      </trkpt>
      <trkpt lat="42.49433" lon="2.23807">
        <ele>1255.74</ele>
        <time>2020-06-22T09:48:11Z</time>
      </trkpt>
      <trkpt lat="42.49422" lon="2.23822">
        <ele>1257.03</ele>
        <time>2020-06-22T09:48:31Z</time>
      </trkpt>
      <trkpt lat="42.49414" lon="2.23834">
        <ele>1259.27</ele>
        <time>2020-06-22T09:48:50Z</time>
      </trkpt>
      <trkpt lat="42.49405" lon="2.23848">
        <ele>1260.4</ele>
        <time>2020-06-22T09:49:08Z</time>
      </trkpt>
      <trkpt lat="42.49394" lon="2.23862">
        <ele>1262.57</ele>
        <time>2020-06-22T09:49:28Z</time>
      </trkpt>
      <trkpt lat="42.49381" lon="2.2387">
        <ele>1263.78</ele>
        <time>2020-06-22T09:49:46Z</time>
      </trkpt>
      <trkpt lat="42.49371" lon="2.23884">
        <ele>1265.61</ele>
        <time>2020-06-22T09:50:08Z</time>
      </trkpt>
      <trkpt lat="42.49361" lon="2.23893">
        <ele>1266.82</ele>
        <time>2020-06-22T09:50:25Z</time>
      </trkpt>
      <trkpt lat="42.49351" lon="2.23899">
        <ele>1268.11</ele>
        <time>2020-06-22T09:50:42Z</time>
      </trkpt>
      <trkpt lat="42.49336" lon="2.23908">
        <ele>1269.27</ele>
        <time>2020-06-22T09:51:01Z</time>
      </trkpt>
      <trkpt lat="42.49323" lon="2.23914">
        <ele>1271.2</ele>
        <time>2020-06-22T09:51:21Z</time>
      </trkpt>
      <trkpt lat="42.49309" lon="2.23917">
        <ele>1272.2</ele>
        <time>2020-06-22T09:51:44Z</time>
      </trkpt>
      <trkpt lat="42.49296" lon="2.23913">
        <ele>1274.05</ele>
        <time>2020-06-22T09:52:04Z</time>
      </trkpt>
      <trkpt lat="42.49279" lon="2.2391">
        <ele>1275.77</ele>
        <time>2020-06-22T09:52:27Z</time>
      </trkpt>
      <trkpt lat="42.49264" lon="2.23905">
        <ele>1276.74</ele>
        <time>2020-06-22T09:52:48Z</time>
      </trkpt>
      <trkpt lat="42.4925" lon="2.23898">
        <ele>1278.58</ele>
        <time>2020-06-22T09:53:11Z</time>
      </trkpt>
      <trkpt lat="42.49253" lon="2.23894">
        <ele>1279.76</ele>
        <time>2020-06-22T09:53:31Z</time>
      </trkpt>
      <trkpt lat="42.49247" lon="2.23887">
        <ele>1282.45</ele>
        <time>2020-06-22T09:53:51Z</time>
      </trkpt>
      <trkpt lat="42.49239" lon="2.23885">
        <ele>1284.31</ele>
        <time>2020-06-22T09:54:10Z</time>
      </trkpt>
      <trkpt lat="42.49231" lon="2.23883">
        <ele>1286.58</ele>
        <time>2020-06-22T09:54:28Z</time>
      </trkpt>
      <trkpt lat="42.49227" lon="2.23886">
        <ele>1287.7</ele>
        <time>2020-06-22T09:54:49Z</time>
      </trkpt>
      <trkpt lat="42.49225" lon="2.23885">
        <ele>1285.88</ele>
        <time>2020-06-22T09:55:10Z</time>
      </trkpt>
      <trkpt lat="42.49225" lon="2.23887">
        <ele>1288.54</ele>
        <time>2020-06-22T09:55:12Z</time>
      </trkpt>
      <trkpt lat="42.49226" lon="2.23889">
        <ele>1285.05</ele>
        <time>2020-06-22T09:55:18Z</time>
      </trkpt>
      <trkpt lat="42.49226" lon="2.2389">
        <ele>1288.35</ele>
        <time>2020-06-22T09:55:19Z</time>
      </trkpt>
      <trkpt lat="42.49226" lon="2.2389">
        <ele>1288.32</ele>
        <time>2020-06-22T09:55:20Z</time>
      </trkpt>
      <trkpt lat="42.49225" lon="2.23893">
        <ele>1285.75</ele>
        <time>2020-06-22T09:55:24Z</time>
      </trkpt>
      <trkpt lat="42.49224" lon="2.23894">
        <ele>1288.21</ele>
        <time>2020-06-22T09:55:26Z</time>
      </trkpt>
      <trkpt lat="42.49224" lon="2.23895">
        <ele>1284.84</ele>
        <time>2020-06-22T09:55:29Z</time>
      </trkpt>
      <trkpt lat="42.49224" lon="2.23895">
        <ele>1284.82</ele>
        <time>2020-06-22T09:55:30Z</time>
      </trkpt>
      <trkpt lat="42.49224" lon="2.23895">
        <ele>1287.92</ele>
        <time>2020-06-22T09:55:31Z</time>
      </trkpt>
      <trkpt lat="42.49224" lon="2.23895">
        <ele>1287.91</ele>
        <time>2020-06-22T09:55:32Z</time>
      </trkpt>
      <trkpt lat="42.49223" lon="2.239">
        <ele>1284.59</ele>
        <time>2020-06-22T09:55:43Z</time>
      </trkpt>
      <trkpt lat="42.49224" lon="2.239">
        <ele>1287.91</ele>
        <time>2020-06-22T09:55:48Z</time>
      </trkpt>
      <trkpt lat="42.49223" lon="2.23902">
        <ele>1284.55</ele>
        <time>2020-06-22T09:55:53Z</time>
      </trkpt>
      <trkpt lat="42.49223" lon="2.23902">
        <ele>1284.55</ele>
        <time>2020-06-22T09:55:54Z</time>
      </trkpt>
      <trkpt lat="42.49223" lon="2.23901">
        <ele>1287.39</ele>
        <time>2020-06-22T09:55:56Z</time>
      </trkpt>
      <trkpt lat="42.49223" lon="2.23904">
        <ele>1287.24</ele>
        <time>2020-06-22T09:56:23Z</time>
      </trkpt>
      <trkpt lat="42.49223" lon="2.23897">
        <ele>1286.96</ele>
        <time>2020-06-22T09:56:47Z</time>
      </trkpt>
      <trkpt lat="42.49222" lon="2.2389">
        <ele>1286.73</ele>
        <time>2020-06-22T09:57:11Z</time>
      </trkpt>
      <trkpt lat="42.49218" lon="2.2389">
        <ele>1286.51</ele>
        <time>2020-06-22T09:57:46Z</time>
      </trkpt>
      <trkpt lat="42.49216" lon="2.2389">
        <ele>1284.12</ele>
        <time>2020-06-22T09:57:50Z</time>
      </trkpt>
      <trkpt lat="42.49207" lon="2.23897">
        <ele>1281.37</ele>
        <time>2020-06-22T09:58:08Z</time>
      </trkpt>
      <trkpt lat="42.49194" lon="2.23902">
        <ele>1280.83</ele>
        <time>2020-06-22T09:58:28Z</time>
      </trkpt>
      <trkpt lat="42.4919" lon="2.23899">
        <ele>1283.21</ele>
        <time>2020-06-22T09:58:34Z</time>
      </trkpt>
      <trkpt lat="42.49176" lon="2.23891">
        <ele>1285.83</ele>
        <time>2020-06-22T09:58:53Z</time>
      </trkpt>
      <trkpt lat="42.49162" lon="2.2389">
        <ele>1288.36</ele>
        <time>2020-06-22T09:59:12Z</time>
      </trkpt>
      <trkpt lat="42.4915" lon="2.23887">
        <ele>1291.87</ele>
        <time>2020-06-22T09:59:30Z</time>
      </trkpt>
      <trkpt lat="42.49141" lon="2.2389">
        <ele>1292.56</ele>
        <time>2020-06-22T09:59:49Z</time>
      </trkpt>
      <trkpt lat="42.4913" lon="2.23896">
        <ele>1294.17</ele>
        <time>2020-06-22T10:00:09Z</time>
      </trkpt>
      <trkpt lat="42.49119" lon="2.23902">
        <ele>1295.77</ele>
        <time>2020-06-22T10:00:29Z</time>
      </trkpt>
      <trkpt lat="42.49112" lon="2.23906">
        <ele>1296.62</ele>
        <time>2020-06-22T10:00:45Z</time>
      </trkpt>
      <trkpt lat="42.49102" lon="2.23916">
        <ele>1298.23</ele>
        <time>2020-06-22T10:01:05Z</time>
      </trkpt>
      <trkpt lat="42.49091" lon="2.23928">
        <ele>1300.62</ele>
        <time>2020-06-22T10:01:25Z</time>
      </trkpt>
      <trkpt lat="42.49082" lon="2.23941">
        <ele>1303.36</ele>
        <time>2020-06-22T10:01:43Z</time>
      </trkpt>
      <trkpt lat="42.49078" lon="2.23943">
        <ele>1303.22</ele>
        <time>2020-06-22T10:02:01Z</time>
      </trkpt>
      <trkpt lat="42.49067" lon="2.23953">
        <ele>1305.78</ele>
        <time>2020-06-22T10:02:19Z</time>
      </trkpt>
      <trkpt lat="42.49057" lon="2.23959">
        <ele>1308.4</ele>
        <time>2020-06-22T10:02:38Z</time>
      </trkpt>
      <trkpt lat="42.49045" lon="2.23963">
        <ele>1311.06</ele>
        <time>2020-06-22T10:02:57Z</time>
      </trkpt>
      <trkpt lat="42.49038" lon="2.2396">
        <ele>1311.85</ele>
        <time>2020-06-22T10:03:23Z</time>
      </trkpt>
      <trkpt lat="42.49036" lon="2.23957">
        <ele>1311.8</ele>
        <time>2020-06-22T10:03:49Z</time>
      </trkpt>
      <trkpt lat="42.49037" lon="2.23958">
        <ele>1311.79</ele>
        <time>2020-06-22T10:03:51Z</time>
      </trkpt>
      <trkpt lat="42.49037" lon="2.2396">
        <ele>1311.8</ele>
        <time>2020-06-22T10:03:53Z</time>
      </trkpt>
      <trkpt lat="42.4904" lon="2.23974">
        <ele>1311.77</ele>
        <time>2020-06-22T10:04:16Z</time>
      </trkpt>
      <trkpt lat="42.49041" lon="2.23973">
        <ele>1311.77</ele>
        <time>2020-06-22T10:04:38Z</time>
      </trkpt>
      <trkpt lat="42.49041" lon="2.23969">
        <ele>1311.83</ele>
        <time>2020-06-22T10:05:01Z</time>
      </trkpt>
      <trkpt lat="42.49028" lon="2.23968">
        <ele>1314.57</ele>
        <time>2020-06-22T10:05:17Z</time>
      </trkpt>
      <trkpt lat="42.49013" lon="2.23967">
        <ele>1317.27</ele>
        <time>2020-06-22T10:05:36Z</time>
      </trkpt>
      <trkpt lat="42.49003" lon="2.23958">
        <ele>1318.93</ele>
        <time>2020-06-22T10:05:51Z</time>
      </trkpt>
      <trkpt lat="42.48989" lon="2.23945">
        <ele>1321.65</ele>
        <time>2020-06-22T10:06:12Z</time>
      </trkpt>
      <trkpt lat="42.48979" lon="2.23936">
        <ele>1323.25</ele>
        <time>2020-06-22T10:06:29Z</time>
      </trkpt>
      <trkpt lat="42.48966" lon="2.23927">
        <ele>1326.59</ele>
        <time>2020-06-22T10:06:52Z</time>
      </trkpt>
      <trkpt lat="42.4895" lon="2.23924">
        <ele>1328.07</ele>
        <time>2020-06-22T10:07:08Z</time>
      </trkpt>
      <trkpt lat="42.48936" lon="2.23921">
        <ele>1330.48</ele>
        <time>2020-06-22T10:07:29Z</time>
      </trkpt>
      <trkpt lat="42.48932" lon="2.2391">
        <ele>1332.12</ele>
        <time>2020-06-22T10:07:48Z</time>
      </trkpt>
      <trkpt lat="42.48926" lon="2.239">
        <ele>1333.78</ele>
        <time>2020-06-22T10:08:06Z</time>
      </trkpt>
      <trkpt lat="42.48919" lon="2.23887">
        <ele>1336.19</ele>
        <time>2020-06-22T10:08:27Z</time>
      </trkpt>
      <trkpt lat="42.48911" lon="2.23881">
        <ele>1338.68</ele>
        <time>2020-06-22T10:08:46Z</time>
      </trkpt>
      <trkpt lat="42.489" lon="2.23868">
        <ele>1341.01</ele>
        <time>2020-06-22T10:09:08Z</time>
      </trkpt>
      <trkpt lat="42.48891" lon="2.23859">
        <ele>1342.51</ele>
        <time>2020-06-22T10:09:27Z</time>
      </trkpt>
      <trkpt lat="42.48886" lon="2.23853">
        <ele>1344.82</ele>
        <time>2020-06-22T10:09:44Z</time>
      </trkpt>
      <trkpt lat="42.48879" lon="2.23851">
        <ele>1345.51</ele>
        <time>2020-06-22T10:10:01Z</time>
      </trkpt>
      <trkpt lat="42.48875" lon="2.23843">
        <ele>1346.37</ele>
        <time>2020-06-22T10:10:24Z</time>
      </trkpt>
      <trkpt lat="42.4887" lon="2.23833">
        <ele>1347.21</ele>
        <time>2020-06-22T10:10:42Z</time>
      </trkpt>
      <trkpt lat="42.48859" lon="2.23824">
        <ele>1348.87</ele>
        <time>2020-06-22T10:11:01Z</time>
      </trkpt>
      <trkpt lat="42.48851" lon="2.23819">
        <ele>1350.44</ele>
        <time>2020-06-22T10:11:20Z</time>
      </trkpt>
      <trkpt lat="42.48845" lon="2.23812">
        <ele>1352.05</ele>
        <time>2020-06-22T10:11:38Z</time>
      </trkpt>
      <trkpt lat="42.48838" lon="2.23805">
        <ele>1353.74</ele>
        <time>2020-06-22T10:11:57Z</time>
      </trkpt>
      <trkpt lat="42.48832" lon="2.23799">
        <ele>1355.36</ele>
        <time>2020-06-22T10:12:14Z</time>
      </trkpt>
      <trkpt lat="42.48825" lon="2.23801">
        <ele>1357.03</ele>
        <time>2020-06-22T10:12:32Z</time>
      </trkpt>
      <trkpt lat="42.48814" lon="2.23801">
        <ele>1357.02</ele>
        <time>2020-06-22T10:12:50Z</time>
      </trkpt>
      <trkpt lat="42.48807" lon="2.238">
        <ele>1358.74</ele>
        <time>2020-06-22T10:13:07Z</time>
      </trkpt>
      <trkpt lat="42.48793" lon="2.23798">
        <ele>1360.47</ele>
        <time>2020-06-22T10:13:24Z</time>
      </trkpt>
      <trkpt lat="42.4878" lon="2.23791">
        <ele>1362.09</ele>
        <time>2020-06-22T10:13:43Z</time>
      </trkpt>
      <trkpt lat="42.48773" lon="2.23791">
        <ele>1364.78</ele>
        <time>2020-06-22T10:14:02Z</time>
      </trkpt>
      <trkpt lat="42.48767" lon="2.2379">
        <ele>1366.25</ele>
        <time>2020-06-22T10:14:22Z</time>
      </trkpt>
      <trkpt lat="42.48756" lon="2.23793">
        <ele>1367.93</ele>
        <time>2020-06-22T10:14:44Z</time>
      </trkpt>
      <trkpt lat="42.48745" lon="2.23801">
        <ele>1370.22</ele>
        <time>2020-06-22T10:15:05Z</time>
      </trkpt>
      <trkpt lat="42.48735" lon="2.23809">
        <ele>1372.47</ele>
        <time>2020-06-22T10:15:25Z</time>
      </trkpt>
      <trkpt lat="42.48727" lon="2.23811">
        <ele>1374.12</ele>
        <time>2020-06-22T10:15:44Z</time>
      </trkpt>
      <trkpt lat="42.4872" lon="2.23815">
        <ele>1375.94</ele>
        <time>2020-06-22T10:16:02Z</time>
      </trkpt>
      <trkpt lat="42.48717" lon="2.23813">
        <ele>1375.92</ele>
        <time>2020-06-22T10:16:27Z</time>
      </trkpt>
      <trkpt lat="42.48708" lon="2.23816">
        <ele>1377.64</ele>
        <time>2020-06-22T10:16:48Z</time>
      </trkpt>
      <trkpt lat="42.48705" lon="2.23816">
        <ele>1378.41</ele>
        <time>2020-06-22T10:17:05Z</time>
      </trkpt>
      <trkpt lat="42.48695" lon="2.23821">
        <ele>1380.26</ele>
        <time>2020-06-22T10:17:24Z</time>
      </trkpt>
      <trkpt lat="42.48682" lon="2.23827">
        <ele>1382.77</ele>
        <time>2020-06-22T10:17:44Z</time>
      </trkpt>
      <trkpt lat="42.48669" lon="2.23826">
        <ele>1384.31</ele>
        <time>2020-06-22T10:18:04Z</time>
      </trkpt>
      <trkpt lat="42.48656" lon="2.23821">
        <ele>1386.13</ele>
        <time>2020-06-22T10:18:22Z</time>
      </trkpt>
      <trkpt lat="42.48645" lon="2.23816">
        <ele>1387.81</ele>
        <time>2020-06-22T10:18:41Z</time>
      </trkpt>
      <trkpt lat="42.48633" lon="2.2381">
        <ele>1389.65</ele>
        <time>2020-06-22T10:19:02Z</time>
      </trkpt>
      <trkpt lat="42.48621" lon="2.23807">
        <ele>1392.25</ele>
        <time>2020-06-22T10:19:22Z</time>
      </trkpt>
      <trkpt lat="42.48608" lon="2.2381">
        <ele>1394.7</ele>
        <time>2020-06-22T10:19:42Z</time>
      </trkpt>
      <trkpt lat="42.48596" lon="2.23814">
        <ele>1397.16</ele>
        <time>2020-06-22T10:20:02Z</time>
      </trkpt>
      <trkpt lat="42.48581" lon="2.23815">
        <ele>1399.63</ele>
        <time>2020-06-22T10:20:23Z</time>
      </trkpt>
      <trkpt lat="42.48572" lon="2.23818">
        <ele>1401.59</ele>
        <time>2020-06-22T10:20:41Z</time>
      </trkpt>
      <trkpt lat="42.48573" lon="2.23822">
        <ele>1405.6</ele>
        <time>2020-06-22T10:20:54Z</time>
      </trkpt>
      <trkpt lat="42.48573" lon="2.23822">
        <ele>1405.6</ele>
        <time>2020-06-22T10:20:55Z</time>
      </trkpt>
      <trkpt lat="42.48572" lon="2.23824">
        <ele>1402.94</ele>
        <time>2020-06-22T10:20:57Z</time>
      </trkpt>
      <trkpt lat="42.48569" lon="2.23826">
        <ele>1400.37</ele>
        <time>2020-06-22T10:21:08Z</time>
      </trkpt>
      <trkpt lat="42.48569" lon="2.23826">
        <ele>1403.07</ele>
        <time>2020-06-22T10:21:10Z</time>
      </trkpt>
      <trkpt lat="42.4857" lon="2.23825">
        <ele>1399.78</ele>
        <time>2020-06-22T10:21:32Z</time>
      </trkpt>
      <trkpt lat="42.4857" lon="2.23825">
        <ele>1399.78</ele>
        <time>2020-06-22T10:21:33Z</time>
      </trkpt>
      <trkpt lat="42.4857" lon="2.23824">
        <ele>1402.86</ele>
        <time>2020-06-22T10:21:35Z</time>
      </trkpt>
      <trkpt lat="42.4857" lon="2.23824">
        <ele>1402.88</ele>
        <time>2020-06-22T10:21:36Z</time>
      </trkpt>
      <trkpt lat="42.48574" lon="2.2382">
        <ele>1402.89</ele>
        <time>2020-06-22T10:22:00Z</time>
      </trkpt>
      <trkpt lat="42.48575" lon="2.23818">
        <ele>1402.94</ele>
        <time>2020-06-22T10:22:25Z</time>
      </trkpt>
      <trkpt lat="42.48567" lon="2.23819">
        <ele>1403.01</ele>
        <time>2020-06-22T10:22:42Z</time>
      </trkpt>
      <trkpt lat="42.48556" lon="2.23815">
        <ele>1406.74</ele>
        <time>2020-06-22T10:22:59Z</time>
      </trkpt>
      <trkpt lat="42.48541" lon="2.23818">
        <ele>1408.66</ele>
        <time>2020-06-22T10:23:16Z</time>
      </trkpt>
      <trkpt lat="42.48527" lon="2.23822">
        <ele>1411.22</ele>
        <time>2020-06-22T10:23:36Z</time>
      </trkpt>
      <trkpt lat="42.48514" lon="2.23827">
        <ele>1413.76</ele>
        <time>2020-06-22T10:23:56Z</time>
      </trkpt>
      <trkpt lat="42.48504" lon="2.23829">
        <ele>1415.37</ele>
        <time>2020-06-22T10:24:14Z</time>
      </trkpt>
      <trkpt lat="42.48492" lon="2.23833">
        <ele>1416.88</ele>
        <time>2020-06-22T10:24:33Z</time>
      </trkpt>
      <trkpt lat="42.48483" lon="2.23839">
        <ele>1419.52</ele>
        <time>2020-06-22T10:24:53Z</time>
      </trkpt>
      <trkpt lat="42.48474" lon="2.23845">
        <ele>1421.35</ele>
        <time>2020-06-22T10:25:12Z</time>
      </trkpt>
      <trkpt lat="42.48462" lon="2.23859">
        <ele>1424.75</ele>
        <time>2020-06-22T10:25:36Z</time>
      </trkpt>
      <trkpt lat="42.48461" lon="2.2386">
        <ele>1424.74</ele>
        <time>2020-06-22T10:25:38Z</time>
      </trkpt>
      <trkpt lat="42.48454" lon="2.23867">
        <ele>1425.44</ele>
        <time>2020-06-22T10:26:00Z</time>
      </trkpt>
      <trkpt lat="42.48445" lon="2.23871">
        <ele>1427.95</ele>
        <time>2020-06-22T10:26:20Z</time>
      </trkpt>
      <trkpt lat="42.48446" lon="2.23881">
        <ele>1428.69</ele>
        <time>2020-06-22T10:26:46Z</time>
      </trkpt>
      <trkpt lat="42.48435" lon="2.23882">
        <ele>1430.36</ele>
        <time>2020-06-22T10:27:04Z</time>
      </trkpt>
      <trkpt lat="42.48426" lon="2.23887">
        <ele>1432.69</ele>
        <time>2020-06-22T10:27:24Z</time>
      </trkpt>
      <trkpt lat="42.48419" lon="2.23892">
        <ele>1434.27</ele>
        <time>2020-06-22T10:27:46Z</time>
      </trkpt>
      <trkpt lat="42.48408" lon="2.23894">
        <ele>1436.79</ele>
        <time>2020-06-22T10:28:03Z</time>
      </trkpt>
      <trkpt lat="42.48396" lon="2.23894">
        <ele>1438.47</ele>
        <time>2020-06-22T10:28:23Z</time>
      </trkpt>
      <trkpt lat="42.48385" lon="2.23893">
        <ele>1440.11</ele>
        <time>2020-06-22T10:28:40Z</time>
      </trkpt>
      <trkpt lat="42.48376" lon="2.239">
        <ele>1441.87</ele>
        <time>2020-06-22T10:28:57Z</time>
      </trkpt>
      <trkpt lat="42.48365" lon="2.239">
        <ele>1444.35</ele>
        <time>2020-06-22T10:29:16Z</time>
      </trkpt>
      <trkpt lat="42.48355" lon="2.23903">
        <ele>1446.02</ele>
        <time>2020-06-22T10:29:34Z</time>
      </trkpt>
      <trkpt lat="42.48349" lon="2.23908">
        <ele>1447.58</ele>
        <time>2020-06-22T10:29:53Z</time>
      </trkpt>
      <trkpt lat="42.48335" lon="2.23911">
        <ele>1449.33</ele>
        <time>2020-06-22T10:30:13Z</time>
      </trkpt>
      <trkpt lat="42.48326" lon="2.23919">
        <ele>1451.73</ele>
        <time>2020-06-22T10:30:35Z</time>
      </trkpt>
      <trkpt lat="42.48321" lon="2.23929">
        <ele>1453.37</ele>
        <time>2020-06-22T10:30:53Z</time>
      </trkpt>
      <trkpt lat="42.4831" lon="2.23942">
        <ele>1455.12</ele>
        <time>2020-06-22T10:31:12Z</time>
      </trkpt>
      <trkpt lat="42.483" lon="2.23947">
        <ele>1457.74</ele>
        <time>2020-06-22T10:31:30Z</time>
      </trkpt>
      <trkpt lat="42.48287" lon="2.23948">
        <ele>1460.11</ele>
        <time>2020-06-22T10:31:51Z</time>
      </trkpt>
      <trkpt lat="42.48275" lon="2.2395">
        <ele>1462.36</ele>
        <time>2020-06-22T10:32:09Z</time>
      </trkpt>
      <trkpt lat="42.48266" lon="2.23955">
        <ele>1464.66</ele>
        <time>2020-06-22T10:32:30Z</time>
      </trkpt>
      <trkpt lat="42.48252" lon="2.23955">
        <ele>1467.17</ele>
        <time>2020-06-22T10:32:51Z</time>
      </trkpt>
      <trkpt lat="42.48249" lon="2.23959">
        <ele>1467.87</ele>
        <time>2020-06-22T10:33:14Z</time>
      </trkpt>
      <trkpt lat="42.48248" lon="2.23959">
        <ele>1464.3</ele>
        <time>2020-06-22T10:33:21Z</time>
      </trkpt>
      <trkpt lat="42.48247" lon="2.23959">
        <ele>1468.67</ele>
        <time>2020-06-22T10:33:22Z</time>
      </trkpt>
      <trkpt lat="42.48247" lon="2.2396">
        <ele>1464.6</ele>
        <time>2020-06-22T10:33:24Z</time>
      </trkpt>
      <trkpt lat="42.48247" lon="2.2396">
        <ele>1467.81</ele>
        <time>2020-06-22T10:33:25Z</time>
      </trkpt>
      <trkpt lat="42.48246" lon="2.2396">
        <ele>1468.91</ele>
        <time>2020-06-22T10:33:27Z</time>
      </trkpt>
      <trkpt lat="42.48244" lon="2.23961">
        <ele>1468.85</ele>
        <time>2020-06-22T10:33:50Z</time>
      </trkpt>
      <trkpt lat="42.48244" lon="2.23958">
        <ele>1468.79</ele>
        <time>2020-06-22T10:34:17Z</time>
      </trkpt>
      <trkpt lat="42.48246" lon="2.23964">
        <ele>1468.77</ele>
        <time>2020-06-22T10:34:29Z</time>
      </trkpt>
      <trkpt lat="42.48247" lon="2.23968">
        <ele>1468.77</ele>
        <time>2020-06-22T10:34:33Z</time>
      </trkpt>
      <trkpt lat="42.48252" lon="2.23972">
        <ele>1468.73</ele>
        <time>2020-06-22T10:35:00Z</time>
      </trkpt>
      <trkpt lat="42.48254" lon="2.23975">
        <ele>1468.73</ele>
        <time>2020-06-22T10:35:25Z</time>
      </trkpt>
      <trkpt lat="42.4825" lon="2.23973">
        <ele>1468.79</ele>
        <time>2020-06-22T10:35:52Z</time>
      </trkpt>
      <trkpt lat="42.48251" lon="2.23977">
        <ele>1468.9</ele>
        <time>2020-06-22T10:36:19Z</time>
      </trkpt>
      <trkpt lat="42.48257" lon="2.23982">
        <ele>1469.03</ele>
        <time>2020-06-22T10:36:45Z</time>
      </trkpt>
      <trkpt lat="42.48256" lon="2.2398">
        <ele>1469.05</ele>
        <time>2020-06-22T10:36:49Z</time>
      </trkpt>
      <trkpt lat="42.48253" lon="2.23975">
        <ele>1469.07</ele>
        <time>2020-06-22T10:36:54Z</time>
      </trkpt>
      <trkpt lat="42.48248" lon="2.23966">
        <ele>1469.26</ele>
        <time>2020-06-22T10:37:24Z</time>
      </trkpt>
      <trkpt lat="42.48246" lon="2.23968">
        <ele>1469.4</ele>
        <time>2020-06-22T10:37:48Z</time>
      </trkpt>
      <trkpt lat="42.48245" lon="2.23968">
        <ele>1469.52</ele>
        <time>2020-06-22T10:38:13Z</time>
      </trkpt>
      <trkpt lat="42.48243" lon="2.23966">
        <ele>1469.64</ele>
        <time>2020-06-22T10:38:40Z</time>
      </trkpt>
      <trkpt lat="42.48239" lon="2.23966">
        <ele>1469.77</ele>
        <time>2020-06-22T10:39:06Z</time>
      </trkpt>
      <trkpt lat="42.48225" lon="2.23956">
        <ele>1472.19</ele>
        <time>2020-06-22T10:39:24Z</time>
      </trkpt>
      <trkpt lat="42.48214" lon="2.23948">
        <ele>1475.66</ele>
        <time>2020-06-22T10:39:44Z</time>
      </trkpt>
      <trkpt lat="42.48201" lon="2.23944">
        <ele>1477.64</ele>
        <time>2020-06-22T10:40:05Z</time>
      </trkpt>
      <trkpt lat="42.48184" lon="2.23942">
        <ele>1480.26</ele>
        <time>2020-06-22T10:40:28Z</time>
      </trkpt>
      <trkpt lat="42.48169" lon="2.23941">
        <ele>1482.85</ele>
        <time>2020-06-22T10:40:49Z</time>
      </trkpt>
      <trkpt lat="42.48153" lon="2.2394">
        <ele>1485.42</ele>
        <time>2020-06-22T10:41:08Z</time>
      </trkpt>
      <trkpt lat="42.48137" lon="2.23938">
        <ele>1487.26</ele>
        <time>2020-06-22T10:41:27Z</time>
      </trkpt>
      <trkpt lat="42.48123" lon="2.2394">
        <ele>1489.72</ele>
        <time>2020-06-22T10:41:46Z</time>
      </trkpt>
      <trkpt lat="42.48108" lon="2.23946">
        <ele>1492.27</ele>
        <time>2020-06-22T10:42:07Z</time>
      </trkpt>
      <trkpt lat="42.48105" lon="2.23945">
        <ele>1492.26</ele>
        <time>2020-06-22T10:42:09Z</time>
      </trkpt>
      <trkpt lat="42.48091" lon="2.23936">
        <ele>1494.85</ele>
        <time>2020-06-22T10:42:27Z</time>
      </trkpt>
      <trkpt lat="42.4808" lon="2.23942">
        <ele>1498.15</ele>
        <time>2020-06-22T10:42:45Z</time>
      </trkpt>
      <trkpt lat="42.48066" lon="2.23945">
        <ele>1500.55</ele>
        <time>2020-06-22T10:43:03Z</time>
      </trkpt>
      <trkpt lat="42.48054" lon="2.23949">
        <ele>1502.9</ele>
        <time>2020-06-22T10:43:22Z</time>
      </trkpt>
      <trkpt lat="42.48043" lon="2.23953">
        <ele>1506.26</ele>
        <time>2020-06-22T10:43:43Z</time>
      </trkpt>
      <trkpt lat="42.48032" lon="2.23958">
        <ele>1507.91</ele>
        <time>2020-06-22T10:44:01Z</time>
      </trkpt>
      <trkpt lat="42.48023" lon="2.23965">
        <ele>1509.46</ele>
        <time>2020-06-22T10:44:19Z</time>
      </trkpt>
      <trkpt lat="42.48013" lon="2.23975">
        <ele>1511.74</ele>
        <time>2020-06-22T10:44:38Z</time>
      </trkpt>
      <trkpt lat="42.47998" lon="2.23973">
        <ele>1513.36</ele>
        <time>2020-06-22T10:44:55Z</time>
      </trkpt>
      <trkpt lat="42.47984" lon="2.23969">
        <ele>1515.73</ele>
        <time>2020-06-22T10:45:15Z</time>
      </trkpt>
      <trkpt lat="42.47972" lon="2.23966">
        <ele>1517.52</ele>
        <time>2020-06-22T10:45:32Z</time>
      </trkpt>
      <trkpt lat="42.47956" lon="2.23971">
        <ele>1520.64</ele>
        <time>2020-06-22T10:45:53Z</time>
      </trkpt>
      <trkpt lat="42.47952" lon="2.23973">
        <ele>1520.45</ele>
        <time>2020-06-22T10:46:02Z</time>
      </trkpt>
      <trkpt lat="42.47935" lon="2.23974">
        <ele>1523</ele>
        <time>2020-06-22T10:46:24Z</time>
      </trkpt>
      <trkpt lat="42.47925" lon="2.23978">
        <ele>1524.52</ele>
        <time>2020-06-22T10:46:45Z</time>
      </trkpt>
      <trkpt lat="42.47923" lon="2.2398">
        <ele>1525.3</ele>
        <time>2020-06-22T10:46:49Z</time>
      </trkpt>
      <trkpt lat="42.47904" lon="2.23989">
        <ele>1526.91</ele>
        <time>2020-06-22T10:47:13Z</time>
      </trkpt>
      <trkpt lat="42.4789" lon="2.23993">
        <ele>1529.25</ele>
        <time>2020-06-22T10:47:36Z</time>
      </trkpt>
      <trkpt lat="42.47877" lon="2.23998">
        <ele>1531.65</ele>
        <time>2020-06-22T10:47:53Z</time>
      </trkpt>
      <trkpt lat="42.47861" lon="2.23997">
        <ele>1534.54</ele>
        <time>2020-06-22T10:48:18Z</time>
      </trkpt>
      <trkpt lat="42.47848" lon="2.23992">
        <ele>1537.52</ele>
        <time>2020-06-22T10:48:39Z</time>
      </trkpt>
      <trkpt lat="42.47836" lon="2.23996">
        <ele>1538.92</ele>
        <time>2020-06-22T10:48:59Z</time>
      </trkpt>
      <trkpt lat="42.47833" lon="2.23995">
        <ele>1539.47</ele>
        <time>2020-06-22T10:49:09Z</time>
      </trkpt>
      <trkpt lat="42.47827" lon="2.23987">
        <ele>1539.13</ele>
        <time>2020-06-22T10:49:35Z</time>
      </trkpt>
      <trkpt lat="42.47818" lon="2.23992">
        <ele>1541.52</ele>
        <time>2020-06-22T10:49:53Z</time>
      </trkpt>
      <trkpt lat="42.47805" lon="2.23991">
        <ele>1543.92</ele>
        <time>2020-06-22T10:50:12Z</time>
      </trkpt>
      <trkpt lat="42.47797" lon="2.23988">
        <ele>1545.36</ele>
        <time>2020-06-22T10:50:30Z</time>
      </trkpt>
      <trkpt lat="42.47791" lon="2.23992">
        <ele>1546.11</ele>
        <time>2020-06-22T10:50:38Z</time>
      </trkpt>
      <trkpt lat="42.47778" lon="2.23987">
        <ele>1548.2</ele>
        <time>2020-06-22T10:50:54Z</time>
      </trkpt>
      <trkpt lat="42.47762" lon="2.23992">
        <ele>1550.19</ele>
        <time>2020-06-22T10:51:13Z</time>
      </trkpt>
      <trkpt lat="42.47753" lon="2.2399">
        <ele>1551.52</ele>
        <time>2020-06-22T10:51:25Z</time>
      </trkpt>
      <trkpt lat="42.47742" lon="2.23998">
        <ele>1552.87</ele>
        <time>2020-06-22T10:51:45Z</time>
      </trkpt>
      <trkpt lat="42.47732" lon="2.24001">
        <ele>1554.21</ele>
        <time>2020-06-22T10:52:04Z</time>
      </trkpt>
      <trkpt lat="42.47725" lon="2.24004">
        <ele>1556.35</ele>
        <time>2020-06-22T10:52:19Z</time>
      </trkpt>
      <trkpt lat="42.47723" lon="2.24006">
        <ele>1557.89</ele>
        <time>2020-06-22T10:52:31Z</time>
      </trkpt>
      <trkpt lat="42.47723" lon="2.24008">
        <ele>1558.56</ele>
        <time>2020-06-22T10:52:37Z</time>
      </trkpt>
      <trkpt lat="42.47711" lon="2.24015">
        <ele>1559.9</ele>
        <time>2020-06-22T10:52:59Z</time>
      </trkpt>
      <trkpt lat="42.47694" lon="2.24004">
        <ele>1562.4</ele>
        <time>2020-06-22T10:53:18Z</time>
      </trkpt>
      <trkpt lat="42.47681" lon="2.24001">
        <ele>1564.6</ele>
        <time>2020-06-22T10:53:36Z</time>
      </trkpt>
      <trkpt lat="42.47664" lon="2.23995">
        <ele>1566.29</ele>
        <time>2020-06-22T10:53:55Z</time>
      </trkpt>
      <trkpt lat="42.47662" lon="2.23992">
        <ele>1566.3</ele>
        <time>2020-06-22T10:53:58Z</time>
      </trkpt>
      <trkpt lat="42.47654" lon="2.23986">
        <ele>1567.81</ele>
        <time>2020-06-22T10:54:13Z</time>
      </trkpt>
      <trkpt lat="42.47636" lon="2.23983">
        <ele>1569.39</ele>
        <time>2020-06-22T10:54:34Z</time>
      </trkpt>
      <trkpt lat="42.47624" lon="2.23976">
        <ele>1571.12</ele>
        <time>2020-06-22T10:54:52Z</time>
      </trkpt>
      <trkpt lat="42.47614" lon="2.2397">
        <ele>1571.93</ele>
        <time>2020-06-22T10:55:11Z</time>
      </trkpt>
      <trkpt lat="42.47609" lon="2.23966">
        <ele>1571.9</ele>
        <time>2020-06-22T10:55:24Z</time>
      </trkpt>
      <trkpt lat="42.47606" lon="2.23964">
        <ele>1572.76</ele>
        <time>2020-06-22T10:55:49Z</time>
      </trkpt>
      <trkpt lat="42.47605" lon="2.2397">
        <ele>1572.75</ele>
        <time>2020-06-22T10:56:13Z</time>
      </trkpt>
      <trkpt lat="42.47605" lon="2.23971">
        <ele>1572.76</ele>
        <time>2020-06-22T10:56:14Z</time>
      </trkpt>
      <trkpt lat="42.47602" lon="2.23964">
        <ele>1572.74</ele>
        <time>2020-06-22T10:56:34Z</time>
      </trkpt>
      <trkpt lat="42.47603" lon="2.23959">
        <ele>1572.75</ele>
        <time>2020-06-22T10:56:52Z</time>
      </trkpt>
      <trkpt lat="42.47601" lon="2.23948">
        <ele>1572.84</ele>
        <time>2020-06-22T10:57:18Z</time>
      </trkpt>
      <trkpt lat="42.4759" lon="2.23946">
        <ele>1574.87</ele>
        <time>2020-06-22T10:57:36Z</time>
      </trkpt>
      <trkpt lat="42.47583" lon="2.23945">
        <ele>1577.5</ele>
        <time>2020-06-22T10:57:57Z</time>
      </trkpt>
      <trkpt lat="42.47575" lon="2.23952">
        <ele>1579.32</ele>
        <time>2020-06-22T10:58:18Z</time>
      </trkpt>
      <trkpt lat="42.47567" lon="2.23951">
        <ele>1582.06</ele>
        <time>2020-06-22T10:58:38Z</time>
      </trkpt>
      <trkpt lat="42.47558" lon="2.23955">
        <ele>1583.04</ele>
        <time>2020-06-22T10:58:57Z</time>
      </trkpt>
      <trkpt lat="42.47547" lon="2.23957">
        <ele>1584.75</ele>
        <time>2020-06-22T10:59:16Z</time>
      </trkpt>
      <trkpt lat="42.47534" lon="2.23957">
        <ele>1587.33</ele>
        <time>2020-06-22T10:59:36Z</time>
      </trkpt>
      <trkpt lat="42.4752" lon="2.23961">
        <ele>1590.4</ele>
        <time>2020-06-22T10:59:55Z</time>
      </trkpt>
      <trkpt lat="42.4751" lon="2.23958">
        <ele>1592.06</ele>
        <time>2020-06-22T11:00:15Z</time>
      </trkpt>
      <trkpt lat="42.47504" lon="2.23959">
        <ele>1592.89</ele>
        <time>2020-06-22T11:00:35Z</time>
      </trkpt>
      <trkpt lat="42.47499" lon="2.23961">
        <ele>1593.13</ele>
        <time>2020-06-22T11:01:08Z</time>
      </trkpt>
      <trkpt lat="42.47498" lon="2.23962">
        <ele>1593.34</ele>
        <time>2020-06-22T11:01:34Z</time>
      </trkpt>
      <trkpt lat="42.47488" lon="2.23957">
        <ele>1594.44</ele>
        <time>2020-06-22T11:01:58Z</time>
      </trkpt>
      <trkpt lat="42.47479" lon="2.23944">
        <ele>1596.1</ele>
        <time>2020-06-22T11:02:16Z</time>
      </trkpt>
      <trkpt lat="42.47466" lon="2.23936">
        <ele>1598.73</ele>
        <time>2020-06-22T11:02:35Z</time>
      </trkpt>
      <trkpt lat="42.47455" lon="2.23928">
        <ele>1600.55</ele>
        <time>2020-06-22T11:02:54Z</time>
      </trkpt>
      <trkpt lat="42.47441" lon="2.2392">
        <ele>1602.31</ele>
        <time>2020-06-22T11:03:12Z</time>
      </trkpt>
      <trkpt lat="42.4743" lon="2.23912">
        <ele>1604.03</ele>
        <time>2020-06-22T11:03:33Z</time>
      </trkpt>
      <trkpt lat="42.47419" lon="2.23905">
        <ele>1606.05</ele>
        <time>2020-06-22T11:03:52Z</time>
      </trkpt>
      <trkpt lat="42.47403" lon="2.23908">
        <ele>1608.54</ele>
        <time>2020-06-22T11:04:12Z</time>
      </trkpt>
      <trkpt lat="42.47387" lon="2.23904">
        <ele>1610.3</ele>
        <time>2020-06-22T11:04:33Z</time>
      </trkpt>
      <trkpt lat="42.47373" lon="2.23908">
        <ele>1613.05</ele>
        <time>2020-06-22T11:04:51Z</time>
      </trkpt>
      <trkpt lat="42.47362" lon="2.23908">
        <ele>1614.02</ele>
        <time>2020-06-22T11:05:09Z</time>
      </trkpt>
      <trkpt lat="42.47348" lon="2.23906">
        <ele>1616.7</ele>
        <time>2020-06-22T11:05:27Z</time>
      </trkpt>
      <trkpt lat="42.47334" lon="2.23901">
        <ele>1618.74</ele>
        <time>2020-06-22T11:05:46Z</time>
      </trkpt>
      <trkpt lat="42.47317" lon="2.23888">
        <ele>1620.6</ele>
        <time>2020-06-22T11:06:08Z</time>
      </trkpt>
      <trkpt lat="42.47305" lon="2.23884">
        <ele>1623.34</ele>
        <time>2020-06-22T11:06:28Z</time>
      </trkpt>
      <trkpt lat="42.47294" lon="2.23879">
        <ele>1624.29</ele>
        <time>2020-06-22T11:06:49Z</time>
      </trkpt>
      <trkpt lat="42.47283" lon="2.23873">
        <ele>1626.86</ele>
        <time>2020-06-22T11:07:08Z</time>
      </trkpt>
      <trkpt lat="42.47275" lon="2.23864">
        <ele>1627.75</ele>
        <time>2020-06-22T11:07:26Z</time>
      </trkpt>
      <trkpt lat="42.47269" lon="2.23863">
        <ele>1628.63</ele>
        <time>2020-06-22T11:07:41Z</time>
      </trkpt>
      <trkpt lat="42.47259" lon="2.23853">
        <ele>1630.51</ele>
        <time>2020-06-22T11:08:01Z</time>
      </trkpt>
      <trkpt lat="42.4725" lon="2.23843">
        <ele>1632.27</ele>
        <time>2020-06-22T11:08:19Z</time>
      </trkpt>
      <trkpt lat="42.47245" lon="2.23835">
        <ele>1634.06</ele>
        <time>2020-06-22T11:08:36Z</time>
      </trkpt>
      <trkpt lat="42.47242" lon="2.23826">
        <ele>1636.7</ele>
        <time>2020-06-22T11:08:55Z</time>
      </trkpt>
      <trkpt lat="42.47242" lon="2.23819">
        <ele>1636.94</ele>
        <time>2020-06-22T11:09:24Z</time>
      </trkpt>
      <trkpt lat="42.47242" lon="2.2382">
        <ele>1637.17</ele>
        <time>2020-06-22T11:09:54Z</time>
      </trkpt>
      <trkpt lat="42.4724" lon="2.23822">
        <ele>1637.39</ele>
        <time>2020-06-22T11:10:24Z</time>
      </trkpt>
      <trkpt lat="42.47242" lon="2.23823">
        <ele>1637.57</ele>
        <time>2020-06-22T11:10:49Z</time>
      </trkpt>
      <trkpt lat="42.47242" lon="2.23822">
        <ele>1637.77</ele>
        <time>2020-06-22T11:11:17Z</time>
      </trkpt>
      <trkpt lat="42.47242" lon="2.23816">
        <ele>1638.82</ele>
        <time>2020-06-22T11:11:42Z</time>
      </trkpt>
      <trkpt lat="42.4724" lon="2.23807">
        <ele>1642.29</ele>
        <time>2020-06-22T11:11:59Z</time>
      </trkpt>
      <trkpt lat="42.47232" lon="2.23799">
        <ele>1643.07</ele>
        <time>2020-06-22T11:12:16Z</time>
      </trkpt>
      <trkpt lat="42.4723" lon="2.23784">
        <ele>1645.83</ele>
        <time>2020-06-22T11:12:34Z</time>
      </trkpt>
      <trkpt lat="42.4723" lon="2.23774">
        <ele>1649.58</ele>
        <time>2020-06-22T11:12:50Z</time>
      </trkpt>
      <trkpt lat="42.47232" lon="2.23768">
        <ele>1652.21</ele>
        <time>2020-06-22T11:13:08Z</time>
      </trkpt>
      <trkpt lat="42.47239" lon="2.23768">
        <ele>1655.93</ele>
        <time>2020-06-22T11:13:26Z</time>
      </trkpt>
      <trkpt lat="42.4724" lon="2.23766">
        <ele>1657.53</ele>
        <time>2020-06-22T11:13:50Z</time>
      </trkpt>
      <trkpt lat="42.4724" lon="2.23755">
        <ele>1659.46</ele>
        <time>2020-06-22T11:14:13Z</time>
      </trkpt>
      <trkpt lat="42.47237" lon="2.23748">
        <ele>1663.43</ele>
        <time>2020-06-22T11:14:35Z</time>
      </trkpt>
      <trkpt lat="42.47239" lon="2.23739">
        <ele>1666.17</ele>
        <time>2020-06-22T11:14:57Z</time>
      </trkpt>
      <trkpt lat="42.47236" lon="2.23729">
        <ele>1668.74</ele>
        <time>2020-06-22T11:15:21Z</time>
      </trkpt>
      <trkpt lat="42.4723" lon="2.23724">
        <ele>1671.23</ele>
        <time>2020-06-22T11:15:42Z</time>
      </trkpt>
      <trkpt lat="42.47227" lon="2.2372">
        <ele>1673.85</ele>
        <time>2020-06-22T11:16:03Z</time>
      </trkpt>
      <trkpt lat="42.47229" lon="2.23721">
        <ele>1673.93</ele>
        <time>2020-06-22T11:16:32Z</time>
      </trkpt>
      <trkpt lat="42.4723" lon="2.23717">
        <ele>1674.04</ele>
        <time>2020-06-22T11:17:02Z</time>
      </trkpt>
      <trkpt lat="42.47228" lon="2.23712">
        <ele>1675.88</ele>
        <time>2020-06-22T11:17:18Z</time>
      </trkpt>
      <trkpt lat="42.47218" lon="2.23709">
        <ele>1678.64</ele>
        <time>2020-06-22T11:17:36Z</time>
      </trkpt>
      <trkpt lat="42.47205" lon="2.23701">
        <ele>1678.71</ele>
        <time>2020-06-22T11:17:58Z</time>
      </trkpt>
      <trkpt lat="42.47194" lon="2.23695">
        <ele>1680.7</ele>
        <time>2020-06-22T11:18:15Z</time>
      </trkpt>
      <trkpt lat="42.4718" lon="2.2369">
        <ele>1682.53</ele>
        <time>2020-06-22T11:18:36Z</time>
      </trkpt>
      <trkpt lat="42.47169" lon="2.2369">
        <ele>1682.63</ele>
        <time>2020-06-22T11:18:55Z</time>
      </trkpt>
      <trkpt lat="42.47157" lon="2.23687">
        <ele>1684.59</ele>
        <time>2020-06-22T11:19:14Z</time>
      </trkpt>
      <trkpt lat="42.47156" lon="2.23687">
        <ele>1688.13</ele>
        <time>2020-06-22T11:19:28Z</time>
      </trkpt>
      <trkpt lat="42.4715" lon="2.23684">
        <ele>1690.76</ele>
        <time>2020-06-22T11:19:47Z</time>
      </trkpt>
      <trkpt lat="42.47142" lon="2.23675">
        <ele>1693.47</ele>
        <time>2020-06-22T11:20:07Z</time>
      </trkpt>
      <trkpt lat="42.47143" lon="2.23671">
        <ele>1694.46</ele>
        <time>2020-06-22T11:20:25Z</time>
      </trkpt>
      <trkpt lat="42.47143" lon="2.23671">
        <ele>1694.55</ele>
        <time>2020-06-22T11:20:43Z</time>
      </trkpt>
      <trkpt lat="42.47142" lon="2.23673">
        <ele>1694.75</ele>
        <time>2020-06-22T11:21:17Z</time>
      </trkpt>
      <trkpt lat="42.47137" lon="2.23671">
        <ele>1694.96</ele>
        <time>2020-06-22T11:21:53Z</time>
      </trkpt>
      <trkpt lat="42.47135" lon="2.23667">
        <ele>1695.13</ele>
        <time>2020-06-22T11:22:25Z</time>
      </trkpt>
      <trkpt lat="42.47136" lon="2.23672">
        <ele>1695.3</ele>
        <time>2020-06-22T11:22:54Z</time>
      </trkpt>
      <trkpt lat="42.47136" lon="2.23677">
        <ele>1695.46</ele>
        <time>2020-06-22T11:23:20Z</time>
      </trkpt>
      <trkpt lat="42.47134" lon="2.23677">
        <ele>1695.64</ele>
        <time>2020-06-22T11:23:46Z</time>
      </trkpt>
      <trkpt lat="42.47135" lon="2.23673">
        <ele>1695.84</ele>
        <time>2020-06-22T11:24:11Z</time>
      </trkpt>
      <trkpt lat="42.47142" lon="2.23678">
        <ele>1696.08</ele>
        <time>2020-06-22T11:24:40Z</time>
      </trkpt>
      <trkpt lat="42.4714" lon="2.23674">
        <ele>1696.32</ele>
        <time>2020-06-22T11:25:06Z</time>
      </trkpt>
      <trkpt lat="42.47137" lon="2.2367">
        <ele>1696.61</ele>
        <time>2020-06-22T11:25:35Z</time>
      </trkpt>
      <trkpt lat="42.4714" lon="2.2367">
        <ele>1696.93</ele>
        <time>2020-06-22T11:26:06Z</time>
      </trkpt>
      <trkpt lat="42.4714" lon="2.23672">
        <ele>1697.3</ele>
        <time>2020-06-22T11:26:41Z</time>
      </trkpt>
      <trkpt lat="42.47138" lon="2.23671">
        <ele>1697.62</ele>
        <time>2020-06-22T11:27:11Z</time>
      </trkpt>
      <trkpt lat="42.47136" lon="2.2367">
        <ele>1697.94</ele>
        <time>2020-06-22T11:27:40Z</time>
      </trkpt>
      <trkpt lat="42.47137" lon="2.23671">
        <ele>1698.1</ele>
        <time>2020-06-22T11:27:55Z</time>
      </trkpt>
      <trkpt lat="42.47139" lon="2.23672">
        <ele>1698.42</ele>
        <time>2020-06-22T11:28:25Z</time>
      </trkpt>
      <trkpt lat="42.47139" lon="2.23673">
        <ele>1698.73</ele>
        <time>2020-06-22T11:28:56Z</time>
      </trkpt>
      <trkpt lat="42.47136" lon="2.23672">
        <ele>1699.04</ele>
        <time>2020-06-22T11:29:26Z</time>
      </trkpt>
      <trkpt lat="42.47141" lon="2.23678">
        <ele>1699.39</ele>
        <time>2020-06-22T11:29:59Z</time>
      </trkpt>
      <trkpt lat="42.47144" lon="2.2368">
        <ele>1699.68</ele>
        <time>2020-06-22T11:30:29Z</time>
      </trkpt>
      <trkpt lat="42.47137" lon="2.23671">
        <ele>1699.94</ele>
        <time>2020-06-22T11:30:57Z</time>
      </trkpt>
      <trkpt lat="42.47135" lon="2.23668">
        <ele>1700.17</ele>
        <time>2020-06-22T11:31:25Z</time>
      </trkpt>
      <trkpt lat="42.47138" lon="2.23674">
        <ele>1700.39</ele>
        <time>2020-06-22T11:31:55Z</time>
      </trkpt>
      <trkpt lat="42.4714" lon="2.2368">
        <ele>1700.62</ele>
        <time>2020-06-22T11:32:25Z</time>
      </trkpt>
      <trkpt lat="42.47142" lon="2.23682">
        <ele>1700.83</ele>
        <time>2020-06-22T11:32:51Z</time>
      </trkpt>
      <trkpt lat="42.47143" lon="2.23683">
        <ele>1701.06</ele>
        <time>2020-06-22T11:33:19Z</time>
      </trkpt>
      <trkpt lat="42.4714" lon="2.23679">
        <ele>1701.31</ele>
        <time>2020-06-22T11:33:49Z</time>
      </trkpt>
      <trkpt lat="42.47138" lon="2.2368">
        <ele>1701.53</ele>
        <time>2020-06-22T11:34:19Z</time>
      </trkpt>
      <trkpt lat="42.47136" lon="2.23678">
        <ele>1701.81</ele>
        <time>2020-06-22T11:34:49Z</time>
      </trkpt>
      <trkpt lat="42.47138" lon="2.23677">
        <ele>1702.06</ele>
        <time>2020-06-22T11:35:19Z</time>
      </trkpt>
      <trkpt lat="42.47134" lon="2.23672">
        <ele>1702.3</ele>
        <time>2020-06-22T11:35:46Z</time>
      </trkpt>
      <trkpt lat="42.47138" lon="2.23672">
        <ele>1702.54</ele>
        <time>2020-06-22T11:36:13Z</time>
      </trkpt>
      <trkpt lat="42.47139" lon="2.23675">
        <ele>1702.74</ele>
        <time>2020-06-22T11:36:40Z</time>
      </trkpt>
      <trkpt lat="42.47139" lon="2.23673">
        <ele>1702.96</ele>
        <time>2020-06-22T11:37:09Z</time>
      </trkpt>
      <trkpt lat="42.47136" lon="2.23673">
        <ele>1703.21</ele>
        <time>2020-06-22T11:37:42Z</time>
      </trkpt>
      <trkpt lat="42.47139" lon="2.23676">
        <ele>1703.63</ele>
        <time>2020-06-22T11:38:25Z</time>
      </trkpt>
      <trkpt lat="42.47143" lon="2.23679">
        <ele>1704.12</ele>
        <time>2020-06-22T11:39:15Z</time>
      </trkpt>
      <trkpt lat="42.47145" lon="2.23678">
        <ele>1704.45</ele>
        <time>2020-06-22T11:39:50Z</time>
      </trkpt>
      <trkpt lat="42.47141" lon="2.23675">
        <ele>1704.69</ele>
        <time>2020-06-22T11:40:18Z</time>
      </trkpt>
      <trkpt lat="42.47144" lon="2.23684">
        <ele>1704.96</ele>
        <time>2020-06-22T11:40:49Z</time>
      </trkpt>
      <trkpt lat="42.47143" lon="2.2368">
        <ele>1705.21</ele>
        <time>2020-06-22T11:41:19Z</time>
      </trkpt>
      <trkpt lat="42.47145" lon="2.23686">
        <ele>1705.5</ele>
        <time>2020-06-22T11:41:50Z</time>
      </trkpt>
      <trkpt lat="42.47145" lon="2.23684">
        <ele>1705.79</ele>
        <time>2020-06-22T11:42:22Z</time>
      </trkpt>
      <trkpt lat="42.47145" lon="2.23683">
        <ele>1706.06</ele>
        <time>2020-06-22T11:42:51Z</time>
      </trkpt>
      <trkpt lat="42.47144" lon="2.2368">
        <ele>1706.31</ele>
        <time>2020-06-22T11:43:19Z</time>
      </trkpt>
      <trkpt lat="42.47142" lon="2.23678">
        <ele>1706.56</ele>
        <time>2020-06-22T11:43:50Z</time>
      </trkpt>
      <trkpt lat="42.47143" lon="2.23679">
        <ele>1706.78</ele>
        <time>2020-06-22T11:44:18Z</time>
      </trkpt>
      <trkpt lat="42.47141" lon="2.23676">
        <ele>1707.18</ele>
        <time>2020-06-22T11:45:11Z</time>
      </trkpt>
      <trkpt lat="42.47141" lon="2.23678">
        <ele>1707.41</ele>
        <time>2020-06-22T11:45:43Z</time>
      </trkpt>
      <trkpt lat="42.47141" lon="2.23678">
        <ele>1707.69</ele>
        <time>2020-06-22T11:46:25Z</time>
      </trkpt>
      <trkpt lat="42.47141" lon="2.23678">
        <ele>1707.77</ele>
        <time>2020-06-22T11:46:38Z</time>
      </trkpt>
      <trkpt lat="42.47141" lon="2.23678">
        <ele>1708.04</ele>
        <time>2020-06-22T11:47:20Z</time>
      </trkpt>
      <trkpt lat="42.47141" lon="2.23673">
        <ele>1705.3</ele>
        <time>2020-06-22T11:47:52Z</time>
      </trkpt>
      <trkpt lat="42.47141" lon="2.23673">
        <ele>1707.59</ele>
        <time>2020-06-22T11:47:55Z</time>
      </trkpt>
      <trkpt lat="42.4714" lon="2.23671">
        <ele>1708.99</ele>
        <time>2020-06-22T11:47:58Z</time>
      </trkpt>
      <trkpt lat="42.47139" lon="2.23669">
        <ele>1706.26</ele>
        <time>2020-06-22T11:48:13Z</time>
      </trkpt>
      <trkpt lat="42.47139" lon="2.2367">
        <ele>1706.22</ele>
        <time>2020-06-22T11:48:14Z</time>
      </trkpt>
      <trkpt lat="42.47138" lon="2.23673">
        <ele>1709.79</ele>
        <time>2020-06-22T11:48:18Z</time>
      </trkpt>
      <trkpt lat="42.47138" lon="2.23674">
        <ele>1709.8</ele>
        <time>2020-06-22T11:48:19Z</time>
      </trkpt>
      <trkpt lat="42.47138" lon="2.23676">
        <ele>1700.4</ele>
        <time>2020-06-22T11:48:23Z</time>
      </trkpt>
      <trkpt lat="42.47138" lon="2.23676">
        <ele>1708.71</ele>
        <time>2020-06-22T11:48:24Z</time>
      </trkpt>
      <trkpt lat="42.47137" lon="2.23676">
        <ele>1703.83</ele>
        <time>2020-06-22T11:48:25Z</time>
      </trkpt>
      <trkpt lat="42.47137" lon="2.23677">
        <ele>1707.54</ele>
        <time>2020-06-22T11:48:26Z</time>
      </trkpt>
      <trkpt lat="42.47137" lon="2.23677">
        <ele>1710.16</ele>
        <time>2020-06-22T11:48:29Z</time>
      </trkpt>
      <trkpt lat="42.47136" lon="2.23677">
        <ele>1707.6</ele>
        <time>2020-06-22T11:48:32Z</time>
      </trkpt>
      <trkpt lat="42.47136" lon="2.23677">
        <ele>1700.13</ele>
        <time>2020-06-22T11:48:36Z</time>
      </trkpt>
      <trkpt lat="42.47136" lon="2.23678">
        <ele>1708.01</ele>
        <time>2020-06-22T11:48:37Z</time>
      </trkpt>
      <trkpt lat="42.47136" lon="2.23677">
        <ele>1703.42</ele>
        <time>2020-06-22T11:48:43Z</time>
      </trkpt>
      <trkpt lat="42.47136" lon="2.23677">
        <ele>1705.97</ele>
        <time>2020-06-22T11:48:44Z</time>
      </trkpt>
      <trkpt lat="42.47136" lon="2.23677">
        <ele>1708.42</ele>
        <time>2020-06-22T11:48:46Z</time>
      </trkpt>
      <trkpt lat="42.47136" lon="2.23677">
        <ele>1704.75</ele>
        <time>2020-06-22T11:48:54Z</time>
      </trkpt>
      <trkpt lat="42.47136" lon="2.23677">
        <ele>1708.22</ele>
        <time>2020-06-22T11:48:55Z</time>
      </trkpt>
      <trkpt lat="42.47137" lon="2.23677">
        <ele>1700.63</ele>
        <time>2020-06-22T11:48:59Z</time>
      </trkpt>
      <trkpt lat="42.47137" lon="2.23677">
        <ele>1707.62</ele>
        <time>2020-06-22T11:49:00Z</time>
      </trkpt>
      <trkpt lat="42.47137" lon="2.23676">
        <ele>1702.05</ele>
        <time>2020-06-22T11:49:02Z</time>
      </trkpt>
      <trkpt lat="42.47137" lon="2.23676">
        <ele>1707.79</ele>
        <time>2020-06-22T11:49:03Z</time>
      </trkpt>
      <trkpt lat="42.47137" lon="2.23675">
        <ele>1701.77</ele>
        <time>2020-06-22T11:49:17Z</time>
      </trkpt>
      <trkpt lat="42.47137" lon="2.23675">
        <ele>1707.14</ele>
        <time>2020-06-22T11:49:18Z</time>
      </trkpt>
      <trkpt lat="42.47137" lon="2.23675">
        <ele>1697.45</ele>
        <time>2020-06-22T11:49:21Z</time>
      </trkpt>
      <trkpt lat="42.47137" lon="2.23676">
        <ele>1708.25</ele>
        <time>2020-06-22T11:49:22Z</time>
      </trkpt>
      <trkpt lat="42.47137" lon="2.23676">
        <ele>1709.36</ele>
        <time>2020-06-22T11:49:24Z</time>
      </trkpt>
      <trkpt lat="42.47136" lon="2.23677">
        <ele>1707.05</ele>
        <time>2020-06-22T11:49:31Z</time>
      </trkpt>
      <trkpt lat="42.47136" lon="2.23677">
        <ele>1702.9</ele>
        <time>2020-06-22T11:49:33Z</time>
      </trkpt>
      <trkpt lat="42.47136" lon="2.23677">
        <ele>1709.06</ele>
        <time>2020-06-22T11:49:34Z</time>
      </trkpt>
      <trkpt lat="42.47136" lon="2.23677">
        <ele>1708.99</ele>
        <time>2020-06-22T11:49:35Z</time>
      </trkpt>
      <trkpt lat="42.47136" lon="2.23677">
        <ele>1704.33</ele>
        <time>2020-06-22T11:49:36Z</time>
      </trkpt>
      <trkpt lat="42.47136" lon="2.23677">
        <ele>1707.53</ele>
        <time>2020-06-22T11:49:37Z</time>
      </trkpt>
      <trkpt lat="42.47137" lon="2.23678">
        <ele>1705.79</ele>
        <time>2020-06-22T11:49:40Z</time>
      </trkpt>
      <trkpt lat="42.47137" lon="2.23679">
        <ele>1708.41</ele>
        <time>2020-06-22T11:49:42Z</time>
      </trkpt>
      <trkpt lat="42.47137" lon="2.23679">
        <ele>1702.14</ele>
        <time>2020-06-22T11:49:43Z</time>
      </trkpt>
      <trkpt lat="42.47137" lon="2.2368">
        <ele>1708.63</ele>
        <time>2020-06-22T11:49:44Z</time>
      </trkpt>
      <trkpt lat="42.47137" lon="2.2368">
        <ele>1698</ele>
        <time>2020-06-22T11:49:46Z</time>
      </trkpt>
      <trkpt lat="42.47138" lon="2.23681">
        <ele>1707.07</ele>
        <time>2020-06-22T11:49:47Z</time>
      </trkpt>
      <trkpt lat="42.47138" lon="2.23681">
        <ele>1702.24</ele>
        <time>2020-06-22T11:49:49Z</time>
      </trkpt>
      <trkpt lat="42.47138" lon="2.23682">
        <ele>1709.62</ele>
        <time>2020-06-22T11:49:50Z</time>
      </trkpt>
      <trkpt lat="42.47137" lon="2.23681">
        <ele>1704.55</ele>
        <time>2020-06-22T11:49:55Z</time>
      </trkpt>
      <trkpt lat="42.47137" lon="2.23681">
        <ele>1709.26</ele>
        <time>2020-06-22T11:49:56Z</time>
      </trkpt>
      <trkpt lat="42.47137" lon="2.23681">
        <ele>1699.29</ele>
        <time>2020-06-22T11:49:57Z</time>
      </trkpt>
      <trkpt lat="42.47137" lon="2.23681">
        <ele>1709.09</ele>
        <time>2020-06-22T11:49:58Z</time>
      </trkpt>
      <trkpt lat="42.47137" lon="2.2368">
        <ele>1702.59</ele>
        <time>2020-06-22T11:49:59Z</time>
      </trkpt>
      <trkpt lat="42.47137" lon="2.2368">
        <ele>1708.61</ele>
        <time>2020-06-22T11:50:00Z</time>
      </trkpt>
      <trkpt lat="42.47137" lon="2.2368">
        <ele>1702.77</ele>
        <time>2020-06-22T11:50:01Z</time>
      </trkpt>
      <trkpt lat="42.47137" lon="2.2368">
        <ele>1707.74</ele>
        <time>2020-06-22T11:50:02Z</time>
      </trkpt>
      <trkpt lat="42.47136" lon="2.23679">
        <ele>1708.53</ele>
        <time>2020-06-22T11:50:04Z</time>
      </trkpt>
      <trkpt lat="42.47136" lon="2.23679">
        <ele>1705.3</ele>
        <time>2020-06-22T11:50:07Z</time>
      </trkpt>
      <trkpt lat="42.47136" lon="2.23678">
        <ele>1708.66</ele>
        <time>2020-06-22T11:50:08Z</time>
      </trkpt>
      <trkpt lat="42.47135" lon="2.23678">
        <ele>1703.59</ele>
        <time>2020-06-22T11:50:10Z</time>
      </trkpt>
      <trkpt lat="42.47135" lon="2.23678">
        <ele>1708.47</ele>
        <time>2020-06-22T11:50:11Z</time>
      </trkpt>
      <trkpt lat="42.47135" lon="2.23677">
        <ele>1705.83</ele>
        <time>2020-06-22T11:50:19Z</time>
      </trkpt>
      <trkpt lat="42.47135" lon="2.23677">
        <ele>1702.2</ele>
        <time>2020-06-22T11:50:20Z</time>
      </trkpt>
      <trkpt lat="42.47135" lon="2.23677">
        <ele>1707.71</ele>
        <time>2020-06-22T11:50:21Z</time>
      </trkpt>
      <trkpt lat="42.47135" lon="2.23677">
        <ele>1707.72</ele>
        <time>2020-06-22T11:50:22Z</time>
      </trkpt>
      <trkpt lat="42.47135" lon="2.23677">
        <ele>1709.58</ele>
        <time>2020-06-22T11:50:26Z</time>
      </trkpt>
      <trkpt lat="42.47135" lon="2.23677">
        <ele>1705.98</ele>
        <time>2020-06-22T11:50:29Z</time>
      </trkpt>
      <trkpt lat="42.47135" lon="2.23677">
        <ele>1705.99</ele>
        <time>2020-06-22T11:50:30Z</time>
      </trkpt>
      <trkpt lat="42.47134" lon="2.23677">
        <ele>1709.56</ele>
        <time>2020-06-22T11:50:31Z</time>
      </trkpt>
      <trkpt lat="42.47134" lon="2.23677">
        <ele>1702.53</ele>
        <time>2020-06-22T11:50:32Z</time>
      </trkpt>
      <trkpt lat="42.47134" lon="2.23677">
        <ele>1707.33</ele>
        <time>2020-06-22T11:50:33Z</time>
      </trkpt>
      <trkpt lat="42.47134" lon="2.23677">
        <ele>1709.86</ele>
        <time>2020-06-22T11:50:35Z</time>
      </trkpt>
      <trkpt lat="42.47134" lon="2.23678">
        <ele>1706.5</ele>
        <time>2020-06-22T11:50:38Z</time>
      </trkpt>
      <trkpt lat="42.47134" lon="2.23678">
        <ele>1709.84</ele>
        <time>2020-06-22T11:50:39Z</time>
      </trkpt>
      <trkpt lat="42.47134" lon="2.23678">
        <ele>1704.83</ele>
        <time>2020-06-22T11:50:40Z</time>
      </trkpt>
      <trkpt lat="42.47134" lon="2.23678">
        <ele>1708.15</ele>
        <time>2020-06-22T11:50:41Z</time>
      </trkpt>
      <trkpt lat="42.47134" lon="2.23678">
        <ele>1704.35</ele>
        <time>2020-06-22T11:50:42Z</time>
      </trkpt>
      <trkpt lat="42.47134" lon="2.23678">
        <ele>1708.34</ele>
        <time>2020-06-22T11:50:43Z</time>
      </trkpt>
      <trkpt lat="42.47134" lon="2.23678">
        <ele>1709.34</ele>
        <time>2020-06-22T11:50:45Z</time>
      </trkpt>
      <trkpt lat="42.47134" lon="2.23678">
        <ele>1701.91</ele>
        <time>2020-06-22T11:50:48Z</time>
      </trkpt>
      <trkpt lat="42.47134" lon="2.23678">
        <ele>1708.98</ele>
        <time>2020-06-22T11:50:49Z</time>
      </trkpt>
      <trkpt lat="42.47134" lon="2.23678">
        <ele>1702.21</ele>
        <time>2020-06-22T11:50:51Z</time>
      </trkpt>
      <trkpt lat="42.47134" lon="2.23678">
        <ele>1708.63</ele>
        <time>2020-06-22T11:50:52Z</time>
      </trkpt>
      <trkpt lat="42.47134" lon="2.23678">
        <ele>1700.81</ele>
        <time>2020-06-22T11:50:56Z</time>
      </trkpt>
      <trkpt lat="42.47134" lon="2.23678">
        <ele>1709.71</ele>
        <time>2020-06-22T11:50:57Z</time>
      </trkpt>
      <trkpt lat="42.47134" lon="2.23678">
        <ele>1702.21</ele>
        <time>2020-06-22T11:50:58Z</time>
      </trkpt>
      <trkpt lat="42.47134" lon="2.23678">
        <ele>1709.66</ele>
        <time>2020-06-22T11:50:59Z</time>
      </trkpt>
      <trkpt lat="42.47134" lon="2.23677">
        <ele>1699.63</ele>
        <time>2020-06-22T11:51:08Z</time>
      </trkpt>
      <trkpt lat="42.47134" lon="2.23677">
        <ele>1708.58</ele>
        <time>2020-06-22T11:51:09Z</time>
      </trkpt>
      <trkpt lat="42.47134" lon="2.23677">
        <ele>1710.42</ele>
        <time>2020-06-22T11:51:11Z</time>
      </trkpt>
      <trkpt lat="42.47133" lon="2.23677">
        <ele>1707.66</ele>
        <time>2020-06-22T11:51:15Z</time>
      </trkpt>
      <trkpt lat="42.47133" lon="2.23677">
        <ele>1699.24</ele>
        <time>2020-06-22T11:51:16Z</time>
      </trkpt>
      <trkpt lat="42.47133" lon="2.23677">
        <ele>1709.05</ele>
        <time>2020-06-22T11:51:17Z</time>
      </trkpt>
      <trkpt lat="42.47133" lon="2.23676">
        <ele>1709.95</ele>
        <time>2020-06-22T11:51:19Z</time>
      </trkpt>
      <trkpt lat="42.47133" lon="2.23676">
        <ele>1707.67</ele>
        <time>2020-06-22T11:51:25Z</time>
      </trkpt>
      <trkpt lat="42.47133" lon="2.23676">
        <ele>1704.26</ele>
        <time>2020-06-22T11:51:27Z</time>
      </trkpt>
      <trkpt lat="42.47133" lon="2.23676">
        <ele>1708.29</ele>
        <time>2020-06-22T11:51:28Z</time>
      </trkpt>
      <trkpt lat="42.47133" lon="2.23675">
        <ele>1709.38</ele>
        <time>2020-06-22T11:51:30Z</time>
      </trkpt>
      <trkpt lat="42.47133" lon="2.23675">
        <ele>1703.67</ele>
        <time>2020-06-22T11:51:32Z</time>
      </trkpt>
      <trkpt lat="42.47133" lon="2.23675">
        <ele>1708.58</ele>
        <time>2020-06-22T11:51:33Z</time>
      </trkpt>
      <trkpt lat="42.47133" lon="2.23676">
        <ele>1700.46</ele>
        <time>2020-06-22T11:51:39Z</time>
      </trkpt>
      <trkpt lat="42.47133" lon="2.23676">
        <ele>1707.78</ele>
        <time>2020-06-22T11:51:40Z</time>
      </trkpt>
      <trkpt lat="42.47133" lon="2.23676">
        <ele>1709.51</ele>
        <time>2020-06-22T11:51:42Z</time>
      </trkpt>
      <trkpt lat="42.47133" lon="2.23676">
        <ele>1698.67</ele>
        <time>2020-06-22T11:51:44Z</time>
      </trkpt>
      <trkpt lat="42.47133" lon="2.23676">
        <ele>1708.5</ele>
        <time>2020-06-22T11:51:45Z</time>
      </trkpt>
      <trkpt lat="42.47133" lon="2.23676">
        <ele>1702.78</ele>
        <time>2020-06-22T11:52:01Z</time>
      </trkpt>
      <trkpt lat="42.47133" lon="2.23676">
        <ele>1709.58</ele>
        <time>2020-06-22T11:52:02Z</time>
      </trkpt>
      <trkpt lat="42.47133" lon="2.23676">
        <ele>1709.59</ele>
        <time>2020-06-22T11:52:03Z</time>
      </trkpt>
      <trkpt lat="42.47133" lon="2.23675">
        <ele>1705.1</ele>
        <time>2020-06-22T11:52:07Z</time>
      </trkpt>
      <trkpt lat="42.47133" lon="2.23675">
        <ele>1709.91</ele>
        <time>2020-06-22T11:52:08Z</time>
      </trkpt>
      <trkpt lat="42.47133" lon="2.23675">
        <ele>1705.51</ele>
        <time>2020-06-22T11:52:09Z</time>
      </trkpt>
      <trkpt lat="42.47133" lon="2.23675">
        <ele>1708.63</ele>
        <time>2020-06-22T11:52:10Z</time>
      </trkpt>
      <trkpt lat="42.47133" lon="2.23675">
        <ele>1710.48</ele>
        <time>2020-06-22T11:52:23Z</time>
      </trkpt>
      <trkpt lat="42.47133" lon="2.23675">
        <ele>1706.81</ele>
        <time>2020-06-22T11:52:24Z</time>
      </trkpt>
      <trkpt lat="42.47133" lon="2.23675">
        <ele>1709.81</ele>
        <time>2020-06-22T11:52:41Z</time>
      </trkpt>
      <trkpt lat="42.47134" lon="2.23674">
        <ele>1701.11</ele>
        <time>2020-06-22T11:52:53Z</time>
      </trkpt>
      <trkpt lat="42.47134" lon="2.23674">
        <ele>1711.23</ele>
        <time>2020-06-22T11:52:54Z</time>
      </trkpt>
      <trkpt lat="42.47134" lon="2.23674">
        <ele>1711.24</ele>
        <time>2020-06-22T11:52:55Z</time>
      </trkpt>
      <trkpt lat="42.47134" lon="2.23674">
        <ele>1704.08</ele>
        <time>2020-06-22T11:52:57Z</time>
      </trkpt>
      <trkpt lat="42.47134" lon="2.23674">
        <ele>1709.58</ele>
        <time>2020-06-22T11:52:58Z</time>
      </trkpt>
      <trkpt lat="42.47134" lon="2.23674">
        <ele>1701.43</ele>
        <time>2020-06-22T11:53:04Z</time>
      </trkpt>
      <trkpt lat="42.47134" lon="2.23674">
        <ele>1711.06</ele>
        <time>2020-06-22T11:53:05Z</time>
      </trkpt>
      <trkpt lat="42.47134" lon="2.23674">
        <ele>1711.08</ele>
        <time>2020-06-22T11:53:06Z</time>
      </trkpt>
      <trkpt lat="42.47134" lon="2.23674">
        <ele>1707.71</ele>
        <time>2020-06-22T11:53:11Z</time>
      </trkpt>
      <trkpt lat="42.47134" lon="2.23674">
        <ele>1711.32</ele>
        <time>2020-06-22T11:53:12Z</time>
      </trkpt>
      <trkpt lat="42.47134" lon="2.23674">
        <ele>1709.04</ele>
        <time>2020-06-22T11:53:18Z</time>
      </trkpt>
      <trkpt lat="42.47135" lon="2.23675">
        <ele>1710.86</ele>
        <time>2020-06-22T11:54:04Z</time>
      </trkpt>
      <trkpt lat="42.47135" lon="2.23674">
        <ele>1711.33</ele>
        <time>2020-06-22T11:55:00Z</time>
      </trkpt>
      <trkpt lat="42.47133" lon="2.23673">
        <ele>1711.76</ele>
        <time>2020-06-22T11:55:47Z</time>
      </trkpt>
      <trkpt lat="42.47133" lon="2.23674">
        <ele>1711.95</ele>
        <time>2020-06-22T11:56:07Z</time>
      </trkpt>
      <trkpt lat="42.47134" lon="2.23676">
        <ele>1712.19</ele>
        <time>2020-06-22T11:56:35Z</time>
      </trkpt>
      <trkpt lat="42.47133" lon="2.23674">
        <ele>1712.42</ele>
        <time>2020-06-22T11:57:04Z</time>
      </trkpt>
      <trkpt lat="42.47136" lon="2.23675">
        <ele>1712.66</ele>
        <time>2020-06-22T11:57:37Z</time>
      </trkpt>
      <trkpt lat="42.47136" lon="2.23675">
        <ele>1712.91</ele>
        <time>2020-06-22T11:58:15Z</time>
      </trkpt>
      <trkpt lat="42.47137" lon="2.23677">
        <ele>1713.11</ele>
        <time>2020-06-22T11:58:48Z</time>
      </trkpt>
      <trkpt lat="42.47138" lon="2.23675">
        <ele>1713.28</ele>
        <time>2020-06-22T11:59:17Z</time>
      </trkpt>
      <trkpt lat="42.47138" lon="2.23673">
        <ele>1713.46</ele>
        <time>2020-06-22T11:59:46Z</time>
      </trkpt>
      <trkpt lat="42.47137" lon="2.23674">
        <ele>1713.55</ele>
        <time>2020-06-22T12:00:05Z</time>
      </trkpt>
      <trkpt lat="42.47138" lon="2.23676">
        <ele>1713.64</ele>
        <time>2020-06-22T12:00:23Z</time>
      </trkpt>
      <trkpt lat="42.47138" lon="2.23676">
        <ele>1713.71</ele>
        <time>2020-06-22T12:00:39Z</time>
      </trkpt>
      <trkpt lat="42.47139" lon="2.23674">
        <ele>1713.78</ele>
        <time>2020-06-22T12:00:58Z</time>
      </trkpt>
      <trkpt lat="42.47138" lon="2.23675">
        <ele>1713.85</ele>
        <time>2020-06-22T12:01:19Z</time>
      </trkpt>
      <trkpt lat="42.47137" lon="2.23676">
        <ele>1713.97</ele>
        <time>2020-06-22T12:01:50Z</time>
      </trkpt>
      <trkpt lat="42.47135" lon="2.23679">
        <ele>1714.1</ele>
        <time>2020-06-22T12:02:20Z</time>
      </trkpt>
      <trkpt lat="42.47135" lon="2.23679">
        <ele>1714.23</ele>
        <time>2020-06-22T12:02:48Z</time>
      </trkpt>
      <trkpt lat="42.47135" lon="2.23678">
        <ele>1714.35</ele>
        <time>2020-06-22T12:03:12Z</time>
      </trkpt>
      <trkpt lat="42.47134" lon="2.23677">
        <ele>1714.48</ele>
        <time>2020-06-22T12:03:38Z</time>
      </trkpt>
      <trkpt lat="42.47134" lon="2.23677">
        <ele>1714.6</ele>
        <time>2020-06-22T12:04:03Z</time>
      </trkpt>
      <trkpt lat="42.47135" lon="2.23675">
        <ele>1715.5</ele>
        <time>2020-06-22T12:04:31Z</time>
      </trkpt>
      <trkpt lat="42.47135" lon="2.23672">
        <ele>1715.63</ele>
        <time>2020-06-22T12:05:00Z</time>
      </trkpt>
      <trkpt lat="42.47135" lon="2.23674">
        <ele>1715.73</ele>
        <time>2020-06-22T12:05:27Z</time>
      </trkpt>
      <trkpt lat="42.47135" lon="2.23675">
        <ele>1715.86</ele>
        <time>2020-06-22T12:05:56Z</time>
      </trkpt>
      <trkpt lat="42.47136" lon="2.23674">
        <ele>1716.01</ele>
        <time>2020-06-22T12:06:28Z</time>
      </trkpt>
      <trkpt lat="42.47136" lon="2.2367">
        <ele>1716.15</ele>
        <time>2020-06-22T12:06:55Z</time>
      </trkpt>
      <trkpt lat="42.47134" lon="2.23672">
        <ele>1716.35</ele>
        <time>2020-06-22T12:07:35Z</time>
      </trkpt>
      <trkpt lat="42.47132" lon="2.23672">
        <ele>1716.49</ele>
        <time>2020-06-22T12:08:03Z</time>
      </trkpt>
      <trkpt lat="42.47135" lon="2.23677">
        <ele>1716.67</ele>
        <time>2020-06-22T12:08:37Z</time>
      </trkpt>
      <trkpt lat="42.47136" lon="2.23677">
        <ele>1716.87</ele>
        <time>2020-06-22T12:09:09Z</time>
      </trkpt>
      <trkpt lat="42.47136" lon="2.23679">
        <ele>1717.07</ele>
        <time>2020-06-22T12:09:43Z</time>
      </trkpt>
      <trkpt lat="42.47135" lon="2.23681">
        <ele>1717.28</ele>
        <time>2020-06-22T12:10:19Z</time>
      </trkpt>
      <trkpt lat="42.47137" lon="2.23682">
        <ele>1717.44</ele>
        <time>2020-06-22T12:10:51Z</time>
      </trkpt>
      <trkpt lat="42.47138" lon="2.23681">
        <ele>1717.57</ele>
        <time>2020-06-22T12:11:19Z</time>
      </trkpt>
      <trkpt lat="42.47136" lon="2.2368">
        <ele>1717.71</ele>
        <time>2020-06-22T12:11:50Z</time>
      </trkpt>
      <trkpt lat="42.47135" lon="2.23678">
        <ele>1717.82</ele>
        <time>2020-06-22T12:12:16Z</time>
      </trkpt>
      <trkpt lat="42.47137" lon="2.23674">
        <ele>1717.92</ele>
        <time>2020-06-22T12:12:44Z</time>
      </trkpt>
      <trkpt lat="42.47138" lon="2.23674">
        <ele>1718</ele>
        <time>2020-06-22T12:13:10Z</time>
      </trkpt>
      <trkpt lat="42.47137" lon="2.23672">
        <ele>1718.11</ele>
        <time>2020-06-22T12:13:40Z</time>
      </trkpt>
      <trkpt lat="42.47137" lon="2.23675">
        <ele>1718.22</ele>
        <time>2020-06-22T12:14:10Z</time>
      </trkpt>
      <trkpt lat="42.47138" lon="2.23675">
        <ele>1718.37</ele>
        <time>2020-06-22T12:14:50Z</time>
      </trkpt>
      <trkpt lat="42.47139" lon="2.23677">
        <ele>1718.51</ele>
        <time>2020-06-22T12:15:22Z</time>
      </trkpt>
      <trkpt lat="42.47141" lon="2.2368">
        <ele>1718.63</ele>
        <time>2020-06-22T12:15:52Z</time>
      </trkpt>
      <trkpt lat="42.47141" lon="2.23678">
        <ele>1718.75</ele>
        <time>2020-06-22T12:16:20Z</time>
      </trkpt>
      <trkpt lat="42.4714" lon="2.23677">
        <ele>1718.86</ele>
        <time>2020-06-22T12:16:46Z</time>
      </trkpt>
      <trkpt lat="42.47136" lon="2.23672">
        <ele>1719.74</ele>
        <time>2020-06-22T12:17:05Z</time>
      </trkpt>
      <trkpt lat="42.47134" lon="2.23671">
        <ele>1719.81</ele>
        <time>2020-06-22T12:17:25Z</time>
      </trkpt>
      <trkpt lat="42.47133" lon="2.23677">
        <ele>1719.87</ele>
        <time>2020-06-22T12:17:41Z</time>
      </trkpt>
      <trkpt lat="42.47136" lon="2.23678">
        <ele>1719.95</ele>
        <time>2020-06-22T12:18:01Z</time>
      </trkpt>
      <trkpt lat="42.47136" lon="2.2368">
        <ele>1719.98</ele>
        <time>2020-06-22T12:18:20Z</time>
      </trkpt>
      <trkpt lat="42.47137" lon="2.23681">
        <ele>1720.06</ele>
        <time>2020-06-22T12:18:41Z</time>
      </trkpt>
      <trkpt lat="42.4714" lon="2.23682">
        <ele>1720.12</ele>
        <time>2020-06-22T12:19:00Z</time>
      </trkpt>
      <trkpt lat="42.47145" lon="2.23686">
        <ele>1717.71</ele>
        <time>2020-06-22T12:19:15Z</time>
      </trkpt>
      <trkpt lat="42.4715" lon="2.23691">
        <ele>1716.18</ele>
        <time>2020-06-22T12:19:31Z</time>
      </trkpt>
      <trkpt lat="42.47155" lon="2.23695">
        <ele>1713.51</ele>
        <time>2020-06-22T12:19:47Z</time>
      </trkpt>
      <trkpt lat="42.47164" lon="2.23699">
        <ele>1710.31</ele>
        <time>2020-06-22T12:20:01Z</time>
      </trkpt>
      <trkpt lat="42.47173" lon="2.23698">
        <ele>1709.67</ele>
        <time>2020-06-22T12:20:15Z</time>
      </trkpt>
      <trkpt lat="42.47182" lon="2.237">
        <ele>1709.91</ele>
        <time>2020-06-22T12:20:29Z</time>
      </trkpt>
      <trkpt lat="42.4719" lon="2.23706">
        <ele>1708.84</ele>
        <time>2020-06-22T12:20:45Z</time>
      </trkpt>
      <trkpt lat="42.47199" lon="2.2371">
        <ele>1706.5</ele>
        <time>2020-06-22T12:21:00Z</time>
      </trkpt>
      <trkpt lat="42.47209" lon="2.23717">
        <ele>1705.85</ele>
        <time>2020-06-22T12:21:16Z</time>
      </trkpt>
      <trkpt lat="42.47215" lon="2.23722">
        <ele>1705.94</ele>
        <time>2020-06-22T12:21:34Z</time>
      </trkpt>
      <trkpt lat="42.47216" lon="2.23729">
        <ele>1703.28</ele>
        <time>2020-06-22T12:21:49Z</time>
      </trkpt>
      <trkpt lat="42.47219" lon="2.23734">
        <ele>1699.81</ele>
        <time>2020-06-22T12:22:04Z</time>
      </trkpt>
      <trkpt lat="42.47222" lon="2.23743">
        <ele>1698.28</ele>
        <time>2020-06-22T12:22:22Z</time>
      </trkpt>
      <trkpt lat="42.47224" lon="2.23751">
        <ele>1695.04</ele>
        <time>2020-06-22T12:22:38Z</time>
      </trkpt>
      <trkpt lat="42.47228" lon="2.23763">
        <ele>1692.37</ele>
        <time>2020-06-22T12:22:56Z</time>
      </trkpt>
      <trkpt lat="42.47229" lon="2.23769">
        <ele>1690.78</ele>
        <time>2020-06-22T12:23:14Z</time>
      </trkpt>
      <trkpt lat="42.4723" lon="2.23775">
        <ele>1688.35</ele>
        <time>2020-06-22T12:23:33Z</time>
      </trkpt>
      <trkpt lat="42.47227" lon="2.23774">
        <ele>1684.89</ele>
        <time>2020-06-22T12:23:49Z</time>
      </trkpt>
      <trkpt lat="42.47226" lon="2.23777">
        <ele>1682.31</ele>
        <time>2020-06-22T12:24:07Z</time>
      </trkpt>
      <trkpt lat="42.47226" lon="2.23783">
        <ele>1678.99</ele>
        <time>2020-06-22T12:24:20Z</time>
      </trkpt>
      <trkpt lat="42.47227" lon="2.23792">
        <ele>1675.8</ele>
        <time>2020-06-22T12:24:34Z</time>
      </trkpt>
      <trkpt lat="42.47224" lon="2.23806">
        <ele>1673.63</ele>
        <time>2020-06-22T12:24:52Z</time>
      </trkpt>
      <trkpt lat="42.47234" lon="2.23813">
        <ele>1673.15</ele>
        <time>2020-06-22T12:25:11Z</time>
      </trkpt>
      <trkpt lat="42.47235" lon="2.23821">
        <ele>1671.64</ele>
        <time>2020-06-22T12:25:29Z</time>
      </trkpt>
      <trkpt lat="42.47237" lon="2.23833">
        <ele>1668.39</ele>
        <time>2020-06-22T12:25:49Z</time>
      </trkpt>
      <trkpt lat="42.47246" lon="2.23846">
        <ele>1666.02</ele>
        <time>2020-06-22T12:26:06Z</time>
      </trkpt>
      <trkpt lat="42.47255" lon="2.23855">
        <ele>1664.49</ele>
        <time>2020-06-22T12:26:21Z</time>
      </trkpt>
      <trkpt lat="42.47264" lon="2.23867">
        <ele>1662.8</ele>
        <time>2020-06-22T12:26:37Z</time>
      </trkpt>
      <trkpt lat="42.47268" lon="2.23868">
        <ele>1662.84</ele>
        <time>2020-06-22T12:26:43Z</time>
      </trkpt>
      <trkpt lat="42.47272" lon="2.23872">
        <ele>1662.1</ele>
        <time>2020-06-22T12:26:48Z</time>
      </trkpt>
      <trkpt lat="42.47283" lon="2.23882">
        <ele>1660.41</ele>
        <time>2020-06-22T12:27:05Z</time>
      </trkpt>
      <trkpt lat="42.47291" lon="2.23883">
        <ele>1658.78</ele>
        <time>2020-06-22T12:27:21Z</time>
      </trkpt>
      <trkpt lat="42.47302" lon="2.23889">
        <ele>1658.05</ele>
        <time>2020-06-22T12:27:38Z</time>
      </trkpt>
      <trkpt lat="42.47306" lon="2.23894">
        <ele>1656.51</ele>
        <time>2020-06-22T12:27:55Z</time>
      </trkpt>
      <trkpt lat="42.47316" lon="2.239">
        <ele>1655.69</ele>
        <time>2020-06-22T12:28:13Z</time>
      </trkpt>
      <trkpt lat="42.47329" lon="2.23907">
        <ele>1653.94</ele>
        <time>2020-06-22T12:28:30Z</time>
      </trkpt>
      <trkpt lat="42.47341" lon="2.23908">
        <ele>1651.44</ele>
        <time>2020-06-22T12:28:45Z</time>
      </trkpt>
      <trkpt lat="42.47351" lon="2.23912">
        <ele>1650.59</ele>
        <time>2020-06-22T12:28:55Z</time>
      </trkpt>
      <trkpt lat="42.47362" lon="2.23917">
        <ele>1649.87</ele>
        <time>2020-06-22T12:29:11Z</time>
      </trkpt>
      <trkpt lat="42.47371" lon="2.23913">
        <ele>1648.19</ele>
        <time>2020-06-22T12:29:26Z</time>
      </trkpt>
      <trkpt lat="42.47376" lon="2.23912">
        <ele>1648.25</ele>
        <time>2020-06-22T12:29:44Z</time>
      </trkpt>
      <trkpt lat="42.47384" lon="2.23912">
        <ele>1646.64</ele>
        <time>2020-06-22T12:30:01Z</time>
      </trkpt>
      <trkpt lat="42.47398" lon="2.23914">
        <ele>1644.22</ele>
        <time>2020-06-22T12:30:18Z</time>
      </trkpt>
      <trkpt lat="42.47406" lon="2.23911">
        <ele>1643.45</ele>
        <time>2020-06-22T12:30:35Z</time>
      </trkpt>
      <trkpt lat="42.47409" lon="2.23915">
        <ele>1643.42</ele>
        <time>2020-06-22T12:30:59Z</time>
      </trkpt>
      <trkpt lat="42.47411" lon="2.23916">
        <ele>1643.35</ele>
        <time>2020-06-22T12:31:24Z</time>
      </trkpt>
      <trkpt lat="42.47418" lon="2.2392">
        <ele>1642.34</ele>
        <time>2020-06-22T12:31:43Z</time>
      </trkpt>
      <trkpt lat="42.47428" lon="2.23922">
        <ele>1640.75</ele>
        <time>2020-06-22T12:32:00Z</time>
      </trkpt>
      <trkpt lat="42.47436" lon="2.23926">
        <ele>1638.94</ele>
        <time>2020-06-22T12:32:15Z</time>
      </trkpt>
      <trkpt lat="42.47448" lon="2.23933">
        <ele>1637.2</ele>
        <time>2020-06-22T12:32:32Z</time>
      </trkpt>
      <trkpt lat="42.47456" lon="2.23938">
        <ele>1636.38</ele>
        <time>2020-06-22T12:32:45Z</time>
      </trkpt>
      <trkpt lat="42.47463" lon="2.23944">
        <ele>1634.83</ele>
        <time>2020-06-22T12:33:01Z</time>
      </trkpt>
      <trkpt lat="42.47469" lon="2.23946">
        <ele>1634.88</ele>
        <time>2020-06-22T12:33:19Z</time>
      </trkpt>
      <trkpt lat="42.47475" lon="2.23949">
        <ele>1634.05</ele>
        <time>2020-06-22T12:33:32Z</time>
      </trkpt>
      <trkpt lat="42.47481" lon="2.23955">
        <ele>1633.27</ele>
        <time>2020-06-22T12:33:47Z</time>
      </trkpt>
      <trkpt lat="42.47489" lon="2.2396">
        <ele>1632.28</ele>
        <time>2020-06-22T12:34:00Z</time>
      </trkpt>
      <trkpt lat="42.47496" lon="2.23965">
        <ele>1631.51</ele>
        <time>2020-06-22T12:34:13Z</time>
      </trkpt>
      <trkpt lat="42.47506" lon="2.23972">
        <ele>1628.69</ele>
        <time>2020-06-22T12:34:29Z</time>
      </trkpt>
      <trkpt lat="42.47516" lon="2.23973">
        <ele>1627.04</ele>
        <time>2020-06-22T12:34:46Z</time>
      </trkpt>
      <trkpt lat="42.47522" lon="2.23971">
        <ele>1627.05</ele>
        <time>2020-06-22T12:35:01Z</time>
      </trkpt>
      <trkpt lat="42.47529" lon="2.23971">
        <ele>1626.28</ele>
        <time>2020-06-22T12:35:20Z</time>
      </trkpt>
      <trkpt lat="42.47538" lon="2.23973">
        <ele>1623.82</ele>
        <time>2020-06-22T12:35:36Z</time>
      </trkpt>
      <trkpt lat="42.47544" lon="2.23975">
        <ele>1623.88</ele>
        <time>2020-06-22T12:35:53Z</time>
      </trkpt>
      <trkpt lat="42.4755" lon="2.23977">
        <ele>1622.01</ele>
        <time>2020-06-22T12:36:09Z</time>
      </trkpt>
      <trkpt lat="42.47552" lon="2.23975">
        <ele>1622.09</ele>
        <time>2020-06-22T12:36:33Z</time>
      </trkpt>
      <trkpt lat="42.47556" lon="2.23974">
        <ele>1621.28</ele>
        <time>2020-06-22T12:37:03Z</time>
      </trkpt>
      <trkpt lat="42.47566" lon="2.23975">
        <ele>1619.68</ele>
        <time>2020-06-22T12:37:19Z</time>
      </trkpt>
      <trkpt lat="42.47574" lon="2.23976">
        <ele>1617.88</ele>
        <time>2020-06-22T12:37:35Z</time>
      </trkpt>
      <trkpt lat="42.47583" lon="2.23971">
        <ele>1616.18</ele>
        <time>2020-06-22T12:37:53Z</time>
      </trkpt>
      <trkpt lat="42.47594" lon="2.23972">
        <ele>1614.27</ele>
        <time>2020-06-22T12:38:05Z</time>
      </trkpt>
      <trkpt lat="42.47604" lon="2.23969">
        <ele>1612.62</ele>
        <time>2020-06-22T12:38:21Z</time>
      </trkpt>
      <trkpt lat="42.47607" lon="2.23965">
        <ele>1612.63</ele>
        <time>2020-06-22T12:38:42Z</time>
      </trkpt>
      <trkpt lat="42.47617" lon="2.23969">
        <ele>1611.74</ele>
        <time>2020-06-22T12:38:58Z</time>
      </trkpt>
      <trkpt lat="42.47628" lon="2.23979">
        <ele>1609.97</ele>
        <time>2020-06-22T12:39:15Z</time>
      </trkpt>
      <trkpt lat="42.47636" lon="2.23981">
        <ele>1609.07</ele>
        <time>2020-06-22T12:39:31Z</time>
      </trkpt>
      <trkpt lat="42.47636" lon="2.23981">
        <ele>1609.09</ele>
        <time>2020-06-22T12:39:34Z</time>
      </trkpt>
      <trkpt lat="42.4764" lon="2.23981">
        <ele>1608.28</ele>
        <time>2020-06-22T12:39:38Z</time>
      </trkpt>
      <trkpt lat="42.4765" lon="2.23983">
        <ele>1607.41</ele>
        <time>2020-06-22T12:39:52Z</time>
      </trkpt>
      <trkpt lat="42.47659" lon="2.23991">
        <ele>1605.01</ele>
        <time>2020-06-22T12:40:10Z</time>
      </trkpt>
      <trkpt lat="42.47662" lon="2.23989">
        <ele>1604.25</ele>
        <time>2020-06-22T12:40:26Z</time>
      </trkpt>
      <trkpt lat="42.47668" lon="2.23991">
        <ele>1604.21</ele>
        <time>2020-06-22T12:40:39Z</time>
      </trkpt>
      <trkpt lat="42.47678" lon="2.23996">
        <ele>1601.53</ele>
        <time>2020-06-22T12:40:55Z</time>
      </trkpt>
      <trkpt lat="42.4769" lon="2.24002">
        <ele>1599.89</ele>
        <time>2020-06-22T12:41:11Z</time>
      </trkpt>
      <trkpt lat="42.47706" lon="2.24009">
        <ele>1597.4</ele>
        <time>2020-06-22T12:41:29Z</time>
      </trkpt>
      <trkpt lat="42.47716" lon="2.24007">
        <ele>1594.1</ele>
        <time>2020-06-22T12:41:46Z</time>
      </trkpt>
      <trkpt lat="42.4773" lon="2.24007">
        <ele>1590.8</ele>
        <time>2020-06-22T12:42:05Z</time>
      </trkpt>
      <trkpt lat="42.47743" lon="2.24005">
        <ele>1588.97</ele>
        <time>2020-06-22T12:42:17Z</time>
      </trkpt>
      <trkpt lat="42.47759" lon="2.24005">
        <ele>1587.35</ele>
        <time>2020-06-22T12:42:36Z</time>
      </trkpt>
      <trkpt lat="42.47768" lon="2.24006">
        <ele>1586.56</ele>
        <time>2020-06-22T12:42:50Z</time>
      </trkpt>
      <trkpt lat="42.47772" lon="2.24005">
        <ele>1585.85</ele>
        <time>2020-06-22T12:43:09Z</time>
      </trkpt>
      <trkpt lat="42.47782" lon="2.24008">
        <ele>1584.09</ele>
        <time>2020-06-22T12:43:28Z</time>
      </trkpt>
      <trkpt lat="42.47794" lon="2.24008">
        <ele>1580.47</ele>
        <time>2020-06-22T12:43:47Z</time>
      </trkpt>
      <trkpt lat="42.47809" lon="2.24009">
        <ele>1577.8</ele>
        <time>2020-06-22T12:44:05Z</time>
      </trkpt>
      <trkpt lat="42.47823" lon="2.24007">
        <ele>1575.53</ele>
        <time>2020-06-22T12:44:25Z</time>
      </trkpt>
      <trkpt lat="42.47827" lon="2.24001">
        <ele>1575.71</ele>
        <time>2020-06-22T12:44:52Z</time>
      </trkpt>
      <trkpt lat="42.47829" lon="2.23999">
        <ele>1575.73</ele>
        <time>2020-06-22T12:44:55Z</time>
      </trkpt>
      <trkpt lat="42.4784" lon="2.24002">
        <ele>1574.15</ele>
        <time>2020-06-22T12:45:16Z</time>
      </trkpt>
      <trkpt lat="42.47842" lon="2.24002">
        <ele>1574.18</ele>
        <time>2020-06-22T12:45:19Z</time>
      </trkpt>
      <trkpt lat="42.47853" lon="2.24006">
        <ele>1570.98</ele>
        <time>2020-06-22T12:45:34Z</time>
      </trkpt>
      <trkpt lat="42.47862" lon="2.2401">
        <ele>1569.57</ele>
        <time>2020-06-22T12:45:48Z</time>
      </trkpt>
      <trkpt lat="42.47874" lon="2.2401">
        <ele>1566.23</ele>
        <time>2020-06-22T12:46:04Z</time>
      </trkpt>
      <trkpt lat="42.47884" lon="2.24007">
        <ele>1563.04</ele>
        <time>2020-06-22T12:46:17Z</time>
      </trkpt>
      <trkpt lat="42.47897" lon="2.23999">
        <ele>1561.67</ele>
        <time>2020-06-22T12:46:36Z</time>
      </trkpt>
      <trkpt lat="42.47908" lon="2.23997">
        <ele>1560.08</ele>
        <time>2020-06-22T12:46:47Z</time>
      </trkpt>
      <trkpt lat="42.47915" lon="2.23993">
        <ele>1559.4</ele>
        <time>2020-06-22T12:46:59Z</time>
      </trkpt>
      <trkpt lat="42.47932" lon="2.23992">
        <ele>1558.05</ele>
        <time>2020-06-22T12:47:19Z</time>
      </trkpt>
      <trkpt lat="42.47942" lon="2.23991">
        <ele>1556.65</ele>
        <time>2020-06-22T12:47:36Z</time>
      </trkpt>
      <trkpt lat="42.47956" lon="2.23988">
        <ele>1554.5</ele>
        <time>2020-06-22T12:47:55Z</time>
      </trkpt>
      <trkpt lat="42.47964" lon="2.23986">
        <ele>1553</ele>
        <time>2020-06-22T12:48:11Z</time>
      </trkpt>
      <trkpt lat="42.47976" lon="2.23991">
        <ele>1550.82</ele>
        <time>2020-06-22T12:48:29Z</time>
      </trkpt>
      <trkpt lat="42.47979" lon="2.23991">
        <ele>1551.09</ele>
        <time>2020-06-22T12:48:51Z</time>
      </trkpt>
      <trkpt lat="42.47994" lon="2.23994">
        <ele>1549.58</ele>
        <time>2020-06-22T12:49:09Z</time>
      </trkpt>
      <trkpt lat="42.48014" lon="2.2398">
        <ele>1546.33</ele>
        <time>2020-06-22T12:49:30Z</time>
      </trkpt>
      <trkpt lat="42.48025" lon="2.23976">
        <ele>1544.83</ele>
        <time>2020-06-22T12:49:47Z</time>
      </trkpt>
      <trkpt lat="42.48036" lon="2.23974">
        <ele>1542.58</ele>
        <time>2020-06-22T12:50:02Z</time>
      </trkpt>
      <trkpt lat="42.48046" lon="2.23972">
        <ele>1540.21</ele>
        <time>2020-06-22T12:50:19Z</time>
      </trkpt>
      <trkpt lat="42.48058" lon="2.23967">
        <ele>1537.17</ele>
        <time>2020-06-22T12:50:38Z</time>
      </trkpt>
      <trkpt lat="42.48073" lon="2.23966">
        <ele>1533.99</ele>
        <time>2020-06-22T12:50:56Z</time>
      </trkpt>
      <trkpt lat="42.48086" lon="2.23965">
        <ele>1531.6</ele>
        <time>2020-06-22T12:51:13Z</time>
      </trkpt>
      <trkpt lat="42.48103" lon="2.23962">
        <ele>1529.26</ele>
        <time>2020-06-22T12:51:33Z</time>
      </trkpt>
      <trkpt lat="42.4812" lon="2.23955">
        <ele>1527.05</ele>
        <time>2020-06-22T12:51:50Z</time>
      </trkpt>
      <trkpt lat="42.48132" lon="2.23955">
        <ele>1525.55</ele>
        <time>2020-06-22T12:52:04Z</time>
      </trkpt>
      <trkpt lat="42.48145" lon="2.23954">
        <ele>1523.99</ele>
        <time>2020-06-22T12:52:19Z</time>
      </trkpt>
      <trkpt lat="42.48157" lon="2.23953">
        <ele>1521.74</ele>
        <time>2020-06-22T12:52:35Z</time>
      </trkpt>
      <trkpt lat="42.48174" lon="2.23951">
        <ele>1519.37</ele>
        <time>2020-06-22T12:52:53Z</time>
      </trkpt>
      <trkpt lat="42.4819" lon="2.23952">
        <ele>1518</ele>
        <time>2020-06-22T12:53:12Z</time>
      </trkpt>
      <trkpt lat="42.48196" lon="2.23956">
        <ele>1518.18</ele>
        <time>2020-06-22T12:53:35Z</time>
      </trkpt>
      <trkpt lat="42.48196" lon="2.23955">
        <ele>1518.21</ele>
        <time>2020-06-22T12:53:37Z</time>
      </trkpt>
      <trkpt lat="42.48202" lon="2.23955">
        <ele>1518.29</ele>
        <time>2020-06-22T12:53:48Z</time>
      </trkpt>
      <trkpt lat="42.48202" lon="2.23955">
        <ele>1518.31</ele>
        <time>2020-06-22T12:53:50Z</time>
      </trkpt>
      <trkpt lat="42.48211" lon="2.23957">
        <ele>1516.64</ele>
        <time>2020-06-22T12:54:04Z</time>
      </trkpt>
      <trkpt lat="42.48215" lon="2.23955">
        <ele>1515.19</ele>
        <time>2020-06-22T12:54:21Z</time>
      </trkpt>
      <trkpt lat="42.48225" lon="2.23956">
        <ele>1513.35</ele>
        <time>2020-06-22T12:54:37Z</time>
      </trkpt>
      <trkpt lat="42.4823" lon="2.23956">
        <ele>1512.55</ele>
        <time>2020-06-22T12:54:43Z</time>
      </trkpt>
      <trkpt lat="42.48244" lon="2.23962">
        <ele>1509.04</ele>
        <time>2020-06-22T12:54:59Z</time>
      </trkpt>
      <trkpt lat="42.48256" lon="2.23964">
        <ele>1506.45</ele>
        <time>2020-06-22T12:55:16Z</time>
      </trkpt>
      <trkpt lat="42.48266" lon="2.23962">
        <ele>1505.06</ele>
        <time>2020-06-22T12:55:29Z</time>
      </trkpt>
      <trkpt lat="42.48279" lon="2.23958">
        <ele>1502.39</ele>
        <time>2020-06-22T12:55:46Z</time>
      </trkpt>
      <trkpt lat="42.48292" lon="2.23951">
        <ele>1500.68</ele>
        <time>2020-06-22T12:56:00Z</time>
      </trkpt>
      <trkpt lat="42.483" lon="2.23945">
        <ele>1498.9</ele>
        <time>2020-06-22T12:56:11Z</time>
      </trkpt>
      <trkpt lat="42.48306" lon="2.23939">
        <ele>1497.32</ele>
        <time>2020-06-22T12:56:23Z</time>
      </trkpt>
      <trkpt lat="42.48312" lon="2.23926">
        <ele>1494.82</ele>
        <time>2020-06-22T12:56:33Z</time>
      </trkpt>
      <trkpt lat="42.48326" lon="2.23916">
        <ele>1492.4</ele>
        <time>2020-06-22T12:56:47Z</time>
      </trkpt>
      <trkpt lat="42.48337" lon="2.23912">
        <ele>1490.8</ele>
        <time>2020-06-22T12:57:05Z</time>
      </trkpt>
      <trkpt lat="42.48347" lon="2.23909">
        <ele>1489.18</ele>
        <time>2020-06-22T12:57:16Z</time>
      </trkpt>
      <trkpt lat="42.48359" lon="2.23904">
        <ele>1487.43</ele>
        <time>2020-06-22T12:57:31Z</time>
      </trkpt>
      <trkpt lat="42.48372" lon="2.23899">
        <ele>1485</ele>
        <time>2020-06-22T12:57:48Z</time>
      </trkpt>
      <trkpt lat="42.48375" lon="2.23898">
        <ele>1484.08</ele>
        <time>2020-06-22T12:57:51Z</time>
      </trkpt>
      <trkpt lat="42.48381" lon="2.23898">
        <ele>1483.11</ele>
        <time>2020-06-22T12:57:57Z</time>
      </trkpt>
      <trkpt lat="42.4838" lon="2.23906">
        <ele>1483.12</ele>
        <time>2020-06-22T12:58:00Z</time>
      </trkpt>
      <trkpt lat="42.48387" lon="2.23906">
        <ele>1481.54</ele>
        <time>2020-06-22T12:58:09Z</time>
      </trkpt>
      <trkpt lat="42.48395" lon="2.23907">
        <ele>1479.62</ele>
        <time>2020-06-22T12:58:21Z</time>
      </trkpt>
      <trkpt lat="42.48407" lon="2.239">
        <ele>1477.85</ele>
        <time>2020-06-22T12:58:37Z</time>
      </trkpt>
      <trkpt lat="42.48418" lon="2.23896">
        <ele>1476.02</ele>
        <time>2020-06-22T12:58:55Z</time>
      </trkpt>
      <trkpt lat="42.48422" lon="2.2389">
        <ele>1474.33</ele>
        <time>2020-06-22T12:59:03Z</time>
      </trkpt>
      <trkpt lat="42.48438" lon="2.23884">
        <ele>1471.51</ele>
        <time>2020-06-22T12:59:22Z</time>
      </trkpt>
      <trkpt lat="42.48447" lon="2.23881">
        <ele>1468.9</ele>
        <time>2020-06-22T12:59:41Z</time>
      </trkpt>
      <trkpt lat="42.48457" lon="2.23875">
        <ele>1467.06</ele>
        <time>2020-06-22T12:59:57Z</time>
      </trkpt>
      <trkpt lat="42.48464" lon="2.2387">
        <ele>1465.47</ele>
        <time>2020-06-22T13:00:09Z</time>
      </trkpt>
      <trkpt lat="42.48469" lon="2.23866">
        <ele>1464.57</ele>
        <time>2020-06-22T13:00:16Z</time>
      </trkpt>
      <trkpt lat="42.48478" lon="2.2386">
        <ele>1462.61</ele>
        <time>2020-06-22T13:00:36Z</time>
      </trkpt>
      <trkpt lat="42.48478" lon="2.23856">
        <ele>1462.61</ele>
        <time>2020-06-22T13:00:43Z</time>
      </trkpt>
      <trkpt lat="42.48479" lon="2.23852">
        <ele>1462.56</ele>
        <time>2020-06-22T13:01:01Z</time>
      </trkpt>
      <trkpt lat="42.48478" lon="2.23851">
        <ele>1452.09</ele>
        <time>2020-06-22T13:01:07Z</time>
      </trkpt>
      <trkpt lat="42.48478" lon="2.23851">
        <ele>1463.87</ele>
        <time>2020-06-22T13:01:08Z</time>
      </trkpt>
      <trkpt lat="42.48478" lon="2.23851">
        <ele>1459.93</ele>
        <time>2020-06-22T13:01:09Z</time>
      </trkpt>
      <trkpt lat="42.48477" lon="2.23852">
        <ele>1465.48</ele>
        <time>2020-06-22T13:01:10Z</time>
      </trkpt>
      <trkpt lat="42.48477" lon="2.23853">
        <ele>1466.43</ele>
        <time>2020-06-22T13:01:12Z</time>
      </trkpt>
      <trkpt lat="42.48476" lon="2.23855">
        <ele>1460.23</ele>
        <time>2020-06-22T13:01:14Z</time>
      </trkpt>
      <trkpt lat="42.48475" lon="2.23855">
        <ele>1463.97</ele>
        <time>2020-06-22T13:01:15Z</time>
      </trkpt>
      <trkpt lat="42.48476" lon="2.23857">
        <ele>1463.91</ele>
        <time>2020-06-22T13:01:17Z</time>
      </trkpt>
      <trkpt lat="42.48478" lon="2.23857">
        <ele>1460.05</ele>
        <time>2020-06-22T13:01:26Z</time>
      </trkpt>
      <trkpt lat="42.48478" lon="2.23858">
        <ele>1464.63</ele>
        <time>2020-06-22T13:01:27Z</time>
      </trkpt>
      <trkpt lat="42.48483" lon="2.23861">
        <ele>1462.4</ele>
        <time>2020-06-22T13:01:45Z</time>
      </trkpt>
      <trkpt lat="42.4849" lon="2.23859">
        <ele>1461.51</ele>
        <time>2020-06-22T13:02:09Z</time>
      </trkpt>
      <trkpt lat="42.48494" lon="2.23851">
        <ele>1461.47</ele>
        <time>2020-06-22T13:02:28Z</time>
      </trkpt>
      <trkpt lat="42.48496" lon="2.23851">
        <ele>1458.79</ele>
        <time>2020-06-22T13:02:45Z</time>
      </trkpt>
      <trkpt lat="42.48504" lon="2.23848">
        <ele>1458.78</ele>
        <time>2020-06-22T13:03:00Z</time>
      </trkpt>
      <trkpt lat="42.48513" lon="2.23848">
        <ele>1457.85</ele>
        <time>2020-06-22T13:03:11Z</time>
      </trkpt>
      <trkpt lat="42.48512" lon="2.23836">
        <ele>1457.88</ele>
        <time>2020-06-22T13:03:29Z</time>
      </trkpt>
      <trkpt lat="42.48514" lon="2.23835">
        <ele>1460.29</ele>
        <time>2020-06-22T13:03:36Z</time>
      </trkpt>
      <trkpt lat="42.48517" lon="2.23826">
        <ele>1460.92</ele>
        <time>2020-06-22T13:03:54Z</time>
      </trkpt>
      <trkpt lat="42.48519" lon="2.23824">
        <ele>1460.85</ele>
        <time>2020-06-22T13:04:12Z</time>
      </trkpt>
      <trkpt lat="42.48525" lon="2.23814">
        <ele>1460.78</ele>
        <time>2020-06-22T13:04:28Z</time>
      </trkpt>
      <trkpt lat="42.48528" lon="2.23811">
        <ele>1460.76</ele>
        <time>2020-06-22T13:04:41Z</time>
      </trkpt>
      <trkpt lat="42.48525" lon="2.23807">
        <ele>1460.71</ele>
        <time>2020-06-22T13:04:58Z</time>
      </trkpt>
      <trkpt lat="42.48525" lon="2.23811">
        <ele>1460.69</ele>
        <time>2020-06-22T13:05:05Z</time>
      </trkpt>
      <trkpt lat="42.48525" lon="2.2382">
        <ele>1460.59</ele>
        <time>2020-06-22T13:05:30Z</time>
      </trkpt>
      <trkpt lat="42.48522" lon="2.23818">
        <ele>1456.99</ele>
        <time>2020-06-22T13:05:41Z</time>
      </trkpt>
      <trkpt lat="42.48521" lon="2.23818">
        <ele>1452.69</ele>
        <time>2020-06-22T13:05:42Z</time>
      </trkpt>
      <trkpt lat="42.48521" lon="2.23818">
        <ele>1457.28</ele>
        <time>2020-06-22T13:05:43Z</time>
      </trkpt>
      <trkpt lat="42.48521" lon="2.23817">
        <ele>1460.95</ele>
        <time>2020-06-22T13:05:44Z</time>
      </trkpt>
      <trkpt lat="42.4852" lon="2.23817">
        <ele>1460.95</ele>
        <time>2020-06-22T13:05:45Z</time>
      </trkpt>
      <trkpt lat="42.48519" lon="2.23815">
        <ele>1458.6</ele>
        <time>2020-06-22T13:05:48Z</time>
      </trkpt>
      <trkpt lat="42.48513" lon="2.23816">
        <ele>1459.21</ele>
        <time>2020-06-22T13:06:08Z</time>
      </trkpt>
      <trkpt lat="42.48504" lon="2.23817">
        <ele>1460.11</ele>
        <time>2020-06-22T13:06:25Z</time>
      </trkpt>
      <trkpt lat="42.48505" lon="2.2382">
        <ele>1460.73</ele>
        <time>2020-06-22T13:06:42Z</time>
      </trkpt>
      <trkpt lat="42.48511" lon="2.23826">
        <ele>1460.57</ele>
        <time>2020-06-22T13:06:58Z</time>
      </trkpt>
      <trkpt lat="42.48508" lon="2.2383">
        <ele>1458.15</ele>
        <time>2020-06-22T13:07:12Z</time>
      </trkpt>
      <trkpt lat="42.48509" lon="2.23835">
        <ele>1456.22</ele>
        <time>2020-06-22T13:07:30Z</time>
      </trkpt>
      <trkpt lat="42.48511" lon="2.23836">
        <ele>1455.33</ele>
        <time>2020-06-22T13:07:51Z</time>
      </trkpt>
      <trkpt lat="42.48516" lon="2.23836">
        <ele>1453.35</ele>
        <time>2020-06-22T13:08:18Z</time>
      </trkpt>
      <trkpt lat="42.48526" lon="2.23836">
        <ele>1451.57</ele>
        <time>2020-06-22T13:08:37Z</time>
      </trkpt>
      <trkpt lat="42.48537" lon="2.23833">
        <ele>1448.96</ele>
        <time>2020-06-22T13:08:54Z</time>
      </trkpt>
      <trkpt lat="42.48551" lon="2.23833">
        <ele>1445.34</ele>
        <time>2020-06-22T13:09:11Z</time>
      </trkpt>
      <trkpt lat="42.48567" lon="2.23834">
        <ele>1442.48</ele>
        <time>2020-06-22T13:09:28Z</time>
      </trkpt>
      <trkpt lat="42.48579" lon="2.23831">
        <ele>1439.94</ele>
        <time>2020-06-22T13:09:45Z</time>
      </trkpt>
      <trkpt lat="42.48594" lon="2.23828">
        <ele>1436.5</ele>
        <time>2020-06-22T13:10:00Z</time>
      </trkpt>
      <trkpt lat="42.48605" lon="2.23825">
        <ele>1434.87</ele>
        <time>2020-06-22T13:10:13Z</time>
      </trkpt>
      <trkpt lat="42.48622" lon="2.23823">
        <ele>1431.24</ele>
        <time>2020-06-22T13:10:30Z</time>
      </trkpt>
      <trkpt lat="42.48623" lon="2.23823">
        <ele>1431.24</ele>
        <time>2020-06-22T13:10:31Z</time>
      </trkpt>
      <trkpt lat="42.48639" lon="2.23827">
        <ele>1428.75</ele>
        <time>2020-06-22T13:10:48Z</time>
      </trkpt>
      <trkpt lat="42.48653" lon="2.23832">
        <ele>1427</ele>
        <time>2020-06-22T13:11:03Z</time>
      </trkpt>
      <trkpt lat="42.48667" lon="2.23838">
        <ele>1424.09</ele>
        <time>2020-06-22T13:11:20Z</time>
      </trkpt>
      <trkpt lat="42.48677" lon="2.23839">
        <ele>1422.4</ele>
        <time>2020-06-22T13:11:34Z</time>
      </trkpt>
      <trkpt lat="42.48689" lon="2.23835">
        <ele>1419.73</ele>
        <time>2020-06-22T13:11:51Z</time>
      </trkpt>
      <trkpt lat="42.48701" lon="2.23832">
        <ele>1418.01</ele>
        <time>2020-06-22T13:12:12Z</time>
      </trkpt>
      <trkpt lat="42.48711" lon="2.2383">
        <ele>1416.19</ele>
        <time>2020-06-22T13:12:30Z</time>
      </trkpt>
      <trkpt lat="42.48722" lon="2.23829">
        <ele>1414.3</ele>
        <time>2020-06-22T13:12:50Z</time>
      </trkpt>
      <trkpt lat="42.48732" lon="2.23825">
        <ele>1412.37</ele>
        <time>2020-06-22T13:13:07Z</time>
      </trkpt>
      <trkpt lat="42.48741" lon="2.23817">
        <ele>1410.61</ele>
        <time>2020-06-22T13:13:24Z</time>
      </trkpt>
      <trkpt lat="42.48752" lon="2.2381">
        <ele>1408.78</ele>
        <time>2020-06-22T13:13:39Z</time>
      </trkpt>
      <trkpt lat="42.48759" lon="2.23808">
        <ele>1406.26</ele>
        <time>2020-06-22T13:13:57Z</time>
      </trkpt>
      <trkpt lat="42.48767" lon="2.23807">
        <ele>1404.57</ele>
        <time>2020-06-22T13:14:16Z</time>
      </trkpt>
      <trkpt lat="42.48776" lon="2.23806">
        <ele>1403.67</ele>
        <time>2020-06-22T13:14:34Z</time>
      </trkpt>
      <trkpt lat="42.48785" lon="2.23804">
        <ele>1401.93</ele>
        <time>2020-06-22T13:14:52Z</time>
      </trkpt>
      <trkpt lat="42.48796" lon="2.23809">
        <ele>1399.46</ele>
        <time>2020-06-22T13:15:10Z</time>
      </trkpt>
      <trkpt lat="42.48811" lon="2.23817">
        <ele>1397.11</ele>
        <time>2020-06-22T13:15:29Z</time>
      </trkpt>
      <trkpt lat="42.4882" lon="2.23818">
        <ele>1395.48</ele>
        <time>2020-06-22T13:15:44Z</time>
      </trkpt>
      <trkpt lat="42.48826" lon="2.23818">
        <ele>1394.61</ele>
        <time>2020-06-22T13:15:59Z</time>
      </trkpt>
      <trkpt lat="42.48833" lon="2.23823">
        <ele>1392.83</ele>
        <time>2020-06-22T13:16:18Z</time>
      </trkpt>
      <trkpt lat="42.4884" lon="2.23831">
        <ele>1391.04</ele>
        <time>2020-06-22T13:16:36Z</time>
      </trkpt>
      <trkpt lat="42.48845" lon="2.23835">
        <ele>1390.29</ele>
        <time>2020-06-22T13:16:52Z</time>
      </trkpt>
      <trkpt lat="42.48855" lon="2.23842">
        <ele>1388.61</ele>
        <time>2020-06-22T13:17:12Z</time>
      </trkpt>
      <trkpt lat="42.48864" lon="2.23844">
        <ele>1386.86</ele>
        <time>2020-06-22T13:17:30Z</time>
      </trkpt>
      <trkpt lat="42.4887" lon="2.23847">
        <ele>1385.22</ele>
        <time>2020-06-22T13:17:49Z</time>
      </trkpt>
      <trkpt lat="42.48876" lon="2.23856">
        <ele>1384.37</ele>
        <time>2020-06-22T13:18:07Z</time>
      </trkpt>
      <trkpt lat="42.48886" lon="2.23861">
        <ele>1382.63</ele>
        <time>2020-06-22T13:18:25Z</time>
      </trkpt>
      <trkpt lat="42.48892" lon="2.23867">
        <ele>1381.72</ele>
        <time>2020-06-22T13:18:42Z</time>
      </trkpt>
      <trkpt lat="42.48902" lon="2.2388">
        <ele>1378.31</ele>
        <time>2020-06-22T13:19:02Z</time>
      </trkpt>
      <trkpt lat="42.4891" lon="2.23891">
        <ele>1376.55</ele>
        <time>2020-06-22T13:19:19Z</time>
      </trkpt>
      <trkpt lat="42.4892" lon="2.23905">
        <ele>1373.98</ele>
        <time>2020-06-22T13:19:38Z</time>
      </trkpt>
      <trkpt lat="42.48924" lon="2.23912">
        <ele>1373.03</ele>
        <time>2020-06-22T13:19:58Z</time>
      </trkpt>
      <trkpt lat="42.48928" lon="2.2392">
        <ele>1371.34</ele>
        <time>2020-06-22T13:20:14Z</time>
      </trkpt>
      <trkpt lat="42.48928" lon="2.23927">
        <ele>1369.51</ele>
        <time>2020-06-22T13:20:33Z</time>
      </trkpt>
      <trkpt lat="42.48936" lon="2.23936">
        <ele>1367.67</ele>
        <time>2020-06-22T13:20:52Z</time>
      </trkpt>
      <trkpt lat="42.48949" lon="2.23943">
        <ele>1365.87</ele>
        <time>2020-06-22T13:21:10Z</time>
      </trkpt>
      <trkpt lat="42.48956" lon="2.23949">
        <ele>1364.19</ele>
        <time>2020-06-22T13:21:28Z</time>
      </trkpt>
      <trkpt lat="42.48972" lon="2.23949">
        <ele>1362.25</ele>
        <time>2020-06-22T13:21:49Z</time>
      </trkpt>
      <trkpt lat="42.48983" lon="2.23954">
        <ele>1359.7</ele>
        <time>2020-06-22T13:22:03Z</time>
      </trkpt>
      <trkpt lat="42.48994" lon="2.23961">
        <ele>1357.89</ele>
        <time>2020-06-22T13:22:20Z</time>
      </trkpt>
      <trkpt lat="42.49001" lon="2.23967">
        <ele>1355.27</ele>
        <time>2020-06-22T13:22:37Z</time>
      </trkpt>
      <trkpt lat="42.49019" lon="2.23971">
        <ele>1352.64</ele>
        <time>2020-06-22T13:22:54Z</time>
      </trkpt>
      <trkpt lat="42.49035" lon="2.23976">
        <ele>1349.28</ele>
        <time>2020-06-22T13:23:10Z</time>
      </trkpt>
      <trkpt lat="42.49053" lon="2.23971">
        <ele>1346.46</ele>
        <time>2020-06-22T13:23:28Z</time>
      </trkpt>
      <trkpt lat="42.49069" lon="2.23962">
        <ele>1343.81</ele>
        <time>2020-06-22T13:23:46Z</time>
      </trkpt>
      <trkpt lat="42.49078" lon="2.23955">
        <ele>1340.47</ele>
        <time>2020-06-22T13:23:59Z</time>
      </trkpt>
      <trkpt lat="42.49087" lon="2.23943">
        <ele>1338.61</ele>
        <time>2020-06-22T13:24:14Z</time>
      </trkpt>
      <trkpt lat="42.49096" lon="2.23932">
        <ele>1336.85</ele>
        <time>2020-06-22T13:24:30Z</time>
      </trkpt>
      <trkpt lat="42.49097" lon="2.23932">
        <ele>1336.82</ele>
        <time>2020-06-22T13:24:32Z</time>
      </trkpt>
      <trkpt lat="42.49102" lon="2.23928">
        <ele>1335.79</ele>
        <time>2020-06-22T13:24:50Z</time>
      </trkpt>
      <trkpt lat="42.49102" lon="2.23928">
        <ele>1334.77</ele>
        <time>2020-06-22T13:25:08Z</time>
      </trkpt>
      <trkpt lat="42.49111" lon="2.2392">
        <ele>1333.01</ele>
        <time>2020-06-22T13:25:26Z</time>
      </trkpt>
      <trkpt lat="42.4912" lon="2.2391">
        <ele>1331.2</ele>
        <time>2020-06-22T13:25:43Z</time>
      </trkpt>
      <trkpt lat="42.49121" lon="2.23912">
        <ele>1331.01</ele>
        <time>2020-06-22T13:26:01Z</time>
      </trkpt>
      <trkpt lat="42.49127" lon="2.23907">
        <ele>1330.02</ele>
        <time>2020-06-22T13:26:17Z</time>
      </trkpt>
      <trkpt lat="42.49141" lon="2.239">
        <ele>1327.29</ele>
        <time>2020-06-22T13:26:36Z</time>
      </trkpt>
      <trkpt lat="42.49144" lon="2.239">
        <ele>1327.23</ele>
        <time>2020-06-22T13:26:41Z</time>
      </trkpt>
      <trkpt lat="42.49154" lon="2.239">
        <ele>1326.22</ele>
        <time>2020-06-22T13:26:59Z</time>
      </trkpt>
      <trkpt lat="42.49166" lon="2.23901">
        <ele>1323.55</ele>
        <time>2020-06-22T13:27:13Z</time>
      </trkpt>
      <trkpt lat="42.49178" lon="2.23905">
        <ele>1320.11</ele>
        <time>2020-06-22T13:27:30Z</time>
      </trkpt>
      <trkpt lat="42.4918" lon="2.23909">
        <ele>1319.15</ele>
        <time>2020-06-22T13:27:50Z</time>
      </trkpt>
      <trkpt lat="42.49197" lon="2.23912">
        <ele>1316.53</ele>
        <time>2020-06-22T13:28:13Z</time>
      </trkpt>
      <trkpt lat="42.4921" lon="2.239">
        <ele>1314.55</ele>
        <time>2020-06-22T13:28:32Z</time>
      </trkpt>
      <trkpt lat="42.49214" lon="2.239">
        <ele>1316.74</ele>
        <time>2020-06-22T13:28:40Z</time>
      </trkpt>
      <trkpt lat="42.49225" lon="2.23904">
        <ele>1319.17</ele>
        <time>2020-06-22T13:28:59Z</time>
      </trkpt>
      <trkpt lat="42.49235" lon="2.23907">
        <ele>1318.92</ele>
        <time>2020-06-22T13:29:18Z</time>
      </trkpt>
      <trkpt lat="42.49237" lon="2.23906">
        <ele>1316.59</ele>
        <time>2020-06-22T13:29:21Z</time>
      </trkpt>
      <trkpt lat="42.49242" lon="2.23907">
        <ele>1314.75</ele>
        <time>2020-06-22T13:29:37Z</time>
      </trkpt>
      <trkpt lat="42.49248" lon="2.23907">
        <ele>1311.09</ele>
        <time>2020-06-22T13:29:57Z</time>
      </trkpt>
      <trkpt lat="42.49252" lon="2.23907">
        <ele>1310.18</ele>
        <time>2020-06-22T13:30:12Z</time>
      </trkpt>
      <trkpt lat="42.49252" lon="2.23909">
        <ele>1307.38</ele>
        <time>2020-06-22T13:30:32Z</time>
      </trkpt>
      <trkpt lat="42.49255" lon="2.23911">
        <ele>1305.47</ele>
        <time>2020-06-22T13:30:50Z</time>
      </trkpt>
      <trkpt lat="42.49253" lon="2.23908">
        <ele>1305.17</ele>
        <time>2020-06-22T13:31:18Z</time>
      </trkpt>
      <trkpt lat="42.49265" lon="2.23915">
        <ele>1303.25</ele>
        <time>2020-06-22T13:31:37Z</time>
      </trkpt>
      <trkpt lat="42.4928" lon="2.23919">
        <ele>1301.43</ele>
        <time>2020-06-22T13:31:54Z</time>
      </trkpt>
      <trkpt lat="42.49296" lon="2.23923">
        <ele>1299.55</ele>
        <time>2020-06-22T13:32:10Z</time>
      </trkpt>
      <trkpt lat="42.49311" lon="2.23931">
        <ele>1296.95</ele>
        <time>2020-06-22T13:32:27Z</time>
      </trkpt>
      <trkpt lat="42.4932" lon="2.2393">
        <ele>1295.98</ele>
        <time>2020-06-22T13:32:41Z</time>
      </trkpt>
      <trkpt lat="42.49327" lon="2.2393">
        <ele>1295.03</ele>
        <time>2020-06-22T13:32:47Z</time>
      </trkpt>
      <trkpt lat="42.49339" lon="2.23923">
        <ele>1293.24</ele>
        <time>2020-06-22T13:33:00Z</time>
      </trkpt>
      <trkpt lat="42.49357" lon="2.23917">
        <ele>1290.52</ele>
        <time>2020-06-22T13:33:17Z</time>
      </trkpt>
      <trkpt lat="42.4937" lon="2.23908">
        <ele>1287.92</ele>
        <time>2020-06-22T13:33:33Z</time>
      </trkpt>
      <trkpt lat="42.49385" lon="2.23893">
        <ele>1285.31</ele>
        <time>2020-06-22T13:33:51Z</time>
      </trkpt>
      <trkpt lat="42.49395" lon="2.23881">
        <ele>1283.42</ele>
        <time>2020-06-22T13:34:09Z</time>
      </trkpt>
      <trkpt lat="42.494" lon="2.23876">
        <ele>1282.37</ele>
        <time>2020-06-22T13:34:19Z</time>
      </trkpt>
      <trkpt lat="42.49411" lon="2.23863">
        <ele>1279.16</ele>
        <time>2020-06-22T13:34:34Z</time>
      </trkpt>
      <trkpt lat="42.49423" lon="2.23844">
        <ele>1276.37</ele>
        <time>2020-06-22T13:34:54Z</time>
      </trkpt>
      <trkpt lat="42.49425" lon="2.23836">
        <ele>1275.33</ele>
        <time>2020-06-22T13:35:04Z</time>
      </trkpt>
      <trkpt lat="42.49436" lon="2.23824">
        <ele>1273.37</ele>
        <time>2020-06-22T13:35:20Z</time>
      </trkpt>
      <trkpt lat="42.49441" lon="2.23817">
        <ele>1272.58</ele>
        <time>2020-06-22T13:35:29Z</time>
      </trkpt>
      <trkpt lat="42.4945" lon="2.23803">
        <ele>1270.62</ele>
        <time>2020-06-22T13:35:45Z</time>
      </trkpt>
      <trkpt lat="42.49459" lon="2.23792">
        <ele>1269.68</ele>
        <time>2020-06-22T13:36:01Z</time>
      </trkpt>
      <trkpt lat="42.49472" lon="2.23783">
        <ele>1266.9</ele>
        <time>2020-06-22T13:36:18Z</time>
      </trkpt>
      <trkpt lat="42.49478" lon="2.23773">
        <ele>1265.93</ele>
        <time>2020-06-22T13:36:39Z</time>
      </trkpt>
      <trkpt lat="42.49485" lon="2.23768">
        <ele>1264.16</ele>
        <time>2020-06-22T13:36:55Z</time>
      </trkpt>
      <trkpt lat="42.49493" lon="2.23767">
        <ele>1262.38</ele>
        <time>2020-06-22T13:37:13Z</time>
      </trkpt>
      <trkpt lat="42.49498" lon="2.23766">
        <ele>1261.51</ele>
        <time>2020-06-22T13:37:31Z</time>
      </trkpt>
      <trkpt lat="42.49497" lon="2.23768">
        <ele>1261.41</ele>
        <time>2020-06-22T13:37:50Z</time>
      </trkpt>
      <trkpt lat="42.49498" lon="2.23761">
        <ele>1261.26</ele>
        <time>2020-06-22T13:38:08Z</time>
      </trkpt>
      <trkpt lat="42.49503" lon="2.23754">
        <ele>1258.53</ele>
        <time>2020-06-22T13:38:24Z</time>
      </trkpt>
      <trkpt lat="42.49504" lon="2.23754">
        <ele>1258.53</ele>
        <time>2020-06-22T13:38:25Z</time>
      </trkpt>
      <trkpt lat="42.49511" lon="2.23745">
        <ele>1257.7</ele>
        <time>2020-06-22T13:38:41Z</time>
      </trkpt>
      <trkpt lat="42.49514" lon="2.2374">
        <ele>1257.67</ele>
        <time>2020-06-22T13:38:59Z</time>
      </trkpt>
      <trkpt lat="42.49518" lon="2.23748">
        <ele>1257.58</ele>
        <time>2020-06-22T13:39:17Z</time>
      </trkpt>
      <trkpt lat="42.49516" lon="2.23753">
        <ele>1257.45</ele>
        <time>2020-06-22T13:39:37Z</time>
      </trkpt>
      <trkpt lat="42.49515" lon="2.23756">
        <ele>1257.4</ele>
        <time>2020-06-22T13:39:55Z</time>
      </trkpt>
      <trkpt lat="42.49518" lon="2.23753">
        <ele>1257.28</ele>
        <time>2020-06-22T13:40:17Z</time>
      </trkpt>
      <trkpt lat="42.49521" lon="2.23751">
        <ele>1257.26</ele>
        <time>2020-06-22T13:40:22Z</time>
      </trkpt>
      <trkpt lat="42.4953" lon="2.23737">
        <ele>1257.12</ele>
        <time>2020-06-22T13:40:37Z</time>
      </trkpt>
      <trkpt lat="42.49535" lon="2.23729">
        <ele>1256.36</ele>
        <time>2020-06-22T13:40:54Z</time>
      </trkpt>
      <trkpt lat="42.49535" lon="2.2373">
        <ele>1256.3</ele>
        <time>2020-06-22T13:41:05Z</time>
      </trkpt>
      <trkpt lat="42.49534" lon="2.23735">
        <ele>1256.25</ele>
        <time>2020-06-22T13:41:13Z</time>
      </trkpt>
      <trkpt lat="42.49536" lon="2.23746">
        <ele>1256.16</ele>
        <time>2020-06-22T13:41:35Z</time>
      </trkpt>
      <trkpt lat="42.49542" lon="2.23735">
        <ele>1253.63</ele>
        <time>2020-06-22T13:41:52Z</time>
      </trkpt>
      <trkpt lat="42.49547" lon="2.23725">
        <ele>1251.03</ele>
        <time>2020-06-22T13:42:10Z</time>
      </trkpt>
      <trkpt lat="42.49553" lon="2.23721">
        <ele>1250.28</ele>
        <time>2020-06-22T13:42:29Z</time>
      </trkpt>
      <trkpt lat="42.49563" lon="2.23722">
        <ele>1248.67</ele>
        <time>2020-06-22T13:42:47Z</time>
      </trkpt>
      <trkpt lat="42.49564" lon="2.23718">
        <ele>1248.72</ele>
        <time>2020-06-22T13:42:53Z</time>
      </trkpt>
      <trkpt lat="42.49574" lon="2.23719">
        <ele>1248.65</ele>
        <time>2020-06-22T13:43:12Z</time>
      </trkpt>
      <trkpt lat="42.49584" lon="2.23717">
        <ele>1246.79</ele>
        <time>2020-06-22T13:43:26Z</time>
      </trkpt>
      <trkpt lat="42.4959" lon="2.23715">
        <ele>1246.02</ele>
        <time>2020-06-22T13:43:43Z</time>
      </trkpt>
      <trkpt lat="42.49594" lon="2.2371">
        <ele>1244.4</ele>
        <time>2020-06-22T13:43:52Z</time>
      </trkpt>
      <trkpt lat="42.49604" lon="2.237">
        <ele>1242.51</ele>
        <time>2020-06-22T13:44:10Z</time>
      </trkpt>
      <trkpt lat="42.49608" lon="2.23698">
        <ele>1241.74</ele>
        <time>2020-06-22T13:44:17Z</time>
      </trkpt>
      <trkpt lat="42.49625" lon="2.23691">
        <ele>1239.3</ele>
        <time>2020-06-22T13:44:34Z</time>
      </trkpt>
      <trkpt lat="42.49639" lon="2.23681">
        <ele>1237.69</ele>
        <time>2020-06-22T13:44:50Z</time>
      </trkpt>
      <trkpt lat="42.49658" lon="2.23678">
        <ele>1236.89</ele>
        <time>2020-06-22T13:45:06Z</time>
      </trkpt>
      <trkpt lat="42.49672" lon="2.23677">
        <ele>1235.06</ele>
        <time>2020-06-22T13:45:22Z</time>
      </trkpt>
      <trkpt lat="42.49687" lon="2.23672">
        <ele>1234.19</ele>
        <time>2020-06-22T13:45:38Z</time>
      </trkpt>
      <trkpt lat="42.49699" lon="2.23668">
        <ele>1232.56</ele>
        <time>2020-06-22T13:45:57Z</time>
      </trkpt>
      <trkpt lat="42.49711" lon="2.23666">
        <ele>1231.65</ele>
        <time>2020-06-22T13:46:09Z</time>
      </trkpt>
      <trkpt lat="42.49725" lon="2.23659">
        <ele>1229</ele>
        <time>2020-06-22T13:46:27Z</time>
      </trkpt>
      <trkpt lat="42.49743" lon="2.23658">
        <ele>1227.22</ele>
        <time>2020-06-22T13:46:44Z</time>
      </trkpt>
      <trkpt lat="42.49754" lon="2.23657">
        <ele>1225.63</ele>
        <time>2020-06-22T13:46:58Z</time>
      </trkpt>
      <trkpt lat="42.49764" lon="2.23653">
        <ele>1223.7</ele>
        <time>2020-06-22T13:47:13Z</time>
      </trkpt>
      <trkpt lat="42.49777" lon="2.23649">
        <ele>1221.91</ele>
        <time>2020-06-22T13:47:33Z</time>
      </trkpt>
      <trkpt lat="42.49787" lon="2.23638">
        <ele>1218.98</ele>
        <time>2020-06-22T13:47:49Z</time>
      </trkpt>
      <trkpt lat="42.49802" lon="2.2363">
        <ele>1216.48</ele>
        <time>2020-06-22T13:48:05Z</time>
      </trkpt>
      <trkpt lat="42.49815" lon="2.23622">
        <ele>1214.73</ele>
        <time>2020-06-22T13:48:22Z</time>
      </trkpt>
      <trkpt lat="42.49826" lon="2.23616">
        <ele>1213.9</ele>
        <time>2020-06-22T13:48:44Z</time>
      </trkpt>
      <trkpt lat="42.49835" lon="2.23606">
        <ele>1211.79</ele>
        <time>2020-06-22T13:49:00Z</time>
      </trkpt>
      <trkpt lat="42.49843" lon="2.23597">
        <ele>1210.92</ele>
        <time>2020-06-22T13:49:13Z</time>
      </trkpt>
      <trkpt lat="42.49846" lon="2.23593">
        <ele>1210.1</ele>
        <time>2020-06-22T13:49:16Z</time>
      </trkpt>
      <trkpt lat="42.49856" lon="2.23582">
        <ele>1209.09</ele>
        <time>2020-06-22T13:49:27Z</time>
      </trkpt>
      <trkpt lat="42.49863" lon="2.23562">
        <ele>1206.5</ele>
        <time>2020-06-22T13:49:44Z</time>
      </trkpt>
      <trkpt lat="42.49876" lon="2.23548">
        <ele>1204.81</ele>
        <time>2020-06-22T13:50:00Z</time>
      </trkpt>
      <trkpt lat="42.49881" lon="2.23541">
        <ele>1203.99</ele>
        <time>2020-06-22T13:50:07Z</time>
      </trkpt>
      <trkpt lat="42.4989" lon="2.23526">
        <ele>1202.29</ele>
        <time>2020-06-22T13:50:21Z</time>
      </trkpt>
      <trkpt lat="42.49898" lon="2.23519">
        <ele>1200.43</ele>
        <time>2020-06-22T13:50:29Z</time>
      </trkpt>
      <trkpt lat="42.49913" lon="2.235">
        <ele>1198.68</ele>
        <time>2020-06-22T13:50:46Z</time>
      </trkpt>
      <trkpt lat="42.49914" lon="2.23497">
        <ele>1198.67</ele>
        <time>2020-06-22T13:50:48Z</time>
      </trkpt>
      <trkpt lat="42.4992" lon="2.23484">
        <ele>1196.88</ele>
        <time>2020-06-22T13:50:57Z</time>
      </trkpt>
      <trkpt lat="42.49926" lon="2.23476">
        <ele>1196.8</ele>
        <time>2020-06-22T13:51:04Z</time>
      </trkpt>
      <trkpt lat="42.49936" lon="2.23466">
        <ele>1194.81</ele>
        <time>2020-06-22T13:51:15Z</time>
      </trkpt>
      <trkpt lat="42.49945" lon="2.23455">
        <ele>1192.83</ele>
        <time>2020-06-22T13:51:29Z</time>
      </trkpt>
      <trkpt lat="42.49954" lon="2.23444">
        <ele>1189.89</ele>
        <time>2020-06-22T13:51:42Z</time>
      </trkpt>
      <trkpt lat="42.49964" lon="2.23435">
        <ele>1187.9</ele>
        <time>2020-06-22T13:51:54Z</time>
      </trkpt>
      <trkpt lat="42.49972" lon="2.2343">
        <ele>1186.16</ele>
        <time>2020-06-22T13:52:04Z</time>
      </trkpt>
      <trkpt lat="42.49976" lon="2.23424">
        <ele>1186.07</ele>
        <time>2020-06-22T13:52:10Z</time>
      </trkpt>
      <trkpt lat="42.49993" lon="2.23408">
        <ele>1183.14</ele>
        <time>2020-06-22T13:52:27Z</time>
      </trkpt>
      <trkpt lat="42.50009" lon="2.23399">
        <ele>1180.39</ele>
        <time>2020-06-22T13:52:43Z</time>
      </trkpt>
      <trkpt lat="42.50026" lon="2.23389">
        <ele>1178.44</ele>
        <time>2020-06-22T13:52:58Z</time>
      </trkpt>
      <trkpt lat="42.50038" lon="2.23375">
        <ele>1175.44</ele>
        <time>2020-06-22T13:53:15Z</time>
      </trkpt>
      <trkpt lat="42.50041" lon="2.23372">
        <ele>1175.41</ele>
        <time>2020-06-22T13:53:18Z</time>
      </trkpt>
      <trkpt lat="42.50043" lon="2.23369">
        <ele>1174.42</ele>
        <time>2020-06-22T13:53:32Z</time>
      </trkpt>
      <trkpt lat="42.50043" lon="2.23348">
        <ele>1172.57</ele>
        <time>2020-06-22T13:53:49Z</time>
      </trkpt>
      <trkpt lat="42.50042" lon="2.23327">
        <ele>1170.65</ele>
        <time>2020-06-22T13:54:07Z</time>
      </trkpt>
      <trkpt lat="42.50044" lon="2.23323">
        <ele>1170.59</ele>
        <time>2020-06-22T13:54:10Z</time>
      </trkpt>
      <trkpt lat="42.5004" lon="2.23294">
        <ele>1168.6</ele>
        <time>2020-06-22T13:54:28Z</time>
      </trkpt>
      <trkpt lat="42.50042" lon="2.23284">
        <ele>1167.63</ele>
        <time>2020-06-22T13:54:36Z</time>
      </trkpt>
      <trkpt lat="42.50045" lon="2.2328">
        <ele>1166.64</ele>
        <time>2020-06-22T13:54:41Z</time>
      </trkpt>
      <trkpt lat="42.50043" lon="2.23276">
        <ele>1166.6</ele>
        <time>2020-06-22T13:54:43Z</time>
      </trkpt>
      <trkpt lat="42.50045" lon="2.23277">
        <ele>1166.56</ele>
        <time>2020-06-22T13:54:48Z</time>
      </trkpt>
      <trkpt lat="42.50045" lon="2.23278">
        <ele>1166.36</ele>
        <time>2020-06-22T13:54:59Z</time>
      </trkpt>
      <trkpt lat="42.50043" lon="2.2328">
        <ele>1165.98</ele>
        <time>2020-06-22T13:55:21Z</time>
      </trkpt>
      <trkpt lat="42.5004" lon="2.23288">
        <ele>1165.7</ele>
        <time>2020-06-22T13:55:39Z</time>
      </trkpt>
      <trkpt lat="42.50043" lon="2.23272">
        <ele>1165.29</ele>
        <time>2020-06-22T13:55:57Z</time>
      </trkpt>
      <trkpt lat="42.50043" lon="2.2327">
        <ele>1165.26</ele>
        <time>2020-06-22T13:55:59Z</time>
      </trkpt>
      <trkpt lat="42.50056" lon="2.23266">
        <ele>1163.41</ele>
        <time>2020-06-22T13:56:15Z</time>
      </trkpt>
      <trkpt lat="42.50065" lon="2.23268">
        <ele>1160.7</ele>
        <time>2020-06-22T13:56:29Z</time>
      </trkpt>
      <trkpt lat="42.50077" lon="2.23274">
        <ele>1159.57</ele>
        <time>2020-06-22T13:56:40Z</time>
      </trkpt>
      <trkpt lat="42.50082" lon="2.2327">
        <ele>1158.71</ele>
        <time>2020-06-22T13:56:47Z</time>
      </trkpt>
      <trkpt lat="42.501" lon="2.2326">
        <ele>1156.12</ele>
        <time>2020-06-22T13:57:04Z</time>
      </trkpt>
      <trkpt lat="42.50114" lon="2.23242">
        <ele>1154.24</ele>
        <time>2020-06-22T13:57:21Z</time>
      </trkpt>
      <trkpt lat="42.50116" lon="2.23237">
        <ele>1153.42</ele>
        <time>2020-06-22T13:57:25Z</time>
      </trkpt>
      <trkpt lat="42.50125" lon="2.23221">
        <ele>1151.65</ele>
        <time>2020-06-22T13:57:41Z</time>
      </trkpt>
      <trkpt lat="42.5014" lon="2.23204">
        <ele>1149.86</ele>
        <time>2020-06-22T13:57:57Z</time>
      </trkpt>
      <trkpt lat="42.50148" lon="2.23178">
        <ele>1147.99</ele>
        <time>2020-06-22T13:58:16Z</time>
      </trkpt>
      <trkpt lat="42.50148" lon="2.23173">
        <ele>1147.95</ele>
        <time>2020-06-22T13:58:19Z</time>
      </trkpt>
      <trkpt lat="42.50154" lon="2.23152">
        <ele>1146.18</ele>
        <time>2020-06-22T13:58:33Z</time>
      </trkpt>
      <trkpt lat="42.50163" lon="2.23155">
        <ele>1145.92</ele>
        <time>2020-06-22T13:58:51Z</time>
      </trkpt>
      <trkpt lat="42.50167" lon="2.23152">
        <ele>1144.03</ele>
        <time>2020-06-22T13:59:04Z</time>
      </trkpt>
      <trkpt lat="42.50171" lon="2.23153">
        <ele>1143.94</ele>
        <time>2020-06-22T13:59:10Z</time>
      </trkpt>
      <trkpt lat="42.50175" lon="2.2314">
        <ele>1143.63</ele>
        <time>2020-06-22T13:59:33Z</time>
      </trkpt>
      <trkpt lat="42.50183" lon="2.23136">
        <ele>1143.35</ele>
        <time>2020-06-22T13:59:52Z</time>
      </trkpt>
      <trkpt lat="42.50185" lon="2.23136">
        <ele>1145.55</ele>
        <time>2020-06-22T14:00:03Z</time>
      </trkpt>
      <trkpt lat="42.5019" lon="2.23139">
        <ele>1142.88</ele>
        <time>2020-06-22T14:00:19Z</time>
      </trkpt>
      <trkpt lat="42.50192" lon="2.23141">
        <ele>1141.83</ele>
        <time>2020-06-22T14:00:26Z</time>
      </trkpt>
      <trkpt lat="42.50198" lon="2.23144">
        <ele>1139.96</ele>
        <time>2020-06-22T14:00:44Z</time>
      </trkpt>
      <trkpt lat="42.50204" lon="2.23147">
        <ele>1138.97</ele>
        <time>2020-06-22T14:01:05Z</time>
      </trkpt>
      <trkpt lat="42.50205" lon="2.23152">
        <ele>1137.2</ele>
        <time>2020-06-22T14:01:24Z</time>
      </trkpt>
      <trkpt lat="42.50207" lon="2.23153">
        <ele>1137.04</ele>
        <time>2020-06-22T14:01:43Z</time>
      </trkpt>
      <trkpt lat="42.50208" lon="2.23153">
        <ele>1137</ele>
        <time>2020-06-22T14:01:48Z</time>
      </trkpt>
      <trkpt lat="42.50214" lon="2.23151">
        <ele>1136.03</ele>
        <time>2020-06-22T14:02:12Z</time>
      </trkpt>
      <trkpt lat="42.50219" lon="2.23148">
        <ele>1135.11</ele>
        <time>2020-06-22T14:02:28Z</time>
      </trkpt>
      <trkpt lat="42.50221" lon="2.23139">
        <ele>1133.44</ele>
        <time>2020-06-22T14:02:45Z</time>
      </trkpt>
      <trkpt lat="42.50227" lon="2.23126">
        <ele>1131.78</ele>
        <time>2020-06-22T14:03:03Z</time>
      </trkpt>
      <trkpt lat="42.5023" lon="2.23116">
        <ele>1129.1</ele>
        <time>2020-06-22T14:03:20Z</time>
      </trkpt>
      <trkpt lat="42.50232" lon="2.23108">
        <ele>1129.05</ele>
        <time>2020-06-22T14:03:38Z</time>
      </trkpt>
      <trkpt lat="42.50233" lon="2.23108">
        <ele>1129.04</ele>
        <time>2020-06-22T14:03:40Z</time>
      </trkpt>
      <trkpt lat="42.50238" lon="2.23108">
        <ele>1128.91</ele>
        <time>2020-06-22T14:04:05Z</time>
      </trkpt>
      <trkpt lat="42.50238" lon="2.23102">
        <ele>1128.7</ele>
        <time>2020-06-22T14:04:29Z</time>
      </trkpt>
      <trkpt lat="42.50235" lon="2.23092">
        <ele>1128.57</ele>
        <time>2020-06-22T14:04:45Z</time>
      </trkpt>
      <trkpt lat="42.50237" lon="2.23081">
        <ele>1128.42</ele>
        <time>2020-06-22T14:05:00Z</time>
      </trkpt>
      <trkpt lat="42.50238" lon="2.23082">
        <ele>1128.4</ele>
        <time>2020-06-22T14:05:02Z</time>
      </trkpt>
      <trkpt lat="42.50241" lon="2.2308">
        <ele>1127.57</ele>
        <time>2020-06-22T14:05:07Z</time>
      </trkpt>
      <trkpt lat="42.50255" lon="2.23071">
        <ele>1125.57</ele>
        <time>2020-06-22T14:05:23Z</time>
      </trkpt>
      <trkpt lat="42.50262" lon="2.23066">
        <ele>1123.86</ele>
        <time>2020-06-22T14:05:38Z</time>
      </trkpt>
      <trkpt lat="42.50262" lon="2.23064">
        <ele>1122.08</ele>
        <time>2020-06-22T14:05:51Z</time>
      </trkpt>
      <trkpt lat="42.50261" lon="2.23053">
        <ele>1120.36</ele>
        <time>2020-06-22T14:06:06Z</time>
      </trkpt>
      <trkpt lat="42.5026" lon="2.23046">
        <ele>1120.33</ele>
        <time>2020-06-22T14:06:14Z</time>
      </trkpt>
      <trkpt lat="42.50273" lon="2.23037">
        <ele>1118.67</ele>
        <time>2020-06-22T14:06:32Z</time>
      </trkpt>
      <trkpt lat="42.50281" lon="2.23038">
        <ele>1118.59</ele>
        <time>2020-06-22T14:06:51Z</time>
      </trkpt>
      <trkpt lat="42.50286" lon="2.23046">
        <ele>1118.49</ele>
        <time>2020-06-22T14:07:07Z</time>
      </trkpt>
      <trkpt lat="42.50286" lon="2.23047">
        <ele>1120.74</ele>
        <time>2020-06-22T14:07:09Z</time>
      </trkpt>
      <trkpt lat="42.50285" lon="2.23049">
        <ele>1120.62</ele>
        <time>2020-06-22T14:07:27Z</time>
      </trkpt>
      <trkpt lat="42.50286" lon="2.23049">
        <ele>1120.61</ele>
        <time>2020-06-22T14:07:29Z</time>
      </trkpt>
      <trkpt lat="42.50284" lon="2.23046">
        <ele>1120.56</ele>
        <time>2020-06-22T14:07:37Z</time>
      </trkpt>
      <trkpt lat="42.50284" lon="2.23032">
        <ele>1120.42</ele>
        <time>2020-06-22T14:07:59Z</time>
      </trkpt>
      <trkpt lat="42.50286" lon="2.23031">
        <ele>1120.38</ele>
        <time>2020-06-22T14:08:08Z</time>
      </trkpt>
      <trkpt lat="42.50294" lon="2.23048">
        <ele>1120.23</ele>
        <time>2020-06-22T14:08:36Z</time>
      </trkpt>
      <trkpt lat="42.50296" lon="2.23047">
        <ele>1120.12</ele>
        <time>2020-06-22T14:08:51Z</time>
      </trkpt>
      <trkpt lat="42.50296" lon="2.23047">
        <ele>1117.82</ele>
        <time>2020-06-22T14:08:55Z</time>
      </trkpt>
      <trkpt lat="42.50302" lon="2.23049">
        <ele>1115.02</ele>
        <time>2020-06-22T14:09:11Z</time>
      </trkpt>
      <trkpt lat="42.5031" lon="2.23048">
        <ele>1114.18</ele>
        <time>2020-06-22T14:09:26Z</time>
      </trkpt>
      <trkpt lat="42.50318" lon="2.23046">
        <ele>1113.36</ele>
        <time>2020-06-22T14:09:33Z</time>
      </trkpt>
      <trkpt lat="42.50327" lon="2.23044">
        <ele>1112.53</ele>
        <time>2020-06-22T14:09:48Z</time>
      </trkpt>
      <trkpt lat="42.5033" lon="2.23035">
        <ele>1112.54</ele>
        <time>2020-06-22T14:10:00Z</time>
      </trkpt>
      <trkpt lat="42.5033" lon="2.23033">
        <ele>1112.54</ele>
        <time>2020-06-22T14:10:02Z</time>
      </trkpt>
      <trkpt lat="42.5034" lon="2.23025">
        <ele>1112.56</ele>
        <time>2020-06-22T14:10:20Z</time>
      </trkpt>
      <trkpt lat="42.50347" lon="2.23021">
        <ele>1110.93</ele>
        <time>2020-06-22T14:10:34Z</time>
      </trkpt>
      <trkpt lat="42.50349" lon="2.23018">
        <ele>1110.19</ele>
        <time>2020-06-22T14:10:39Z</time>
      </trkpt>
      <trkpt lat="42.50355" lon="2.23008">
        <ele>1109.37</ele>
        <time>2020-06-22T14:10:49Z</time>
      </trkpt>
      <trkpt lat="42.50357" lon="2.23002">
        <ele>1108.48</ele>
        <time>2020-06-22T14:10:57Z</time>
      </trkpt>
      <trkpt lat="42.50361" lon="2.22992">
        <ele>1108.65</ele>
        <time>2020-06-22T14:11:07Z</time>
      </trkpt>
      <trkpt lat="42.50365" lon="2.2298">
        <ele>1108.76</ele>
        <time>2020-06-22T14:11:20Z</time>
      </trkpt>
      <trkpt lat="42.50367" lon="2.22979">
        <ele>1107.97</ele>
        <time>2020-06-22T14:11:27Z</time>
      </trkpt>
      <trkpt lat="42.50379" lon="2.2297">
        <ele>1106.56</ele>
        <time>2020-06-22T14:11:46Z</time>
      </trkpt>
      <trkpt lat="42.50386" lon="2.22969">
        <ele>1105.75</ele>
        <time>2020-06-22T14:11:58Z</time>
      </trkpt>
      <trkpt lat="42.50395" lon="2.22977">
        <ele>1105.96</ele>
        <time>2020-06-22T14:12:12Z</time>
      </trkpt>
      <trkpt lat="42.50404" lon="2.22983">
        <ele>1105.41</ele>
        <time>2020-06-22T14:12:29Z</time>
      </trkpt>
      <trkpt lat="42.50412" lon="2.22993">
        <ele>1104.78</ele>
        <time>2020-06-22T14:12:45Z</time>
      </trkpt>
      <trkpt lat="42.50421" lon="2.22998">
        <ele>1103.42</ele>
        <time>2020-06-22T14:13:01Z</time>
      </trkpt>
      <trkpt lat="42.50424" lon="2.22997">
        <ele>1102.67</ele>
        <time>2020-06-22T14:13:05Z</time>
      </trkpt>
      <trkpt lat="42.50432" lon="2.23007">
        <ele>1102.92</ele>
        <time>2020-06-22T14:13:23Z</time>
      </trkpt>
      <trkpt lat="42.50439" lon="2.2301">
        <ele>1103.18</ele>
        <time>2020-06-22T14:13:41Z</time>
      </trkpt>
      <trkpt lat="42.50446" lon="2.23015">
        <ele>1103.5</ele>
        <time>2020-06-22T14:14:03Z</time>
      </trkpt>
      <trkpt lat="42.50448" lon="2.23028">
        <ele>1102.85</ele>
        <time>2020-06-22T14:14:19Z</time>
      </trkpt>
      <trkpt lat="42.50448" lon="2.23041">
        <ele>1102.12</ele>
        <time>2020-06-22T14:14:35Z</time>
      </trkpt>
      <trkpt lat="42.50452" lon="2.23042">
        <ele>1101.46</ele>
        <time>2020-06-22T14:14:45Z</time>
      </trkpt>
      <trkpt lat="42.50448" lon="2.23052">
        <ele>1101.6</ele>
        <time>2020-06-22T14:14:57Z</time>
      </trkpt>
      <trkpt lat="42.50448" lon="2.23054">
        <ele>1100.91</ele>
        <time>2020-06-22T14:15:16Z</time>
      </trkpt>
      <trkpt lat="42.50453" lon="2.23055">
        <ele>1100.14</ele>
        <time>2020-06-22T14:15:33Z</time>
      </trkpt>
      <trkpt lat="42.50452" lon="2.23052">
        <ele>1100.35</ele>
        <time>2020-06-22T14:15:54Z</time>
      </trkpt>
      <trkpt lat="42.50453" lon="2.23055">
        <ele>1098.49</ele>
        <time>2020-06-22T14:16:03Z</time>
      </trkpt>
      <trkpt lat="42.50453" lon="2.23056">
        <ele>1100.78</ele>
        <time>2020-06-22T14:16:05Z</time>
      </trkpt>
      <trkpt lat="42.50454" lon="2.23052">
        <ele>1100.83</ele>
        <time>2020-06-22T14:16:14Z</time>
      </trkpt>
      <trkpt lat="42.50457" lon="2.23051">
        <ele>1100.86</ele>
        <time>2020-06-22T14:16:31Z</time>
      </trkpt>
      <trkpt lat="42.50457" lon="2.23053">
        <ele>1098.58</ele>
        <time>2020-06-22T14:16:35Z</time>
      </trkpt>
      <trkpt lat="42.50467" lon="2.23059">
        <ele>1097.03</ele>
        <time>2020-06-22T14:16:56Z</time>
      </trkpt>
      <trkpt lat="42.50472" lon="2.23056">
        <ele>1096.19</ele>
        <time>2020-06-22T14:17:11Z</time>
      </trkpt>
      <trkpt lat="42.50476" lon="2.23037">
        <ele>1093.41</ele>
        <time>2020-06-22T14:17:28Z</time>
      </trkpt>
      <trkpt lat="42.50481" lon="2.23023">
        <ele>1092.62</ele>
        <time>2020-06-22T14:17:44Z</time>
      </trkpt>
      <trkpt lat="42.50481" lon="2.23007">
        <ele>1090.99</ele>
        <time>2020-06-22T14:18:01Z</time>
      </trkpt>
      <trkpt lat="42.50486" lon="2.22998">
        <ele>1089.22</ele>
        <time>2020-06-22T14:18:14Z</time>
      </trkpt>
      <trkpt lat="42.5049" lon="2.22991">
        <ele>1087.6</ele>
        <time>2020-06-22T14:18:31Z</time>
      </trkpt>
      <trkpt lat="42.50494" lon="2.22986">
        <ele>1087.57</ele>
        <time>2020-06-22T14:18:48Z</time>
      </trkpt>
      <trkpt lat="42.50499" lon="2.23006">
        <ele>1087.51</ele>
        <time>2020-06-22T14:19:02Z</time>
      </trkpt>
      <trkpt lat="42.50504" lon="2.23012">
        <ele>1087.45</ele>
        <time>2020-06-22T14:19:08Z</time>
      </trkpt>
      <trkpt lat="42.50511" lon="2.23017">
        <ele>1087.33</ele>
        <time>2020-06-22T14:19:21Z</time>
      </trkpt>
      <trkpt lat="42.50512" lon="2.23015">
        <ele>1087.27</ele>
        <time>2020-06-22T14:19:31Z</time>
      </trkpt>
      <trkpt lat="42.50511" lon="2.23007">
        <ele>1087.22</ele>
        <time>2020-06-22T14:19:37Z</time>
      </trkpt>
      <trkpt lat="42.50519" lon="2.22999">
        <ele>1087.21</ele>
        <time>2020-06-22T14:19:44Z</time>
      </trkpt>
      <trkpt lat="42.50526" lon="2.23001">
        <ele>1085.43</ele>
        <time>2020-06-22T14:20:03Z</time>
      </trkpt>
      <trkpt lat="42.5053" lon="2.23014">
        <ele>1083.7</ele>
        <time>2020-06-22T14:20:19Z</time>
      </trkpt>
      <trkpt lat="42.50536" lon="2.23018">
        <ele>1083.72</ele>
        <time>2020-06-22T14:20:37Z</time>
      </trkpt>
      <trkpt lat="42.50537" lon="2.23019">
        <ele>1083.63</ele>
        <time>2020-06-22T14:20:58Z</time>
      </trkpt>
      <trkpt lat="42.50534" lon="2.23018">
        <ele>1083.49</ele>
        <time>2020-06-22T14:21:16Z</time>
      </trkpt>
      <trkpt lat="42.50536" lon="2.23016">
        <ele>1083.38</ele>
        <time>2020-06-22T14:21:35Z</time>
      </trkpt>
      <trkpt lat="42.50536" lon="2.23028">
        <ele>1081.56</ele>
        <time>2020-06-22T14:21:51Z</time>
      </trkpt>
      <trkpt lat="42.50536" lon="2.2304">
        <ele>1080.63</ele>
        <time>2020-06-22T14:22:10Z</time>
      </trkpt>
      <trkpt lat="42.50527" lon="2.23055">
        <ele>1079.69</ele>
        <time>2020-06-22T14:22:26Z</time>
      </trkpt>
      <trkpt lat="42.50524" lon="2.23065">
        <ele>1077.81</ele>
        <time>2020-06-22T14:22:42Z</time>
      </trkpt>
      <trkpt lat="42.50521" lon="2.23076">
        <ele>1077.77</ele>
        <time>2020-06-22T14:23:00Z</time>
      </trkpt>
      <trkpt lat="42.50522" lon="2.23079">
        <ele>1077.72</ele>
        <time>2020-06-22T14:23:07Z</time>
      </trkpt>
      <trkpt lat="42.50518" lon="2.2309">
        <ele>1077.62</ele>
        <time>2020-06-22T14:23:23Z</time>
      </trkpt>
      <trkpt lat="42.50518" lon="2.23091">
        <ele>1077.6</ele>
        <time>2020-06-22T14:23:24Z</time>
      </trkpt>
      <trkpt lat="42.50515" lon="2.23094">
        <ele>1076.47</ele>
        <time>2020-06-22T14:23:36Z</time>
      </trkpt>
      <trkpt lat="42.50508" lon="2.23103">
        <ele>1075.48</ele>
        <time>2020-06-22T14:23:54Z</time>
      </trkpt>
      <trkpt lat="42.50509" lon="2.23118">
        <ele>1073.81</ele>
        <time>2020-06-22T14:24:10Z</time>
      </trkpt>
      <trkpt lat="42.50512" lon="2.23125">
        <ele>1073.77</ele>
        <time>2020-06-22T14:24:18Z</time>
      </trkpt>
      <trkpt lat="42.50514" lon="2.23133">
        <ele>1072.07</ele>
        <time>2020-06-22T14:24:26Z</time>
      </trkpt>
      <trkpt lat="42.5052" lon="2.23136">
        <ele>1072.03</ele>
        <time>2020-06-22T14:24:31Z</time>
      </trkpt>
      <trkpt lat="42.50523" lon="2.23137">
        <ele>1071.99</ele>
        <time>2020-06-22T14:24:48Z</time>
      </trkpt>
      <trkpt lat="42.50523" lon="2.23133">
        <ele>1071.88</ele>
        <time>2020-06-22T14:25:01Z</time>
      </trkpt>
      <trkpt lat="42.50521" lon="2.23138">
        <ele>1070.89</ele>
        <time>2020-06-22T14:25:12Z</time>
      </trkpt>
      <trkpt lat="42.50508" lon="2.23125">
        <ele>1070.73</ele>
        <time>2020-06-22T14:25:37Z</time>
      </trkpt>
      <trkpt lat="42.505" lon="2.23118">
        <ele>1068.75</ele>
        <time>2020-06-22T14:25:52Z</time>
      </trkpt>
      <trkpt lat="42.50495" lon="2.23112">
        <ele>1064.92</ele>
        <time>2020-06-22T14:26:13Z</time>
      </trkpt>
      <trkpt lat="42.50487" lon="2.23099">
        <ele>1064.06</ele>
        <time>2020-06-22T14:26:21Z</time>
      </trkpt>
      <trkpt lat="42.50521" lon="2.23136">
        <ele>1063.14</ele>
        <time>2020-06-22T14:26:41Z</time>
      </trkpt>
      <trkpt lat="42.50532" lon="2.23138">
        <ele>1063.13</ele>
        <time>2020-06-22T14:26:47Z</time>
      </trkpt>
      <trkpt lat="42.50542" lon="2.23141">
        <ele>1063.13</ele>
        <time>2020-06-22T14:26:54Z</time>
      </trkpt>
      <trkpt lat="42.5055" lon="2.23143">
        <ele>1063.13</ele>
        <time>2020-06-22T14:26:58Z</time>
      </trkpt>
      <trkpt lat="42.50562" lon="2.23145">
        <ele>1063.14</ele>
        <time>2020-06-22T14:27:20Z</time>
      </trkpt>
      <trkpt lat="42.50568" lon="2.23144">
        <ele>1063.13</ele>
        <time>2020-06-22T14:27:25Z</time>
      </trkpt>
      <trkpt lat="42.50578" lon="2.23139">
        <ele>1063.16</ele>
        <time>2020-06-22T14:27:44Z</time>
      </trkpt>
      <trkpt lat="42.50588" lon="2.23137">
        <ele>1063.15</ele>
        <time>2020-06-22T14:27:47Z</time>
      </trkpt>
      <trkpt lat="42.50597" lon="2.23127">
        <ele>1062.36</ele>
        <time>2020-06-22T14:28:03Z</time>
      </trkpt>
      <trkpt lat="42.50605" lon="2.23122">
        <ele>1058.96</ele>
        <time>2020-06-22T14:28:22Z</time>
      </trkpt>
      <trkpt lat="42.5061" lon="2.23113">
        <ele>1058.22</ele>
        <time>2020-06-22T14:28:45Z</time>
      </trkpt>
      <trkpt lat="42.50612" lon="2.23108">
        <ele>1055.77</ele>
        <time>2020-06-22T14:28:57Z</time>
      </trkpt>
      <trkpt lat="42.50617" lon="2.23106">
        <ele>1054.16</ele>
        <time>2020-06-22T14:29:10Z</time>
      </trkpt>
      <trkpt lat="42.50622" lon="2.23102">
        <ele>1054.45</ele>
        <time>2020-06-22T14:29:28Z</time>
      </trkpt>
      <trkpt lat="42.50629" lon="2.23092">
        <ele>1056.94</ele>
        <time>2020-06-22T14:29:51Z</time>
      </trkpt>
      <trkpt lat="42.50647" lon="2.23137">
        <ele>1057.17</ele>
        <time>2020-06-22T14:30:12Z</time>
      </trkpt>
      <trkpt lat="42.50653" lon="2.23139">
        <ele>1058.2</ele>
        <time>2020-06-22T14:30:32Z</time>
      </trkpt>
      <trkpt lat="42.50662" lon="2.23138">
        <ele>1058.37</ele>
        <time>2020-06-22T14:30:48Z</time>
      </trkpt>
      <trkpt lat="42.50672" lon="2.23138">
        <ele>1058.55</ele>
        <time>2020-06-22T14:31:04Z</time>
      </trkpt>
      <trkpt lat="42.50677" lon="2.23135">
        <ele>1058.67</ele>
        <time>2020-06-22T14:31:11Z</time>
      </trkpt>
      <trkpt lat="42.5068" lon="2.23134">
        <ele>1056.27</ele>
        <time>2020-06-22T14:31:13Z</time>
      </trkpt>
      <trkpt lat="42.50679" lon="2.23135">
        <ele>1054.72</ele>
        <time>2020-06-22T14:31:28Z</time>
      </trkpt>
      <trkpt lat="42.50683" lon="2.23132">
        <ele>1052.58</ele>
        <time>2020-06-22T14:31:46Z</time>
      </trkpt>
      <trkpt lat="42.50686" lon="2.23132">
        <ele>1052.91</ele>
        <time>2020-06-22T14:32:01Z</time>
      </trkpt>
      <trkpt lat="42.50689" lon="2.23133">
        <ele>1053.18</ele>
        <time>2020-06-22T14:32:17Z</time>
      </trkpt>
      <trkpt lat="42.50693" lon="2.23137">
        <ele>1051.8</ele>
        <time>2020-06-22T14:32:32Z</time>
      </trkpt>
      <trkpt lat="42.50698" lon="2.23139">
        <ele>1052.12</ele>
        <time>2020-06-22T14:32:51Z</time>
      </trkpt>
      <trkpt lat="42.50703" lon="2.23136">
        <ele>1050.79</ele>
        <time>2020-06-22T14:33:09Z</time>
      </trkpt>
      <trkpt lat="42.50709" lon="2.23132">
        <ele>1050.18</ele>
        <time>2020-06-22T14:33:20Z</time>
      </trkpt>
      <trkpt lat="42.50713" lon="2.23126">
        <ele>1050.33</ele>
        <time>2020-06-22T14:33:28Z</time>
      </trkpt>
      <trkpt lat="42.50724" lon="2.23117">
        <ele>1050.37</ele>
        <time>2020-06-22T14:33:30Z</time>
      </trkpt>
      <trkpt lat="42.50731" lon="2.23106">
        <ele>1050.4</ele>
        <time>2020-06-22T14:33:32Z</time>
      </trkpt>
      <trkpt lat="42.50736" lon="2.23099">
        <ele>1049.67</ele>
        <time>2020-06-22T14:33:36Z</time>
      </trkpt>
      <trkpt lat="42.50741" lon="2.23096">
        <ele>1049.73</ele>
        <time>2020-06-22T14:33:40Z</time>
      </trkpt>
      <trkpt lat="42.50757" lon="2.23095">
        <ele>1048.42</ele>
        <time>2020-06-22T14:33:56Z</time>
      </trkpt>
      <trkpt lat="42.50759" lon="2.23093">
        <ele>1048.47</ele>
        <time>2020-06-22T14:34:00Z</time>
      </trkpt>
      <trkpt lat="42.5076" lon="2.23091">
        <ele>1048.82</ele>
        <time>2020-06-22T14:34:20Z</time>
      </trkpt>
      <trkpt lat="42.50761" lon="2.23089">
        <ele>1049.09</ele>
        <time>2020-06-22T14:34:43Z</time>
      </trkpt>
      <trkpt lat="42.50763" lon="2.23087">
        <ele>1049.13</ele>
        <time>2020-06-22T14:34:46Z</time>
      </trkpt>
      <trkpt lat="42.50765" lon="2.23084">
        <ele>1049.15</ele>
        <time>2020-06-22T14:34:48Z</time>
      </trkpt>
      <trkpt lat="42.50767" lon="2.23082">
        <ele>1048.55</ele>
        <time>2020-06-22T14:35:02Z</time>
      </trkpt>
      <trkpt lat="42.50769" lon="2.23081">
        <ele>1048.56</ele>
        <time>2020-06-22T14:35:03Z</time>
      </trkpt>
      <trkpt lat="42.50774" lon="2.23075">
        <ele>1048.75</ele>
        <time>2020-06-22T14:35:20Z</time>
      </trkpt>
      <trkpt lat="42.50779" lon="2.23067">
        <ele>1048.84</ele>
        <time>2020-06-22T14:35:32Z</time>
      </trkpt>
      <trkpt lat="42.5078" lon="2.23064">
        <ele>1048.08</ele>
        <time>2020-06-22T14:35:40Z</time>
      </trkpt>
      <trkpt lat="42.50783" lon="2.2306">
        <ele>1048.18</ele>
        <time>2020-06-22T14:35:50Z</time>
      </trkpt>
      <trkpt lat="42.50784" lon="2.23057">
        <ele>1047.38</ele>
        <time>2020-06-22T14:36:01Z</time>
      </trkpt>
      <trkpt lat="42.50785" lon="2.23054">
        <ele>1047.4</ele>
        <time>2020-06-22T14:36:05Z</time>
      </trkpt>
      <trkpt lat="42.50787" lon="2.23053">
        <ele>1046.72</ele>
        <time>2020-06-22T14:36:19Z</time>
      </trkpt>
      <trkpt lat="42.5079" lon="2.2305">
        <ele>1046.8</ele>
        <time>2020-06-22T14:36:39Z</time>
      </trkpt>
      <trkpt lat="42.50792" lon="2.23047">
        <ele>1046.84</ele>
        <time>2020-06-22T14:36:47Z</time>
      </trkpt>
      <trkpt lat="42.50792" lon="2.23044">
        <ele>1046.84</ele>
        <time>2020-06-22T14:36:49Z</time>
      </trkpt>
      <trkpt lat="42.50795" lon="2.23042">
        <ele>1045.29</ele>
        <time>2020-06-22T14:37:09Z</time>
      </trkpt>
      <trkpt lat="42.50796" lon="2.2304">
        <ele>1045.31</ele>
        <time>2020-06-22T14:37:14Z</time>
      </trkpt>
      <trkpt lat="42.50797" lon="2.23037">
        <ele>1045.37</ele>
        <time>2020-06-22T14:37:27Z</time>
      </trkpt>
      <trkpt lat="42.50801" lon="2.23035">
        <ele>1044.56</ele>
        <time>2020-06-22T14:37:43Z</time>
      </trkpt>
      <trkpt lat="42.50804" lon="2.23033">
        <ele>1043.8</ele>
        <time>2020-06-22T14:37:57Z</time>
      </trkpt>
      <trkpt lat="42.50806" lon="2.2303">
        <ele>1046.25</ele>
        <time>2020-06-22T14:38:09Z</time>
      </trkpt>
      <trkpt lat="42.50819" lon="2.23016">
        <ele>1046.91</ele>
        <time>2020-06-22T14:38:30Z</time>
      </trkpt>
      <trkpt lat="42.50811" lon="2.23022">
        <ele>1043.29</ele>
        <time>2020-06-22T14:38:33Z</time>
      </trkpt>
      <trkpt lat="42.50817" lon="2.23018">
        <ele>1047.96</ele>
        <time>2020-06-22T14:38:34Z</time>
      </trkpt>
      <trkpt lat="42.50813" lon="2.23023">
        <ele>1047.94</ele>
        <time>2020-06-22T14:38:44Z</time>
      </trkpt>
      <trkpt lat="42.50813" lon="2.23023">
        <ele>1047.94</ele>
        <time>2020-06-22T14:39:03Z</time>
      </trkpt>
      <trkpt lat="42.50813" lon="2.23021">
        <ele>1050.34</ele>
        <time>2020-06-22T14:39:16Z</time>
      </trkpt>
      <trkpt lat="42.50814" lon="2.23022">
        <ele>1051.14</ele>
        <time>2020-06-22T14:39:23Z</time>
      </trkpt>
      <trkpt lat="42.50812" lon="2.23022">
        <ele>1052.07</ele>
        <time>2020-06-22T14:39:29Z</time>
      </trkpt>
      <trkpt lat="42.50812" lon="2.23023">
        <ele>1052.92</ele>
        <time>2020-06-22T14:39:31Z</time>
      </trkpt>
      <trkpt lat="42.50811" lon="2.23024">
        <ele>1053.69</ele>
        <time>2020-06-22T14:39:37Z</time>
      </trkpt>
      <trkpt lat="42.50811" lon="2.23025">
        <ele>1054.54</ele>
        <time>2020-06-22T14:39:45Z</time>
      </trkpt>
      <trkpt lat="42.5082" lon="2.23014">
        <ele>1058.62</ele>
        <time>2020-06-22T14:40:01Z</time>
      </trkpt>
      <trkpt lat="42.50822" lon="2.23012">
        <ele>1058.61</ele>
        <time>2020-06-22T14:40:03Z</time>
      </trkpt>
      <trkpt lat="42.50823" lon="2.2301">
        <ele>1060.85</ele>
        <time>2020-06-22T14:40:22Z</time>
      </trkpt>
      <trkpt lat="42.50827" lon="2.23007">
        <ele>1063.16</ele>
        <time>2020-06-22T14:40:44Z</time>
      </trkpt>
      <trkpt lat="42.5083" lon="2.23005">
        <ele>1062.9</ele>
        <time>2020-06-22T14:41:06Z</time>
      </trkpt>
      <trkpt lat="42.50831" lon="2.23002">
        <ele>1062.84</ele>
        <time>2020-06-22T14:41:13Z</time>
      </trkpt>
      <trkpt lat="42.50831" lon="2.23002">
        <ele>1063.57</ele>
        <time>2020-06-22T14:41:33Z</time>
      </trkpt>
      <trkpt lat="42.50841" lon="2.22999">
        <ele>1065.04</ele>
        <time>2020-06-22T14:41:49Z</time>
      </trkpt>
      <trkpt lat="42.5085" lon="2.22991">
        <ele>1067.96</ele>
        <time>2020-06-22T14:42:06Z</time>
      </trkpt>
      <trkpt lat="42.50852" lon="2.22986">
        <ele>1070.21</ele>
        <time>2020-06-22T14:42:24Z</time>
      </trkpt>
      <trkpt lat="42.50854" lon="2.22982">
        <ele>1070.15</ele>
        <time>2020-06-22T14:42:29Z</time>
      </trkpt>
      <trkpt lat="42.50859" lon="2.22978">
        <ele>1071.62</ele>
        <time>2020-06-22T14:42:39Z</time>
      </trkpt>
      <trkpt lat="42.5086" lon="2.22973">
        <ele>1072.16</ele>
        <time>2020-06-22T14:42:57Z</time>
      </trkpt>
      <trkpt lat="42.50865" lon="2.22974">
        <ele>1072.68</ele>
        <time>2020-06-22T14:43:15Z</time>
      </trkpt>
      <trkpt lat="42.50868" lon="2.22971">
        <ele>1070.17</ele>
        <time>2020-06-22T14:43:34Z</time>
      </trkpt>
      <trkpt lat="42.5087" lon="2.22964">
        <ele>1070.15</ele>
        <time>2020-06-22T14:43:35Z</time>
      </trkpt>
      <trkpt lat="42.50869" lon="2.22964">
        <ele>1068.4</ele>
        <time>2020-06-22T14:43:53Z</time>
      </trkpt>
      <trkpt lat="42.50873" lon="2.2296">
        <ele>1066.5</ele>
        <time>2020-06-22T14:44:09Z</time>
      </trkpt>
      <trkpt lat="42.50873" lon="2.22958">
        <ele>1066.25</ele>
        <time>2020-06-22T14:44:33Z</time>
      </trkpt>
      <trkpt lat="42.50873" lon="2.22955">
        <ele>1066.22</ele>
        <time>2020-06-22T14:44:35Z</time>
      </trkpt>
      <trkpt lat="42.50877" lon="2.22953">
        <ele>1068.4</ele>
        <time>2020-06-22T14:44:53Z</time>
      </trkpt>
      <trkpt lat="42.50879" lon="2.22949">
        <ele>1068.39</ele>
        <time>2020-06-22T14:44:54Z</time>
      </trkpt>
      <trkpt lat="42.50882" lon="2.2295">
        <ele>1069.8</ele>
        <time>2020-06-22T14:45:09Z</time>
      </trkpt>
      <trkpt lat="42.50889" lon="2.2294">
        <ele>1070.25</ele>
        <time>2020-06-22T14:45:33Z</time>
      </trkpt>
      <trkpt lat="42.50891" lon="2.22941">
        <ele>1070.09</ele>
        <time>2020-06-22T14:45:45Z</time>
      </trkpt>
      <trkpt lat="42.50902" lon="2.22932">
        <ele>1071.59</ele>
        <time>2020-06-22T14:46:06Z</time>
      </trkpt>
      <trkpt lat="42.50907" lon="2.22916">
        <ele>1073.09</ele>
        <time>2020-06-22T14:46:22Z</time>
      </trkpt>
      <trkpt lat="42.50909" lon="2.229">
        <ele>1073.69</ele>
        <time>2020-06-22T14:46:40Z</time>
      </trkpt>
      <trkpt lat="42.50915" lon="2.22889">
        <ele>1075.04</ele>
        <time>2020-06-22T14:46:57Z</time>
      </trkpt>
      <trkpt lat="42.50918" lon="2.22874">
        <ele>1075.64</ele>
        <time>2020-06-22T14:47:14Z</time>
      </trkpt>
      <trkpt lat="42.50926" lon="2.22848">
        <ele>1077.06</ele>
        <time>2020-06-22T14:47:34Z</time>
      </trkpt>
      <trkpt lat="42.50929" lon="2.22839">
        <ele>1077.76</ele>
        <time>2020-06-22T14:47:52Z</time>
      </trkpt>
      <trkpt lat="42.50929" lon="2.22826">
        <ele>1078.63</ele>
        <time>2020-06-22T14:48:08Z</time>
      </trkpt>
      <trkpt lat="42.50928" lon="2.22812">
        <ele>1078.63</ele>
        <time>2020-06-22T14:48:13Z</time>
      </trkpt>
      <trkpt lat="42.50929" lon="2.22804">
        <ele>1081.53</ele>
        <time>2020-06-22T14:48:30Z</time>
      </trkpt>
      <trkpt lat="42.50927" lon="2.22789">
        <ele>1084.97</ele>
        <time>2020-06-22T14:48:49Z</time>
      </trkpt>
      <trkpt lat="42.50922" lon="2.22781">
        <ele>1087.81</ele>
        <time>2020-06-22T14:49:07Z</time>
      </trkpt>
      <trkpt lat="42.50921" lon="2.22774">
        <ele>1090.27</ele>
        <time>2020-06-22T14:49:23Z</time>
      </trkpt>
      <trkpt lat="42.50924" lon="2.22771">
        <ele>1090.93</ele>
        <time>2020-06-22T14:49:45Z</time>
      </trkpt>
      <trkpt lat="42.50921" lon="2.22771">
        <ele>1090.82</ele>
        <time>2020-06-22T14:50:15Z</time>
      </trkpt>
      <trkpt lat="42.50919" lon="2.2277">
        <ele>1085.69</ele>
        <time>2020-06-22T14:50:29Z</time>
      </trkpt>
      <trkpt lat="42.50918" lon="2.2277">
        <ele>1091.22</ele>
        <time>2020-06-22T14:50:31Z</time>
      </trkpt>
      <trkpt lat="42.50918" lon="2.2277">
        <ele>1089.57</ele>
        <time>2020-06-22T14:50:34Z</time>
      </trkpt>
      <trkpt lat="42.50919" lon="2.2277">
        <ele>1091.93</ele>
        <time>2020-06-22T14:50:36Z</time>
      </trkpt>
      <trkpt lat="42.50919" lon="2.2277">
        <ele>1088.03</ele>
        <time>2020-06-22T14:50:39Z</time>
      </trkpt>
      <trkpt lat="42.50919" lon="2.2277">
        <ele>1088.02</ele>
        <time>2020-06-22T14:50:40Z</time>
      </trkpt>
      <trkpt lat="42.50919" lon="2.2277">
        <ele>1090.9</ele>
        <time>2020-06-22T14:50:42Z</time>
      </trkpt>
      <trkpt lat="42.50918" lon="2.22768">
        <ele>1086.53</ele>
        <time>2020-06-22T14:50:49Z</time>
      </trkpt>
      <trkpt lat="42.50918" lon="2.22768">
        <ele>1089.86</ele>
        <time>2020-06-22T14:50:50Z</time>
      </trkpt>
      <trkpt lat="42.50918" lon="2.22768">
        <ele>1091.04</ele>
        <time>2020-06-22T14:50:52Z</time>
      </trkpt>
      <trkpt lat="42.50916" lon="2.22766">
        <ele>1087.02</ele>
        <time>2020-06-22T14:51:03Z</time>
      </trkpt>
      <trkpt lat="42.50915" lon="2.22766">
        <ele>1090.6</ele>
        <time>2020-06-22T14:51:04Z</time>
      </trkpt>
      <trkpt lat="42.50915" lon="2.22766">
        <ele>1087.39</ele>
        <time>2020-06-22T14:51:06Z</time>
      </trkpt>
      <trkpt lat="42.50914" lon="2.22766">
        <ele>1090.59</ele>
        <time>2020-06-22T14:51:07Z</time>
      </trkpt>
      <trkpt lat="42.50914" lon="2.22766">
        <ele>1084.76</ele>
        <time>2020-06-22T14:51:23Z</time>
      </trkpt>
      <trkpt lat="42.50915" lon="2.22766">
        <ele>1091.54</ele>
        <time>2020-06-22T14:51:24Z</time>
      </trkpt>
      <trkpt lat="42.50915" lon="2.22766">
        <ele>1088.86</ele>
        <time>2020-06-22T14:51:32Z</time>
      </trkpt>
      <trkpt lat="42.50918" lon="2.22769">
        <ele>1091.18</ele>
        <time>2020-06-22T14:51:56Z</time>
      </trkpt>
      <trkpt lat="42.50928" lon="2.22774">
        <ele>1093.5</ele>
        <time>2020-06-22T14:52:11Z</time>
      </trkpt>
      <trkpt lat="42.50929" lon="2.2277">
        <ele>1096.15</ele>
        <time>2020-06-22T14:52:27Z</time>
      </trkpt>
      <trkpt lat="42.50928" lon="2.22762">
        <ele>1098.47</ele>
        <time>2020-06-22T14:52:45Z</time>
      </trkpt>
      <trkpt lat="42.50929" lon="2.22759">
        <ele>1099.21</ele>
        <time>2020-06-22T14:52:51Z</time>
      </trkpt>
      <trkpt lat="42.50928" lon="2.22757">
        <ele>1099.18</ele>
        <time>2020-06-22T14:52:54Z</time>
      </trkpt>
      <trkpt lat="42.50929" lon="2.22756">
        <ele>1099.87</ele>
        <time>2020-06-22T14:53:10Z</time>
      </trkpt>
      <trkpt lat="42.50932" lon="2.22745">
        <ele>1101.54</ele>
        <time>2020-06-22T14:53:27Z</time>
      </trkpt>
      <trkpt lat="42.50938" lon="2.22733">
        <ele>1103.1</ele>
        <time>2020-06-22T14:53:46Z</time>
      </trkpt>
      <trkpt lat="42.50944" lon="2.22714">
        <ele>1104.57</ele>
        <time>2020-06-22T14:54:05Z</time>
      </trkpt>
      <trkpt lat="42.50948" lon="2.22708">
        <ele>1108.02</ele>
        <time>2020-06-22T14:54:21Z</time>
      </trkpt>
      <trkpt lat="42.50952" lon="2.22695">
        <ele>1110.68</ele>
        <time>2020-06-22T14:54:40Z</time>
      </trkpt>
      <trkpt lat="42.50948" lon="2.22685">
        <ele>1113.93</ele>
        <time>2020-06-22T14:54:56Z</time>
      </trkpt>
      <trkpt lat="42.50951" lon="2.22686">
        <ele>1113.9</ele>
        <time>2020-06-22T14:54:59Z</time>
      </trkpt>
      <trkpt lat="42.50956" lon="2.22692">
        <ele>1115.14</ele>
        <time>2020-06-22T14:55:13Z</time>
      </trkpt>
      <trkpt lat="42.50956" lon="2.22688">
        <ele>1116.47</ele>
        <time>2020-06-22T14:55:33Z</time>
      </trkpt>
      <trkpt lat="42.50957" lon="2.22685">
        <ele>1116.12</ele>
        <time>2020-06-22T14:56:00Z</time>
      </trkpt>
      <trkpt lat="42.50957" lon="2.22682">
        <ele>1115.79</ele>
        <time>2020-06-22T14:56:24Z</time>
      </trkpt>
      <trkpt lat="42.50962" lon="2.22676">
        <ele>1118.16</ele>
        <time>2020-06-22T14:56:39Z</time>
      </trkpt>
      <trkpt lat="42.50967" lon="2.22672">
        <ele>1120.79</ele>
        <time>2020-06-22T14:56:55Z</time>
      </trkpt>
      <trkpt lat="42.50972" lon="2.22661">
        <ele>1122.97</ele>
        <time>2020-06-22T14:57:09Z</time>
      </trkpt>
      <trkpt lat="42.50973" lon="2.22655">
        <ele>1122.53</ele>
        <time>2020-06-22T14:57:23Z</time>
      </trkpt>
      <trkpt lat="42.50973" lon="2.22653">
        <ele>1119.99</ele>
        <time>2020-06-22T14:57:28Z</time>
      </trkpt>
      <trkpt lat="42.50975" lon="2.2265">
        <ele>1117.78</ele>
        <time>2020-06-22T14:57:48Z</time>
      </trkpt>
      <trkpt lat="42.50979" lon="2.22647">
        <ele>1115.09</ele>
        <time>2020-06-22T14:58:08Z</time>
      </trkpt>
      <trkpt lat="42.50989" lon="2.22635">
        <ele>1112.93</ele>
        <time>2020-06-22T14:58:26Z</time>
      </trkpt>
      <trkpt lat="42.50995" lon="2.22628">
        <ele>1115.37</ele>
        <time>2020-06-22T14:58:43Z</time>
      </trkpt>
      <trkpt lat="42.50998" lon="2.22626">
        <ele>1116.6</ele>
        <time>2020-06-22T14:58:48Z</time>
      </trkpt>
      <trkpt lat="42.51009" lon="2.22619">
        <ele>1118.03</ele>
        <time>2020-06-22T14:59:08Z</time>
      </trkpt>
      <trkpt lat="42.51015" lon="2.22618">
        <ele>1118.46</ele>
        <time>2020-06-22T14:59:27Z</time>
      </trkpt>
      <trkpt lat="42.51023" lon="2.22612">
        <ele>1118.12</ele>
        <time>2020-06-22T14:59:45Z</time>
      </trkpt>
      <trkpt lat="42.51025" lon="2.22613">
        <ele>1115.73</ele>
        <time>2020-06-22T14:59:48Z</time>
      </trkpt>
      <trkpt lat="42.51026" lon="2.22613">
        <ele>1115.59</ele>
        <time>2020-06-22T15:00:10Z</time>
      </trkpt>
      <trkpt lat="42.51035" lon="2.22603">
        <ele>1115.38</ele>
        <time>2020-06-22T15:00:28Z</time>
      </trkpt>
      <trkpt lat="42.51042" lon="2.22589">
        <ele>1117.68</ele>
        <time>2020-06-22T15:00:43Z</time>
      </trkpt>
      <trkpt lat="42.51049" lon="2.2258">
        <ele>1119.35</ele>
        <time>2020-06-22T15:01:02Z</time>
      </trkpt>
      <trkpt lat="42.51055" lon="2.22573">
        <ele>1116.73</ele>
        <time>2020-06-22T15:01:14Z</time>
      </trkpt>
      <trkpt lat="42.51064" lon="2.22567">
        <ele>1114.92</ele>
        <time>2020-06-22T15:01:32Z</time>
      </trkpt>
      <trkpt lat="42.5107" lon="2.2257">
        <ele>1113.98</ele>
        <time>2020-06-22T15:01:48Z</time>
      </trkpt>
      <trkpt lat="42.51074" lon="2.22577">
        <ele>1111.18</ele>
        <time>2020-06-22T15:02:07Z</time>
      </trkpt>
      <trkpt lat="42.51077" lon="2.22575">
        <ele>1109.16</ele>
        <time>2020-06-22T15:02:20Z</time>
      </trkpt>
      <trkpt lat="42.51075" lon="2.22564">
        <ele>1107.97</ele>
        <time>2020-06-22T15:02:40Z</time>
      </trkpt>
      <trkpt lat="42.51076" lon="2.22553">
        <ele>1104.46</ele>
        <time>2020-06-22T15:02:58Z</time>
      </trkpt>
      <trkpt lat="42.5108" lon="2.22548">
        <ele>1102.59</ele>
        <time>2020-06-22T15:03:18Z</time>
      </trkpt>
      <trkpt lat="42.51076" lon="2.22548">
        <ele>1101.72</ele>
        <time>2020-06-22T15:03:27Z</time>
      </trkpt>
      <trkpt lat="42.51078" lon="2.22547">
        <ele>1099.87</ele>
        <time>2020-06-22T15:03:36Z</time>
      </trkpt>
      <trkpt lat="42.51079" lon="2.22544">
        <ele>1097.4</ele>
        <time>2020-06-22T15:03:53Z</time>
      </trkpt>
      <trkpt lat="42.5108" lon="2.22546">
        <ele>1097.38</ele>
        <time>2020-06-22T15:04:08Z</time>
      </trkpt>
      <trkpt lat="42.51083" lon="2.22548">
        <ele>1097.37</ele>
        <time>2020-06-22T15:04:14Z</time>
      </trkpt>
      <trkpt lat="42.51084" lon="2.22548">
        <ele>1097.36</ele>
        <time>2020-06-22T15:04:17Z</time>
      </trkpt>
      <trkpt lat="42.51082" lon="2.2255">
        <ele>1097.35</ele>
        <time>2020-06-22T15:04:25Z</time>
      </trkpt>
      <trkpt lat="42.51084" lon="2.22553">
        <ele>1096.45</ele>
        <time>2020-06-22T15:04:44Z</time>
      </trkpt>
      <trkpt lat="42.51087" lon="2.2255">
        <ele>1096.46</ele>
        <time>2020-06-22T15:05:04Z</time>
      </trkpt>
      <trkpt lat="42.5109" lon="2.22554">
        <ele>1094.56</ele>
        <time>2020-06-22T15:05:28Z</time>
      </trkpt>
      <trkpt lat="42.51097" lon="2.2256">
        <ele>1090.67</ele>
        <time>2020-06-22T15:05:48Z</time>
      </trkpt>
      <trkpt lat="42.51097" lon="2.22561">
        <ele>1089.96</ele>
        <time>2020-06-22T15:06:07Z</time>
      </trkpt>
      <trkpt lat="42.511" lon="2.22564">
        <ele>1089.12</ele>
        <time>2020-06-22T15:06:26Z</time>
      </trkpt>
      <trkpt lat="42.51104" lon="2.22571">
        <ele>1087.38</ele>
        <time>2020-06-22T15:06:39Z</time>
      </trkpt>
      <trkpt lat="42.51108" lon="2.22582">
        <ele>1085.39</ele>
        <time>2020-06-22T15:06:59Z</time>
      </trkpt>
      <trkpt lat="42.51107" lon="2.22591">
        <ele>1083.5</ele>
        <time>2020-06-22T15:07:18Z</time>
      </trkpt>
      <trkpt lat="42.51108" lon="2.22594">
        <ele>1082.66</ele>
        <time>2020-06-22T15:07:23Z</time>
      </trkpt>
      <trkpt lat="42.5111" lon="2.22597">
        <ele>1082.66</ele>
        <time>2020-06-22T15:07:28Z</time>
      </trkpt>
      <trkpt lat="42.51119" lon="2.22603">
        <ele>1081.02</ele>
        <time>2020-06-22T15:07:44Z</time>
      </trkpt>
      <trkpt lat="42.51121" lon="2.22605">
        <ele>1080.96</ele>
        <time>2020-06-22T15:07:46Z</time>
      </trkpt>
      <trkpt lat="42.51134" lon="2.22617">
        <ele>1079.33</ele>
        <time>2020-06-22T15:08:04Z</time>
      </trkpt>
      <trkpt lat="42.51136" lon="2.22617">
        <ele>1078.26</ele>
        <time>2020-06-22T15:08:09Z</time>
      </trkpt>
      <trkpt lat="42.51145" lon="2.22615">
        <ele>1074.82</ele>
        <time>2020-06-22T15:08:25Z</time>
      </trkpt>
      <trkpt lat="42.51149" lon="2.22611">
        <ele>1073.29</ele>
        <time>2020-06-22T15:08:40Z</time>
      </trkpt>
      <trkpt lat="42.5116" lon="2.22604">
        <ele>1069.64</ele>
        <time>2020-06-22T15:09:01Z</time>
      </trkpt>
      <trkpt lat="42.51168" lon="2.226">
        <ele>1066.22</ele>
        <time>2020-06-22T15:09:20Z</time>
      </trkpt>
      <trkpt lat="42.51179" lon="2.22596">
        <ele>1063.56</ele>
        <time>2020-06-22T15:09:39Z</time>
      </trkpt>
      <trkpt lat="42.51189" lon="2.22594">
        <ele>1060.06</ele>
        <time>2020-06-22T15:09:56Z</time>
      </trkpt>
      <trkpt lat="42.512" lon="2.22604">
        <ele>1059.33</ele>
        <time>2020-06-22T15:10:15Z</time>
      </trkpt>
      <trkpt lat="42.51213" lon="2.22605">
        <ele>1056.68</ele>
        <time>2020-06-22T15:10:34Z</time>
      </trkpt>
      <trkpt lat="42.51223" lon="2.22608">
        <ele>1054.73</ele>
        <time>2020-06-22T15:10:52Z</time>
      </trkpt>
      <trkpt lat="42.51227" lon="2.22613">
        <ele>1053.24</ele>
        <time>2020-06-22T15:11:03Z</time>
      </trkpt>
      <trkpt lat="42.51228" lon="2.22614">
        <ele>1052.02</ele>
        <time>2020-06-22T15:11:06Z</time>
      </trkpt>
      <trkpt lat="42.51231" lon="2.22611">
        <ele>1049.64</ele>
        <time>2020-06-22T15:11:24Z</time>
      </trkpt>
      <trkpt lat="42.51239" lon="2.22607">
        <ele>1047.99</ele>
        <time>2020-06-22T15:11:41Z</time>
      </trkpt>
      <trkpt lat="42.51248" lon="2.22602">
        <ele>1044.63</ele>
        <time>2020-06-22T15:11:59Z</time>
      </trkpt>
      <trkpt lat="42.51258" lon="2.22599">
        <ele>1042.92</ele>
        <time>2020-06-22T15:12:15Z</time>
      </trkpt>
      <trkpt lat="42.51262" lon="2.22589">
        <ele>1040.39</ele>
        <time>2020-06-22T15:12:34Z</time>
      </trkpt>
      <trkpt lat="42.51267" lon="2.22579">
        <ele>1039.69</ele>
        <time>2020-06-22T15:12:50Z</time>
      </trkpt>
      <trkpt lat="42.5127" lon="2.22574">
        <ele>1039.73</ele>
        <time>2020-06-22T15:13:08Z</time>
      </trkpt>
      <trkpt lat="42.51275" lon="2.22566">
        <ele>1037.23</ele>
        <time>2020-06-22T15:13:24Z</time>
      </trkpt>
      <trkpt lat="42.51278" lon="2.22559">
        <ele>1035.52</ele>
        <time>2020-06-22T15:13:44Z</time>
      </trkpt>
      <trkpt lat="42.51282" lon="2.22553">
        <ele>1032.97</ele>
        <time>2020-06-22T15:14:02Z</time>
      </trkpt>
      <trkpt lat="42.51282" lon="2.22548">
        <ele>1031.3</ele>
        <time>2020-06-22T15:14:13Z</time>
      </trkpt>
      <trkpt lat="42.51282" lon="2.22534">
        <ele>1030.67</ele>
        <time>2020-06-22T15:14:27Z</time>
      </trkpt>
      <trkpt lat="42.5128" lon="2.2252">
        <ele>1030.73</ele>
        <time>2020-06-22T15:14:45Z</time>
      </trkpt>
      <trkpt lat="42.51278" lon="2.22509">
        <ele>1030.72</ele>
        <time>2020-06-22T15:15:03Z</time>
      </trkpt>
      <trkpt lat="42.51271" lon="2.22502">
        <ele>1028.98</ele>
        <time>2020-06-22T15:15:23Z</time>
      </trkpt>
      <trkpt lat="42.51274" lon="2.22483">
        <ele>1028.32</ele>
        <time>2020-06-22T15:15:45Z</time>
      </trkpt>
      <trkpt lat="42.51279" lon="2.22482">
        <ele>1028.29</ele>
        <time>2020-06-22T15:15:50Z</time>
      </trkpt>
      <trkpt lat="42.51283" lon="2.22479">
        <ele>1027.42</ele>
        <time>2020-06-22T15:16:13Z</time>
      </trkpt>
      <trkpt lat="42.51283" lon="2.2248">
        <ele>1027.4</ele>
        <time>2020-06-22T15:16:17Z</time>
      </trkpt>
      <trkpt lat="42.51286" lon="2.22479">
        <ele>1027.36</ele>
        <time>2020-06-22T15:16:26Z</time>
      </trkpt>
      <trkpt lat="42.51288" lon="2.22482">
        <ele>1027.27</ele>
        <time>2020-06-22T15:16:48Z</time>
      </trkpt>
      <trkpt lat="42.51289" lon="2.22487">
        <ele>1027.15</ele>
        <time>2020-06-22T15:17:09Z</time>
      </trkpt>
      <trkpt lat="42.5129" lon="2.22489">
        <ele>1027.08</ele>
        <time>2020-06-22T15:17:30Z</time>
      </trkpt>
      <trkpt lat="42.51292" lon="2.22488">
        <ele>1026.08</ele>
        <time>2020-06-22T15:17:42Z</time>
      </trkpt>
      <trkpt lat="42.5129" lon="2.22481">
        <ele>1025.13</ele>
        <time>2020-06-22T15:17:58Z</time>
      </trkpt>
      <trkpt lat="42.51291" lon="2.22474">
        <ele>1022.5</ele>
        <time>2020-06-22T15:18:19Z</time>
      </trkpt>
      <trkpt lat="42.51288" lon="2.22473">
        <ele>1022.41</ele>
        <time>2020-06-22T15:18:39Z</time>
      </trkpt>
      <trkpt lat="42.51289" lon="2.22476">
        <ele>1022.31</ele>
        <time>2020-06-22T15:19:00Z</time>
      </trkpt>
      <trkpt lat="42.51291" lon="2.22474">
        <ele>1022.19</ele>
        <time>2020-06-22T15:19:26Z</time>
      </trkpt>
      <trkpt lat="42.5129" lon="2.22469">
        <ele>1022.03</ele>
        <time>2020-06-22T15:19:52Z</time>
      </trkpt>
      <trkpt lat="42.51301" lon="2.22466">
        <ele>1020.27</ele>
        <time>2020-06-22T15:20:09Z</time>
      </trkpt>
      <trkpt lat="42.51308" lon="2.22471">
        <ele>1020.22</ele>
        <time>2020-06-22T15:20:24Z</time>
      </trkpt>
      <trkpt lat="42.51311" lon="2.22479">
        <ele>1018.05</ele>
        <time>2020-06-22T15:20:41Z</time>
      </trkpt>
      <trkpt lat="42.51315" lon="2.22482">
        <ele>1015.62</ele>
        <time>2020-06-22T15:20:49Z</time>
      </trkpt>
      <trkpt lat="42.51317" lon="2.22483">
        <ele>1014.77</ele>
        <time>2020-06-22T15:20:58Z</time>
      </trkpt>
      <trkpt lat="42.51323" lon="2.22483">
        <ele>1011.36</ele>
        <time>2020-06-22T15:21:15Z</time>
      </trkpt>
      <trkpt lat="42.51323" lon="2.22473">
        <ele>1008.56</ele>
        <time>2020-06-22T15:21:31Z</time>
      </trkpt>
      <trkpt lat="42.5133" lon="2.22473">
        <ele>1005.11</ele>
        <time>2020-06-22T15:21:49Z</time>
      </trkpt>
      <trkpt lat="42.51337" lon="2.22468">
        <ele>1002.36</ele>
        <time>2020-06-22T15:22:06Z</time>
      </trkpt>
      <trkpt lat="42.51344" lon="2.22464">
        <ele>999.34</ele>
        <time>2020-06-22T15:22:20Z</time>
      </trkpt>
      <trkpt lat="42.51351" lon="2.22456">
        <ele>997.44</ele>
        <time>2020-06-22T15:22:38Z</time>
      </trkpt>
      <trkpt lat="42.51364" lon="2.22456">
        <ele>995.76</ele>
        <time>2020-06-22T15:22:57Z</time>
      </trkpt>
      <trkpt lat="42.51371" lon="2.22454">
        <ele>995.7</ele>
        <time>2020-06-22T15:23:14Z</time>
      </trkpt>
      <trkpt lat="42.51378" lon="2.2245">
        <ele>995.6</ele>
        <time>2020-06-22T15:23:33Z</time>
      </trkpt>
      <trkpt lat="42.51385" lon="2.22448">
        <ele>995.53</ele>
        <time>2020-06-22T15:23:50Z</time>
      </trkpt>
      <trkpt lat="42.51386" lon="2.22448">
        <ele>997.85</ele>
        <time>2020-06-22T15:23:52Z</time>
      </trkpt>
      <trkpt lat="42.51397" lon="2.22451">
        <ele>999.6</ele>
        <time>2020-06-22T15:24:09Z</time>
      </trkpt>
      <trkpt lat="42.51404" lon="2.22456">
        <ele>999.45</ele>
        <time>2020-06-22T15:24:24Z</time>
      </trkpt>
      <trkpt lat="42.51404" lon="2.22457">
        <ele>1000.11</ele>
        <time>2020-06-22T15:24:50Z</time>
      </trkpt>
      <trkpt lat="42.51412" lon="2.22457">
        <ele>999.96</ele>
        <time>2020-06-22T15:25:10Z</time>
      </trkpt>
      <trkpt lat="42.51429" lon="2.22463">
        <ele>1000.61</ele>
        <time>2020-06-22T15:25:31Z</time>
      </trkpt>
      <trkpt lat="42.51439" lon="2.22466">
        <ele>1000.54</ele>
        <time>2020-06-22T15:25:47Z</time>
      </trkpt>
      <trkpt lat="42.51447" lon="2.22469">
        <ele>1002.05</ele>
        <time>2020-06-22T15:26:03Z</time>
      </trkpt>
      <trkpt lat="42.51456" lon="2.22464">
        <ele>1003.73</ele>
        <time>2020-06-22T15:26:20Z</time>
      </trkpt>
      <trkpt lat="42.51463" lon="2.22462">
        <ele>1001.26</ele>
        <time>2020-06-22T15:26:32Z</time>
      </trkpt>
      <trkpt lat="42.51475" lon="2.22464">
        <ele>999.57</ele>
        <time>2020-06-22T15:26:44Z</time>
      </trkpt>
      <trkpt lat="42.51476" lon="2.22463">
        <ele>999.55</ele>
        <time>2020-06-22T15:26:45Z</time>
      </trkpt>
      <trkpt lat="42.51491" lon="2.22458">
        <ele>998.63</ele>
        <time>2020-06-22T15:27:04Z</time>
      </trkpt>
      <trkpt lat="42.51501" lon="2.22458">
        <ele>994.8</ele>
        <time>2020-06-22T15:27:23Z</time>
      </trkpt>
      <trkpt lat="42.51514" lon="2.22449">
        <ele>993.87</ele>
        <time>2020-06-22T15:27:44Z</time>
      </trkpt>
      <trkpt lat="42.51528" lon="2.22444">
        <ele>996.04</ele>
        <time>2020-06-22T15:27:59Z</time>
      </trkpt>
      <trkpt lat="42.51529" lon="2.22444">
        <ele>996.02</ele>
        <time>2020-06-22T15:28:00Z</time>
      </trkpt>
      <trkpt lat="42.51542" lon="2.2244">
        <ele>997.51</ele>
        <time>2020-06-22T15:28:18Z</time>
      </trkpt>
      <trkpt lat="42.51553" lon="2.22441">
        <ele>998.93</ele>
        <time>2020-06-22T15:28:38Z</time>
      </trkpt>
      <trkpt lat="42.51556" lon="2.22442">
        <ele>998.76</ele>
        <time>2020-06-22T15:28:55Z</time>
      </trkpt>
      <trkpt lat="42.51563" lon="2.22444">
        <ele>998.66</ele>
        <time>2020-06-22T15:29:07Z</time>
      </trkpt>
      <trkpt lat="42.5157" lon="2.22447">
        <ele>996.28</ele>
        <time>2020-06-22T15:29:18Z</time>
      </trkpt>
      <trkpt lat="42.5158" lon="2.22452">
        <ele>994.6</ele>
        <time>2020-06-22T15:29:34Z</time>
      </trkpt>
      <trkpt lat="42.51587" lon="2.22456">
        <ele>991.98</ele>
        <time>2020-06-22T15:29:49Z</time>
      </trkpt>
      <trkpt lat="42.51592" lon="2.22459">
        <ele>991.1</ele>
        <time>2020-06-22T15:30:06Z</time>
      </trkpt>
      <trkpt lat="42.51591" lon="2.22457">
        <ele>990.23</ele>
        <time>2020-06-22T15:30:29Z</time>
      </trkpt>
      <trkpt lat="42.51597" lon="2.22459">
        <ele>990.15</ele>
        <time>2020-06-22T15:30:47Z</time>
      </trkpt>
      <trkpt lat="42.51604" lon="2.22461">
        <ele>987.47</ele>
        <time>2020-06-22T15:31:03Z</time>
      </trkpt>
      <trkpt lat="42.51616" lon="2.22459">
        <ele>984.07</ele>
        <time>2020-06-22T15:31:19Z</time>
      </trkpt>
      <trkpt lat="42.51627" lon="2.22455">
        <ele>981.52</ele>
        <time>2020-06-22T15:31:39Z</time>
      </trkpt>
      <trkpt lat="42.51635" lon="2.22452">
        <ele>977.98</ele>
        <time>2020-06-22T15:31:50Z</time>
      </trkpt>
      <trkpt lat="42.51643" lon="2.22451">
        <ele>977.14</ele>
        <time>2020-06-22T15:32:08Z</time>
      </trkpt>
      <trkpt lat="42.51641" lon="2.22446">
        <ele>973.95</ele>
        <time>2020-06-22T15:32:17Z</time>
      </trkpt>
      <trkpt lat="42.5164" lon="2.22446">
        <ele>973.95</ele>
        <time>2020-06-22T15:32:18Z</time>
      </trkpt>
      <trkpt lat="42.51632" lon="2.22436">
        <ele>971.39</ele>
        <time>2020-06-22T15:32:33Z</time>
      </trkpt>
      <trkpt lat="42.51641" lon="2.22433">
        <ele>970.54</ele>
        <time>2020-06-22T15:32:50Z</time>
      </trkpt>
      <trkpt lat="42.5165" lon="2.22433">
        <ele>967.91</ele>
        <time>2020-06-22T15:33:09Z</time>
      </trkpt>
      <trkpt lat="42.51657" lon="2.22434">
        <ele>965.42</ele>
        <time>2020-06-22T15:33:28Z</time>
      </trkpt>
      <trkpt lat="42.51655" lon="2.22429">
        <ele>961.77</ele>
        <time>2020-06-22T15:33:41Z</time>
      </trkpt>
      <trkpt lat="42.51648" lon="2.22419">
        <ele>959.27</ele>
        <time>2020-06-22T15:34:01Z</time>
      </trkpt>
      <trkpt lat="42.51649" lon="2.22418">
        <ele>959.28</ele>
        <time>2020-06-22T15:34:19Z</time>
      </trkpt>
      <trkpt lat="42.51661" lon="2.22418">
        <ele>956.84</ele>
        <time>2020-06-22T15:34:38Z</time>
      </trkpt>
      <trkpt lat="42.51666" lon="2.22409">
        <ele>953.32</ele>
        <time>2020-06-22T15:34:51Z</time>
      </trkpt>
      <trkpt lat="42.51673" lon="2.22396">
        <ele>950.87</ele>
        <time>2020-06-22T15:35:10Z</time>
      </trkpt>
      <trkpt lat="42.51675" lon="2.22389">
        <ele>949.92</ele>
        <time>2020-06-22T15:35:25Z</time>
      </trkpt>
      <trkpt lat="42.51678" lon="2.22382">
        <ele>947.33</ele>
        <time>2020-06-22T15:35:48Z</time>
      </trkpt>
      <trkpt lat="42.51684" lon="2.22372">
        <ele>943.93</ele>
        <time>2020-06-22T15:36:09Z</time>
      </trkpt>
      <trkpt lat="42.51692" lon="2.22359">
        <ele>943.07</ele>
        <time>2020-06-22T15:36:26Z</time>
      </trkpt>
      <trkpt lat="42.51695" lon="2.22349">
        <ele>942.24</ele>
        <time>2020-06-22T15:36:38Z</time>
      </trkpt>
      <trkpt lat="42.51705" lon="2.22344">
        <ele>941.48</ele>
        <time>2020-06-22T15:36:54Z</time>
      </trkpt>
      <trkpt lat="42.51707" lon="2.22344">
        <ele>940.49</ele>
        <time>2020-06-22T15:36:56Z</time>
      </trkpt>
      <trkpt lat="42.51715" lon="2.22334">
        <ele>938.89</ele>
        <time>2020-06-22T15:37:11Z</time>
      </trkpt>
      <trkpt lat="42.5172" lon="2.22328">
        <ele>935.22</ele>
        <time>2020-06-22T15:37:26Z</time>
      </trkpt>
      <trkpt lat="42.51727" lon="2.22328">
        <ele>932.4</ele>
        <time>2020-06-22T15:37:42Z</time>
      </trkpt>
      <trkpt lat="42.51734" lon="2.22327">
        <ele>929.09</ele>
        <time>2020-06-22T15:37:55Z</time>
      </trkpt>
      <trkpt lat="42.51734" lon="2.22327">
        <ele>929.09</ele>
        <time>2020-06-22T15:37:56Z</time>
      </trkpt>
      <trkpt lat="42.51732" lon="2.22319">
        <ele>927.23</ele>
        <time>2020-06-22T15:38:08Z</time>
      </trkpt>
      <trkpt lat="42.5174" lon="2.22322">
        <ele>926.48</ele>
        <time>2020-06-22T15:38:22Z</time>
      </trkpt>
      <trkpt lat="42.51747" lon="2.22324">
        <ele>924.92</ele>
        <time>2020-06-22T15:38:38Z</time>
      </trkpt>
      <trkpt lat="42.5175" lon="2.2232">
        <ele>922.18</ele>
        <time>2020-06-22T15:38:51Z</time>
      </trkpt>
      <trkpt lat="42.5175" lon="2.22314">
        <ele>919.72</ele>
        <time>2020-06-22T15:39:07Z</time>
      </trkpt>
      <trkpt lat="42.51758" lon="2.2232">
        <ele>917.79</ele>
        <time>2020-06-22T15:39:25Z</time>
      </trkpt>
      <trkpt lat="42.51762" lon="2.22325">
        <ele>915.14</ele>
        <time>2020-06-22T15:39:42Z</time>
      </trkpt>
      <trkpt lat="42.51764" lon="2.22311">
        <ele>911.81</ele>
        <time>2020-06-22T15:40:00Z</time>
      </trkpt>
      <trkpt lat="42.51764" lon="2.22303">
        <ele>910.22</ele>
        <time>2020-06-22T15:40:11Z</time>
      </trkpt>
      <trkpt lat="42.51764" lon="2.22294">
        <ele>907.57</ele>
        <time>2020-06-22T15:40:21Z</time>
      </trkpt>
      <trkpt lat="42.51767" lon="2.22297">
        <ele>905.13</ele>
        <time>2020-06-22T15:40:38Z</time>
      </trkpt>
      <trkpt lat="42.51769" lon="2.22302">
        <ele>902.87</ele>
        <time>2020-06-22T15:40:54Z</time>
      </trkpt>
      <trkpt lat="42.51772" lon="2.2231">
        <ele>899.58</ele>
        <time>2020-06-22T15:41:11Z</time>
      </trkpt>
      <trkpt lat="42.51772" lon="2.22319">
        <ele>896.43</ele>
        <time>2020-06-22T15:41:29Z</time>
      </trkpt>
      <trkpt lat="42.51773" lon="2.22332">
        <ele>895.84</ele>
        <time>2020-06-22T15:41:48Z</time>
      </trkpt>
      <trkpt lat="42.51775" lon="2.22336">
        <ele>895.99</ele>
        <time>2020-06-22T15:42:07Z</time>
      </trkpt>
      <trkpt lat="42.51785" lon="2.22348">
        <ele>896.09</ele>
        <time>2020-06-22T15:42:32Z</time>
      </trkpt>
      <trkpt lat="42.51794" lon="2.2235">
        <ele>895.38</ele>
        <time>2020-06-22T15:42:50Z</time>
      </trkpt>
      <trkpt lat="42.51796" lon="2.22349">
        <ele>895.35</ele>
        <time>2020-06-22T15:42:51Z</time>
      </trkpt>
      <trkpt lat="42.518" lon="2.22352">
        <ele>895.5</ele>
        <time>2020-06-22T15:43:11Z</time>
      </trkpt>
      <trkpt lat="42.51805" lon="2.22351">
        <ele>894.72</ele>
        <time>2020-06-22T15:43:16Z</time>
      </trkpt>
      <trkpt lat="42.51817" lon="2.22339">
        <ele>893.24</ele>
        <time>2020-06-22T15:43:35Z</time>
      </trkpt>
      <trkpt lat="42.5183" lon="2.22318">
        <ele>891.68</ele>
        <time>2020-06-22T15:43:57Z</time>
      </trkpt>
      <trkpt lat="42.51838" lon="2.22303">
        <ele>889.92</ele>
        <time>2020-06-22T15:44:09Z</time>
      </trkpt>
      <trkpt lat="42.51852" lon="2.22283">
        <ele>889.42</ele>
        <time>2020-06-22T15:44:28Z</time>
      </trkpt>
      <trkpt lat="42.51856" lon="2.22275">
        <ele>888.06</ele>
        <time>2020-06-22T15:44:47Z</time>
      </trkpt>
      <trkpt lat="42.5186" lon="2.22272">
        <ele>887.25</ele>
        <time>2020-06-22T15:44:56Z</time>
      </trkpt>
      <trkpt lat="42.51862" lon="2.2227">
        <ele>887.27</ele>
        <time>2020-06-22T15:45:01Z</time>
      </trkpt>
      <trkpt lat="42.51865" lon="2.22266">
        <ele>887.28</ele>
        <time>2020-06-22T15:45:03Z</time>
      </trkpt>
      <trkpt lat="42.51868" lon="2.22261">
        <ele>886.44</ele>
        <time>2020-06-22T15:45:07Z</time>
      </trkpt>
      <trkpt lat="42.51872" lon="2.22256">
        <ele>886.5</ele>
        <time>2020-06-22T15:45:12Z</time>
      </trkpt>
      <trkpt lat="42.51879" lon="2.22244">
        <ele>884.92</ele>
        <time>2020-06-22T15:45:28Z</time>
      </trkpt>
      <trkpt lat="42.51883" lon="2.22237">
        <ele>884.94</ele>
        <time>2020-06-22T15:45:30Z</time>
      </trkpt>
      <trkpt lat="42.51893" lon="2.22216">
        <ele>882.45</ele>
        <time>2020-06-22T15:45:50Z</time>
      </trkpt>
      <trkpt lat="42.51908" lon="2.22197">
        <ele>880.26</ele>
        <time>2020-06-22T15:46:11Z</time>
      </trkpt>
      <trkpt lat="42.51917" lon="2.22191">
        <ele>878.66</ele>
        <time>2020-06-22T15:46:24Z</time>
      </trkpt>
      <trkpt lat="42.51934" lon="2.22185">
        <ele>876.25</ele>
        <time>2020-06-22T15:47:05Z</time>
      </trkpt>
      <trkpt lat="42.51938" lon="2.22182">
        <ele>876.3</ele>
        <time>2020-06-22T15:47:08Z</time>
      </trkpt>
      <trkpt lat="42.51939" lon="2.22182">
        <ele>875.25</ele>
        <time>2020-06-22T15:47:10Z</time>
      </trkpt>
      <trkpt lat="42.51954" lon="2.22175">
        <ele>873.7</ele>
        <time>2020-06-22T15:47:30Z</time>
      </trkpt>
      <trkpt lat="42.51965" lon="2.22171">
        <ele>873.76</ele>
        <time>2020-06-22T15:47:35Z</time>
      </trkpt>
      <trkpt lat="42.51969" lon="2.22169">
        <ele>872.87</ele>
        <time>2020-06-22T15:47:40Z</time>
      </trkpt>
      <trkpt lat="42.51999" lon="2.22166">
        <ele>872</ele>
        <time>2020-06-22T15:47:58Z</time>
      </trkpt>
      <trkpt lat="42.52013" lon="2.22168">
        <ele>871.25</ele>
        <time>2020-06-22T15:48:08Z</time>
      </trkpt>
      <trkpt lat="42.52019" lon="2.22166">
        <ele>871.22</ele>
        <time>2020-06-22T15:48:10Z</time>
      </trkpt>
      <trkpt lat="42.52036" lon="2.22168">
        <ele>871.24</ele>
        <time>2020-06-22T15:48:19Z</time>
      </trkpt>
      <trkpt lat="42.5206" lon="2.22177">
        <ele>869.8</ele>
        <time>2020-06-22T15:48:52Z</time>
      </trkpt>
      <trkpt lat="42.52069" lon="2.22179">
        <ele>869.03</ele>
        <time>2020-06-22T15:49:01Z</time>
      </trkpt>
      <trkpt lat="42.52077" lon="2.22182">
        <ele>868.26</ele>
        <time>2020-06-22T15:49:13Z</time>
      </trkpt>
      <trkpt lat="42.52084" lon="2.22183">
        <ele>868.27</ele>
        <time>2020-06-22T15:49:17Z</time>
      </trkpt>
      <trkpt lat="42.52093" lon="2.22192">
        <ele>867.49</ele>
        <time>2020-06-22T15:49:27Z</time>
      </trkpt>
      <trkpt lat="42.52095" lon="2.22194">
        <ele>867.48</ele>
        <time>2020-06-22T15:49:29Z</time>
      </trkpt>
      <trkpt lat="42.521" lon="2.22196">
        <ele>867.59</ele>
        <time>2020-06-22T15:49:33Z</time>
      </trkpt>
      <trkpt lat="42.52103" lon="2.22197">
        <ele>867.62</ele>
        <time>2020-06-22T15:49:36Z</time>
      </trkpt>
      <trkpt lat="42.52108" lon="2.22196">
        <ele>866.83</ele>
        <time>2020-06-22T15:49:40Z</time>
      </trkpt>
      <trkpt lat="42.5213" lon="2.22201">
        <ele>867.11</ele>
        <time>2020-06-22T15:50:05Z</time>
      </trkpt>
      <trkpt lat="42.52147" lon="2.22198">
        <ele>865.69</ele>
        <time>2020-06-22T15:50:29Z</time>
      </trkpt>
      <trkpt lat="42.52168" lon="2.22181">
        <ele>865.94</ele>
        <time>2020-06-22T15:50:46Z</time>
      </trkpt>
      <trkpt lat="42.52203" lon="2.22173">
        <ele>865.36</ele>
        <time>2020-06-22T15:51:07Z</time>
      </trkpt>
      <trkpt lat="42.52213" lon="2.22171">
        <ele>865.49</ele>
        <time>2020-06-22T15:51:14Z</time>
      </trkpt>
      <trkpt lat="42.5222" lon="2.22174">
        <ele>865.6</ele>
        <time>2020-06-22T15:51:23Z</time>
      </trkpt>
      <trkpt lat="42.5223" lon="2.2218">
        <ele>865.68</ele>
        <time>2020-06-22T15:51:36Z</time>
      </trkpt>
      <trkpt lat="42.52238" lon="2.22188">
        <ele>865.73</ele>
        <time>2020-06-22T15:51:45Z</time>
      </trkpt>
      <trkpt lat="42.52242" lon="2.22195">
        <ele>865.74</ele>
        <time>2020-06-22T15:51:51Z</time>
      </trkpt>
      <trkpt lat="42.52251" lon="2.22205">
        <ele>865.75</ele>
        <time>2020-06-22T15:52:02Z</time>
      </trkpt>
      <trkpt lat="42.52253" lon="2.22208">
        <ele>865.75</ele>
        <time>2020-06-22T15:52:05Z</time>
      </trkpt>
      <trkpt lat="42.52255" lon="2.22213">
        <ele>868.11</ele>
        <time>2020-06-22T15:52:10Z</time>
      </trkpt>
      <trkpt lat="42.52256" lon="2.22214">
        <ele>868.11</ele>
        <time>2020-06-22T15:52:12Z</time>
      </trkpt>
      <trkpt lat="42.52265" lon="2.22219">
        <ele>868.06</ele>
        <time>2020-06-22T15:52:24Z</time>
      </trkpt>
      <trkpt lat="42.52266" lon="2.22222">
        <ele>868.04</ele>
        <time>2020-06-22T15:52:59Z</time>
      </trkpt>
      <trkpt lat="42.52266" lon="2.22223">
        <ele>868.04</ele>
        <time>2020-06-22T15:53:02Z</time>
      </trkpt>
      <trkpt lat="42.5227" lon="2.22234">
        <ele>867.9</ele>
        <time>2020-06-22T15:53:46Z</time>
      </trkpt>
      <trkpt lat="42.52271" lon="2.22233">
        <ele>867.61</ele>
        <time>2020-06-22T15:54:38Z</time>
      </trkpt>
      <trkpt lat="42.52273" lon="2.22233">
        <ele>868.43</ele>
        <time>2020-06-22T15:55:06Z</time>
      </trkpt>
      <trkpt lat="42.52273" lon="2.22233">
        <ele>868.37</ele>
        <time>2020-06-22T15:55:13Z</time>
      </trkpt>
    </trkseg>
  </trk>
</gpx>